Wetterdaten: Montag, 19.09.2016
Datum Zeit Temp. A. Feuchte A. Luftdruck Regen Wind Richtung Richtung Sonnenschein ET UV Solar Taupunkt Windchill Windben Empfang
19.09.2016 00:00 13,6 C 92 % 1009,9 hPa 0,0 l/m 10,6 km/h (2 Bft) W-SW 242 0 min 0,000 mm 0,0 UV-I 0 W/m 12,3 C 11,3 C 14,5 km/h (3 Bft) 97,87 %
19.09.2016 00:02 13,6 C 91 % 1010,0 hPa 0,0 l/m 9,3 km/h (2 Bft) W 261 0 min 0,000 mm 0,0 UV-I 0 W/m 12,2 C 11,9 C 12,9 km/h (3 Bft) 97,62 %
19.09.2016 00:04 13,6 C 91 % 1010,0 hPa 0,0 l/m 8,1 km/h (2 Bft) W-SW 248 0 min 0,000 mm 0,0 UV-I 0 W/m 12,2 C 12,6 C 12,9 km/h (3 Bft) 98,00 %
19.09.2016 00:06 13,6 C 91 % 1010,0 hPa 0,0 l/m 7,5 km/h (2 Bft) S-SW 204 0 min 0,000 mm 0,0 UV-I 0 W/m 12,2 C 12,9 C 12,9 km/h (3 Bft) 100,00 %
19.09.2016 00:08 13,6 C 91 % 1010,0 hPa 0,0 l/m 5,3 km/h (1 Bft) W-SW 242 0 min 0,000 mm 0,0 UV-I 0 W/m 12,2 C 13,6 C 8,0 km/h (2 Bft) 100,00 %
19.09.2016 00:10 13,6 C 92 % 1010,0 hPa 0,0 l/m 6,5 km/h (2 Bft) SW 228 0 min 0,000 mm 0,0 UV-I 0 W/m 12,3 C 13,6 C 11,3 km/h (2 Bft) 95,74 %
19.09.2016 00:12 13,6 C 92 % 1010,1 hPa 0,0 l/m 4,5 km/h (1 Bft) SW 227 0 min 0,000 mm 0,0 UV-I 0 W/m 12,3 C 13,6 C 8,0 km/h (2 Bft) 100,00 %
19.09.2016 00:14 13,6 C 92 % 1010,1 hPa 0,0 l/m 5,6 km/h (1 Bft) S-SW 205 0 min 0,000 mm 0,0 UV-I 0 W/m 12,3 C 13,6 C 8,0 km/h (2 Bft) 97,87 %
19.09.2016 00:16 13,6 C 92 % 1010,1 hPa 0,0 l/m 5,6 km/h (1 Bft) SW 223 0 min 0,000 mm 0,0 UV-I 0 W/m 12,3 C 13,6 C 8,0 km/h (2 Bft) 100,00 %
19.09.2016 00:18 13,5 C 92 % 1010,0 hPa 0,0 l/m 6,8 km/h (2 Bft) S-SW 197 0 min 0,000 mm 0,0 UV-I 0 W/m 12,2 C 13,3 C 9,7 km/h (2 Bft) 100,00 %
19.09.2016 00:20 13,4 C 92 % 1010,0 hPa 0,0 l/m 6,7 km/h (2 Bft) SW 235 0 min 0,000 mm 0,0 UV-I 0 W/m 12,1 C 13,2 C 11,3 km/h (2 Bft) 100,00 %
19.09.2016 00:22 13,4 C 92 % 1010,0 hPa 0,0 l/m 5,2 km/h (1 Bft) S-SW 194 0 min 0,000 mm 0,0 UV-I 0 W/m 12,1 C 13,4 C 9,7 km/h (2 Bft) 100,00 %
19.09.2016 00:24 13,4 C 92 % 1010,0 hPa 0,0 l/m 5,1 km/h (1 Bft) SW 215 0 min 0,000 mm 0,0 UV-I 0 W/m 12,1 C 13,4 C 9,7 km/h (2 Bft) 100,00 %
19.09.2016 00:26 13,4 C 92 % 1010,0 hPa 0,0 l/m 5,5 km/h (1 Bft) S-SW 206 0 min 0,000 mm 0,0 UV-I 0 W/m 12,1 C 13,4 C 9,7 km/h (2 Bft) 97,87 %
19.09.2016 00:28 13,4 C 92 % 1010,0 hPa 0,0 l/m 5,9 km/h (2 Bft) W-SW 237 0 min 0,000 mm 0,0 UV-I 0 W/m 12,1 C 13,4 C 9,7 km/h (2 Bft) 100,00 %
19.09.2016 00:30 13,4 C 92 % 1010,0 hPa 0,0 l/m 4,7 km/h (1 Bft) S-SW 208 0 min 0,000 mm 0,0 UV-I 0 W/m 12,1 C 13,4 C 6,4 km/h (2 Bft) 100,00 %
19.09.2016 00:32 13,3 C 92 % 1010,0 hPa 0,0 l/m 7,1 km/h (2 Bft) W-SW 250 0 min 0,000 mm 0,0 UV-I 0 W/m 12,0 C 12,9 C 11,3 km/h (2 Bft) 100,00 %
19.09.2016 00:34 13,3 C 92 % 1010,0 hPa 0,0 l/m 5,8 km/h (2 Bft) SW 221 0 min 0,000 mm 0,0 UV-I 0 W/m 12,0 C 13,3 C 9,7 km/h (2 Bft) 100,00 %
19.09.2016 00:36 13,4 C 92 % 1010,0 hPa 0,0 l/m 6,9 km/h (2 Bft) SW 230 0 min 0,000 mm 0,0 UV-I 0 W/m 12,1 C 13,1 C 11,3 km/h (2 Bft) 100,00 %
19.09.2016 00:38 13,3 C 92 % 1010,0 hPa 0,0 l/m 7,1 km/h (2 Bft) SW 225 0 min 0,000 mm 0,0 UV-I 0 W/m 12,0 C 12,9 C 9,7 km/h (2 Bft) 100,00 %
19.09.2016 00:40 13,4 C 92 % 1010,0 hPa 0,0 l/m 6,8 km/h (2 Bft) SW 230 0 min 0,000 mm 0,0 UV-I 0 W/m 12,1 C 13,2 C 11,3 km/h (2 Bft) 100,00 %
19.09.2016 00:42 13,3 C 92 % 1010,0 hPa 0,0 l/m 6,4 km/h (2 Bft) W-SW 248 0 min 0,000 mm 0,0 UV-I 0 W/m 12,0 C 13,3 C 9,7 km/h (2 Bft) 100,00 %
19.09.2016 00:44 13,3 C 92 % 1010,0 hPa 0,0 l/m 7,3 km/h (2 Bft) SW 227 0 min 0,000 mm 0,0 UV-I 0 W/m 12,0 C 12,7 C 11,3 km/h (2 Bft) 100,00 %
19.09.2016 00:46 13,4 C 92 % 1010,0 hPa 0,0 l/m 7,5 km/h (2 Bft) W-SW 246 0 min 0,000 mm 0,0 UV-I 0 W/m 12,1 C 12,7 C 11,3 km/h (2 Bft) 100,00 %
19.09.2016 00:48 13,4 C 92 % 1010,0 hPa 0,0 l/m 7,3 km/h (2 Bft) W 260 0 min 0,000 mm 0,0 UV-I 0 W/m 12,1 C 12,8 C 12,9 km/h (3 Bft) 100,00 %
19.09.2016 00:50 13,4 C 92 % 1010,0 hPa 0,0 l/m 9,1 km/h (2 Bft) W-SW 238 0 min 0,000 mm 0,0 UV-I 0 W/m 12,1 C 11,8 C 12,9 km/h (3 Bft) 100,00 %
19.09.2016 00:52 13,4 C 92 % 1010,0 hPa 0,0 l/m 9,2 km/h (2 Bft) W-SW 246 0 min 0,000 mm 0,0 UV-I 0 W/m 12,1 C 11,8 C 14,5 km/h (3 Bft) 97,87 %
19.09.2016 00:54 13,4 C 92 % 1010,1 hPa 0,0 l/m 8,0 km/h (2 Bft) W-SW 257 0 min 0,000 mm 0,0 UV-I 0 W/m 12,1 C 12,4 C 11,3 km/h (2 Bft) 97,87 %
19.09.2016 00:56 13,5 C 92 % 1010,1 hPa 0,0 l/m 6,6 km/h (2 Bft) W-SW 251 0 min 0,000 mm 0,0 UV-I 0 W/m 12,2 C 13,4 C 11,3 km/h (2 Bft) 100,00 %
19.09.2016 00:58 13,5 C 92 % 1010,1 hPa 0,0 l/m 5,8 km/h (2 Bft) W-SW 241 0 min 0,000 mm 0,0 UV-I 0 W/m 12,2 C 13,5 C 9,7 km/h (2 Bft) 100,00 %
19.09.2016 01:00 13,6 C 91 % 1010,0 hPa 0,0 l/m 6,7 km/h (2 Bft) W 276 0 min 0,000 mm 0,0 UV-I 0 W/m 12,2 C 13,4 C 9,7 km/h (2 Bft) 100,00 %
19.09.2016 01:01 13,6 C 91 % 1010,1 hPa 0,0 l/m 6,2 km/h (2 Bft) SW 220 0 min 0,000 mm 0,0 UV-I 0 W/m 12,2 C 13,6 C 9,7 km/h (2 Bft) 100,00 %
19.09.2016 01:04 13,6 C 91 % 1010,1 hPa 0,0 l/m 6,4 km/h (2 Bft) S-SW 208 0 min 0,000 mm 0,0 UV-I 0 W/m 12,2 C 13,6 C 9,7 km/h (2 Bft) 100,00 %
19.09.2016 01:06 13,6 C 91 % 1010,0 hPa 0,0 l/m 6,7 km/h (2 Bft) W 261 0 min 0,000 mm 0,0 UV-I 0 W/m 12,2 C 13,4 C 11,3 km/h (2 Bft) 97,87 %
19.09.2016 01:08 13,6 C 91 % 1010,1 hPa 0,0 l/m 5,8 km/h (2 Bft) W-SW 238 0 min 0,000 mm 0,0 UV-I 0 W/m 12,2 C 13,6 C 8,0 km/h (2 Bft) 100,00 %
19.09.2016 01:10 13,6 C 91 % 1010,1 hPa 0,0 l/m 5,5 km/h (1 Bft) SW 229 0 min 0,000 mm 0,0 UV-I 0 W/m 12,2 C 13,6 C 8,0 km/h (2 Bft) 100,00 %
19.09.2016 01:12 13,6 C 91 % 1010,0 hPa 0,0 l/m 3,8 km/h (1 Bft) W-SW 240 0 min 0,000 mm 0,0 UV-I 0 W/m 12,2 C 13,6 C 6,4 km/h (2 Bft) 100,00 %
19.09.2016 01:14 13,6 C 91 % 1010,0 hPa 0,0 l/m 5,3 km/h (1 Bft) SW 236 0 min 0,000 mm 0,0 UV-I 0 W/m 12,2 C 13,6 C 8,0 km/h (2 Bft) 100,00 %
19.09.2016 01:16 13,6 C 91 % 1010,0 hPa 0,0 l/m 5,6 km/h (1 Bft) W-SW 244 0 min 0,000 mm 0,0 UV-I 0 W/m 12,2 C 13,6 C 8,0 km/h (2 Bft) 100,00 %
19.09.2016 01:18 13,6 C 92 % 1010,0 hPa 0,0 l/m 5,8 km/h (2 Bft) SW 236 0 min 0,000 mm 0,0 UV-I 0 W/m 12,3 C 13,6 C 8,0 km/h (2 Bft) 97,87 %
19.09.2016 01:20 13,6 C 92 % 1009,9 hPa 0,0 l/m 6,3 km/h (2 Bft) SW 225 0 min 0,000 mm 0,0 UV-I 0 W/m 12,3 C 13,6 C 9,7 km/h (2 Bft) 100,00 %
19.09.2016 01:22 13,5 C 92 % 1010,0 hPa 0,0 l/m 6,2 km/h (2 Bft) W 260 0 min 0,000 mm 0,0 UV-I 0 W/m 12,2 C 13,5 C 8,0 km/h (2 Bft) 100,00 %
19.09.2016 01:24 13,5 C 92 % 1010,0 hPa 0,0 l/m 6,9 km/h (2 Bft) SW 232 0 min 0,000 mm 0,0 UV-I 0 W/m 12,2 C 13,2 C 9,7 km/h (2 Bft) 100,00 %
19.09.2016 01:26 13,6 C 92 % 1010,0 hPa 0,0 l/m 6,5 km/h (2 Bft) SW 229 0 min 0,000 mm 0,0 UV-I 0 W/m 12,3 C 13,6 C 9,7 km/h (2 Bft) 100,00 %
19.09.2016 01:28 13,5 C 92 % 1010,0 hPa 0,0 l/m 6,2 km/h (2 Bft) W-SW 252 0 min 0,000 mm 0,0 UV-I 0 W/m 12,2 C 13,5 C 8,0 km/h (2 Bft) 100,00 %
19.09.2016 01:30 13,6 C 92 % 1010,0 hPa 0,0 l/m 5,6 km/h (1 Bft) SW 230 0 min 0,000 mm 0,0 UV-I 0 W/m 12,3 C 13,6 C 8,0 km/h (2 Bft) 100,00 %
19.09.2016 01:32 13,6 C 92 % 1010,0 hPa 0,0 l/m 5,3 km/h (1 Bft) SW 232 0 min 0,000 mm 0,0 UV-I 0 W/m 12,3 C 13,6 C 8,0 km/h (2 Bft) 97,87 %
19.09.2016 01:34 13,6 C 92 % 1010,0 hPa 0,0 l/m 5,0 km/h (1 Bft) SW 229 0 min 0,000 mm 0,0 UV-I 0 W/m 12,3 C 13,6 C 6,4 km/h (2 Bft) 97,87 %
19.09.2016 01:36 13,6 C 92 % 1010,0 hPa 0,0 l/m 4,2 km/h (1 Bft) W-SW 238 0 min 0,000 mm 0,0 UV-I 0 W/m 12,3 C 13,6 C 6,4 km/h (2 Bft) 97,87 %
19.09.2016 01:38 13,6 C 91 % 1010,0 hPa 0,0 l/m 4,5 km/h (1 Bft) W-SW 257 0 min 0,000 mm 0,0 UV-I 0 W/m 12,2 C 13,6 C 8,0 km/h (2 Bft) 97,87 %
19.09.2016 01:40 13,6 C 91 % 1010,0 hPa 0,0 l/m 4,9 km/h (1 Bft) W 265 0 min 0,000 mm 0,0 UV-I 0 W/m 12,2 C 13,6 C 9,7 km/h (2 Bft) 94,00 %
19.09.2016 01:42 13,6 C 91 % 1010,1 hPa 0,0 l/m 3,6 km/h (1 Bft) W-SW 237 0 min 0,000 mm 0,0 UV-I 0 W/m 12,2 C 13,6 C 6,4 km/h (2 Bft) 97,87 %
19.09.2016 01:44 13,6 C 91 % 1010,1 hPa 0,0 l/m 2,3 km/h (1 Bft) W-SW 237 0 min 0,000 mm 0,0 UV-I 0 W/m 12,2 C 13,6 C 4,8 km/h (1 Bft) 97,87 %
19.09.2016 01:46 13,6 C 91 % 1010,1 hPa 0,0 l/m 3,3 km/h (1 Bft) W-SW 237 0 min 0,000 mm 0,0 UV-I 0 W/m 12,2 C 13,6 C 4,8 km/h (1 Bft) 97,87 %
19.09.2016 01:48 13,6 C 91 % 1010,0 hPa 0,0 l/m 3,4 km/h (1 Bft) W-SW 247 0 min 0,000 mm 0,0 UV-I 0 W/m 12,2 C 13,6 C 6,4 km/h (2 Bft) 95,74 %
19.09.2016 01:50 13,6 C 91 % 1010,0 hPa 0,0 l/m 3,5 km/h (1 Bft) W-SW 248 0 min 0,000 mm 0,0 UV-I 0 W/m 12,2 C 13,6 C 6,4 km/h (2 Bft) 97,22 %
19.09.2016 01:52 13,6 C 91 % 1010,1 hPa 0,0 l/m 2,1 km/h (1 Bft) W-SW 249 0 min 0,000 mm 0,0 UV-I 0 W/m 12,2 C 13,6 C 3,2 km/h (1 Bft) 98,00 %
19.09.2016 01:54 13,6 C 91 % 1010,0 hPa 0,0 l/m 2,0 km/h (1 Bft) W-SW 249 0 min 0,000 mm 0,0 UV-I 0 W/m 12,2 C 13,6 C 3,2 km/h (1 Bft) 97,87 %
19.09.2016 01:56 13,6 C 91 % 1010,0 hPa 0,0 l/m 0,6 km/h (0 Bft) W-SW 249 0 min 0,000 mm 0,0 UV-I 0 W/m 12,2 C 13,6 C 1,6 km/h (1 Bft) 98,00 %
19.09.2016 01:58 13,6 C 91 % 1010,1 hPa 0,0 l/m 1,6 km/h (1 Bft) W-SW 249 0 min 0,000 mm 0,0 UV-I 0 W/m 12,2 C 13,6 C 3,2 km/h (1 Bft) 96,00 %
19.09.2016 02:00 13,6 C 91 % 1010,1 hPa 0,0 l/m 3,4 km/h (1 Bft) NW 304 0 min 0,000 mm 0,0 UV-I 0 W/m 12,2 C 13,6 C 6,4 km/h (2 Bft) 97,87 %
19.09.2016 02:02 13,7 C 91 % 1010,1 hPa 0,0 l/m 2,0 km/h (1 Bft) W 281 0 min 0,000 mm 0,0 UV-I 0 W/m 12,3 C 13,7 C 4,8 km/h (1 Bft) 95,83 %
19.09.2016 02:04 13,7 C 91 % 1010,1 hPa 0,0 l/m 1,6 km/h (1 Bft) W 281 0 min 0,000 mm 0,0 UV-I 0 W/m 12,3 C 13,7 C 3,2 km/h (1 Bft) 97,87 %
19.09.2016 02:06 13,7 C 91 % 1010,1 hPa 0,0 l/m 3,3 km/h (1 Bft) W 264 0 min 0,000 mm 0,0 UV-I 0 W/m 12,3 C 13,7 C 4,8 km/h (1 Bft) 97,37 %
19.09.2016 02:08 13,7 C 91 % 1010,1 hPa 0,0 l/m 2,6 km/h (1 Bft) W 264 0 min 0,000 mm 0,0 UV-I 0 W/m 12,3 C 13,7 C 3,2 km/h (1 Bft) 100,00 %
19.09.2016 02:10 13,7 C 91 % 1010,1 hPa 0,0 l/m 1,4 km/h (1 Bft) W 259 0 min 0,000 mm 0,0 UV-I 0 W/m 12,3 C 13,7 C 4,8 km/h (1 Bft) 100,00 %
19.09.2016 02:12 13,7 C 91 % 1010,1 hPa 0,0 l/m 1,6 km/h (1 Bft) W-SW 258 0 min 0,000 mm 0,0 UV-I 0 W/m 12,3 C 13,7 C 4,8 km/h (1 Bft) 100,00 %
19.09.2016 02:14 13,7 C 91 % 1010,1 hPa 0,0 l/m 2,2 km/h (1 Bft) W-SW 258 0 min 0,000 mm 0,0 UV-I 0 W/m 12,3 C 13,7 C 3,2 km/h (1 Bft) 100,00 %
19.09.2016 02:16 13,7 C 91 % 1010,2 hPa 0,0 l/m 2,6 km/h (1 Bft) W-SW 256 0 min 0,000 mm 0,0 UV-I 0 W/m 12,3 C 13,7 C 4,8 km/h (1 Bft) 100,00 %
19.09.2016 02:18 13,8 C 91 % 1010,1 hPa 0,0 l/m 2,1 km/h (1 Bft) W-SW 256 0 min 0,000 mm 0,0 UV-I 0 W/m 12,4 C 13,8 C 3,2 km/h (1 Bft) 97,87 %
19.09.2016 02:20 13,8 C 91 % 1010,1 hPa 0,0 l/m 2,4 km/h (1 Bft) W-SW 255 0 min 0,000 mm 0,0 UV-I 0 W/m 12,4 C 13,8 C 4,8 km/h (1 Bft) 100,00 %
19.09.2016 02:22 13,8 C 91 % 1010,1 hPa 0,0 l/m 3,0 km/h (1 Bft) W-SW 244 0 min 0,000 mm 0,0 UV-I 0 W/m 12,4 C 13,8 C 4,8 km/h (1 Bft) 100,00 %
19.09.2016 02:24 13,8 C 91 % 1010,1 hPa 0,0 l/m 2,6 km/h (1 Bft) W-SW 244 0 min 0,000 mm 0,0 UV-I 0 W/m 12,4 C 13,8 C 4,8 km/h (1 Bft) 100,00 %
19.09.2016 02:26 13,7 C 91 % 1010,1 hPa 0,0 l/m 3,2 km/h (1 Bft) W-SW 240 0 min 0,000 mm 0,0 UV-I 0 W/m 12,3 C 13,7 C 4,8 km/h (1 Bft) 100,00 %
19.09.2016 02:28 13,7 C 91 % 1010,1 hPa 0,0 l/m 3,7 km/h (1 Bft) W-SW 238 0 min 0,000 mm 0,0 UV-I 0 W/m 12,3 C 13,7 C 6,4 km/h (2 Bft) 97,87 %
19.09.2016 02:30 13,7 C 92 % 1010,1 hPa 0,0 l/m 4,0 km/h (1 Bft) W-SW 238 0 min 0,000 mm 0,0 UV-I 0 W/m 12,4 C 13,7 C 6,4 km/h (2 Bft) 96,00 %
19.09.2016 02:32 13,7 C 92 % 1010,1 hPa 0,0 l/m 3,6 km/h (1 Bft) SW 235 0 min 0,000 mm 0,0 UV-I 0 W/m 12,4 C 13,7 C 6,4 km/h (2 Bft) 97,87 %
19.09.2016 02:34 13,7 C 92 % 1010,1 hPa 0,0 l/m 4,6 km/h (1 Bft) SW 231 0 min 0,000 mm 0,0 UV-I 0 W/m 12,4 C 13,7 C 6,4 km/h (2 Bft) 100,00 %
19.09.2016 02:36 13,8 C 92 % 1010,1 hPa 0,0 l/m 4,4 km/h (1 Bft) SW 234 0 min 0,000 mm 0,0 UV-I 0 W/m 12,5 C 13,8 C 8,0 km/h (2 Bft) 95,74 %
19.09.2016 02:38 13,8 C 92 % 1010,2 hPa 0,0 l/m 3,4 km/h (1 Bft) SW 231 0 min 0,000 mm 0,0 UV-I 0 W/m 12,5 C 13,8 C 4,8 km/h (1 Bft) 95,74 %
19.09.2016 02:40 13,8 C 92 % 1010,1 hPa 0,0 l/m 3,6 km/h (1 Bft) SW 220 0 min 0,000 mm 0,0 UV-I 0 W/m 12,5 C 13,8 C 6,4 km/h (2 Bft) 100,00 %
19.09.2016 02:42 13,8 C 92 % 1010,2 hPa 0,0 l/m 3,1 km/h (1 Bft) S-SW 200 0 min 0,000 mm 0,0 UV-I 0 W/m 12,5 C 13,8 C 4,8 km/h (1 Bft) 97,87 %
19.09.2016 02:44 13,8 C 92 % 1010,1 hPa 0,0 l/m 5,2 km/h (1 Bft) S 186 0 min 0,000 mm 0,0 UV-I 0 W/m 12,5 C 13,8 C 8,0 km/h (2 Bft) 100,00 %
19.09.2016 02:46 13,8 C 92 % 1010,0 hPa 0,0 l/m 4,0 km/h (1 Bft) SW 220 0 min 0,000 mm 0,0 UV-I 0 W/m 12,5 C 13,8 C 4,8 km/h (1 Bft) 97,87 %
19.09.2016 02:48 13,8 C 92 % 1010,1 hPa 0,0 l/m 4,1 km/h (1 Bft) S-SW 207 0 min 0,000 mm 0,0 UV-I 0 W/m 12,5 C 13,8 C 8,0 km/h (2 Bft) 100,00 %
19.09.2016 02:50 13,8 C 92 % 1010,0 hPa 0,0 l/m 5,1 km/h (1 Bft) S-SW 192 0 min 0,000 mm 0,0 UV-I 0 W/m 12,5 C 13,8 C 6,4 km/h (2 Bft) 97,87 %
19.09.2016 02:52 13,8 C 92 % 1010,0 hPa 0,0 l/m 4,0 km/h (1 Bft) SW 220 0 min 0,000 mm 0,0 UV-I 0 W/m 12,5 C 13,8 C 6,4 km/h (2 Bft) 98,00 %
19.09.2016 02:54 13,8 C 92 % 1010,0 hPa 0,0 l/m 3,4 km/h (1 Bft) SW 220 0 min 0,000 mm 0,0 UV-I 0 W/m 12,5 C 13,8 C 4,8 km/h (1 Bft) 97,87 %
19.09.2016 02:56 13,8 C 92 % 1010,0 hPa 0,0 l/m 3,7 km/h (1 Bft) W-SW 237 0 min 0,000 mm 0,0 UV-I 0 W/m 12,5 C 13,8 C 8,0 km/h (2 Bft) 100,00 %
19.09.2016 02:58 13,8 C 92 % 1010,1 hPa 0,0 l/m 4,4 km/h (1 Bft) S-SW 209 0 min 0,000 mm 0,0 UV-I 0 W/m 12,5 C 13,8 C 6,4 km/h (2 Bft) 95,74 %
19.09.2016 03:00 13,8 C 92 % 1010,0 hPa 0,0 l/m 4,5 km/h (1 Bft) SW 232 0 min 0,000 mm 0,0 UV-I 0 W/m 12,5 C 13,8 C 6,4 km/h (2 Bft) 100,00 %
19.09.2016 03:02 13,8 C 92 % 1010,1 hPa 0,0 l/m 4,0 km/h (1 Bft) SW 228 0 min 0,000 mm 0,0 UV-I 0 W/m 12,5 C 13,8 C 4,8 km/h (1 Bft) 98,00 %
19.09.2016 03:04 13,8 C 92 % 1010,0 hPa 0,0 l/m 4,3 km/h (1 Bft) S 191 0 min 0,000 mm 0,0 UV-I 0 W/m 12,5 C 13,8 C 8,0 km/h (2 Bft) 100,00 %
19.09.2016 03:06 13,9 C 92 % 1010,1 hPa 0,0 l/m 4,6 km/h (1 Bft) SW 233 0 min 0,000 mm 0,0 UV-I 0 W/m 12,6 C 13,9 C 8,0 km/h (2 Bft) 97,14 %
19.09.2016 03:08 13,9 C 92 % 1010,0 hPa 0,0 l/m 3,6 km/h (1 Bft) SW 229 0 min 0,000 mm 0,0 UV-I 0 W/m 12,6 C 13,9 C 6,4 km/h (2 Bft) 97,87 %
19.09.2016 03:10 13,9 C 92 % 1010,0 hPa 0,0 l/m 4,9 km/h (1 Bft) W-SW 240 0 min 0,000 mm 0,0 UV-I 0 W/m 12,6 C 13,9 C 6,4 km/h (2 Bft) 100,00 %
19.09.2016 03:12 13,9 C 92 % 1010,1 hPa 0,0 l/m 4,7 km/h (1 Bft) SW 229 0 min 0,000 mm 0,0 UV-I 0 W/m 12,6 C 13,9 C 6,4 km/h (2 Bft) 97,92 %
19.09.2016 03:14 13,9 C 92 % 1010,1 hPa 0,0 l/m 4,3 km/h (1 Bft) SW 230 0 min 0,000 mm 0,0 UV-I 0 W/m 12,6 C 13,9 C 6,4 km/h (2 Bft) 100,00 %
19.09.2016 03:16 13,9 C 92 % 1010,1 hPa 0,0 l/m 4,7 km/h (1 Bft) W-SW 243 0 min 0,000 mm 0,0 UV-I 0 W/m 12,6 C 13,9 C 6,4 km/h (2 Bft) 97,87 %
19.09.2016 03:18 13,9 C 92 % 1010,2 hPa 0,0 l/m 3,2 km/h (1 Bft) SW 220 0 min 0,000 mm 0,0 UV-I 0 W/m 12,6 C 13,9 C 4,8 km/h (1 Bft) 100,00 %
19.09.2016 03:20 13,9 C 92 % 1010,2 hPa 0,0 l/m 3,9 km/h (1 Bft) SW 215 0 min 0,000 mm 0,0 UV-I 0 W/m 12,6 C 13,9 C 6,4 km/h (2 Bft) 97,87 %
19.09.2016 03:22 13,9 C 92 % 1010,1 hPa 0,0 l/m 5,3 km/h (1 Bft) W-SW 239 0 min 0,000 mm 0,0 UV-I 0 W/m 12,6 C 13,9 C 8,0 km/h (2 Bft) 97,87 %
19.09.2016 03:24 13,9 C 92 % 1010,2 hPa 0,0 l/m 4,3 km/h (1 Bft) SW 226 0 min 0,000 mm 0,0 UV-I 0 W/m 12,6 C 13,9 C 6,4 km/h (2 Bft) 97,87 %
19.09.2016 03:26 13,9 C 92 % 1010,2 hPa 0,0 l/m 4,6 km/h (1 Bft) SW 236 0 min 0,000 mm 0,0 UV-I 0 W/m 12,6 C 13,9 C 6,4 km/h (2 Bft) 100,00 %
19.09.2016 03:28 13,9 C 92 % 1010,1 hPa 0,0 l/m 4,8 km/h (1 Bft) W-SW 248 0 min 0,000 mm 0,0 UV-I 0 W/m 12,6 C 13,9 C 8,0 km/h (2 Bft) 100,00 %
19.09.2016 03:30 13,9 C 92 % 1010,1 hPa 0,0 l/m 5,9 km/h (2 Bft) SW 219 0 min 0,000 mm 0,0 UV-I 0 W/m 12,6 C 13,9 C 8,0 km/h (2 Bft) 97,87 %
19.09.2016 03:32 14,0 C 92 % 1010,1 hPa 0,0 l/m 5,9 km/h (2 Bft) SW 227 0 min 0,000 mm 0,0 UV-I 0 W/m 12,7 C 14,0 C 8,0 km/h (2 Bft) 95,74 %
19.09.2016 03:34 14,0 C 92 % 1010,1 hPa 0,0 l/m 5,1 km/h (1 Bft) SW 217 0 min 0,000 mm 0,0 UV-I 0 W/m 12,7 C 14,0 C 8,0 km/h (2 Bft) 95,74 %
19.09.2016 03:36 14,0 C 92 % 1010,0 hPa 0,0 l/m 5,3 km/h (1 Bft) SW 220 0 min 0,000 mm 0,0 UV-I 0 W/m 12,7 C 14,0 C 8,0 km/h (2 Bft) 95,74 %
19.09.2016 03:38 14,0 C 92 % 1010,1 hPa 0,0 l/m 4,5 km/h (1 Bft) SW 236 0 min 0,000 mm 0,0 UV-I 0 W/m 12,7 C 14,0 C 6,4 km/h (2 Bft) 97,87 %
19.09.2016 03:40 14,0 C 93 % 1010,0 hPa 0,0 l/m 6,1 km/h (2 Bft) SW 234 0 min 0,000 mm 0,0 UV-I 0 W/m 12,9 C 14,0 C 8,0 km/h (2 Bft) 97,87 %
19.09.2016 03:42 14,0 C 93 % 1010,0 hPa 0,0 l/m 5,5 km/h (1 Bft) W-SW 244 0 min 0,000 mm 0,0 UV-I 0 W/m 12,9 C 14,0 C 8,0 km/h (2 Bft) 95,74 %
19.09.2016 03:44 14,0 C 93 % 1010,1 hPa 0,0 l/m 5,8 km/h (2 Bft) W-SW 238 0 min 0,000 mm 0,0 UV-I 0 W/m 12,9 C 14,0 C 9,7 km/h (2 Bft) 97,56 %
19.09.2016 03:46 14,0 C 93 % 1010,0 hPa 0,0 l/m 6,2 km/h (2 Bft) SW 225 0 min 0,000 mm 0,0 UV-I 0 W/m 12,9 C 14,0 C 12,9 km/h (3 Bft) 93,62 %
19.09.2016 03:48 14,0 C 93 % 1010,0 hPa 0,0 l/m 6,7 km/h (2 Bft) SW 231 0 min 0,000 mm 0,0 UV-I 0 W/m 12,9 C 13,8 C 8,0 km/h (2 Bft) 97,87 %
19.09.2016 03:50 14,0 C 93 % 1010,0 hPa 0,0 l/m 5,4 km/h (1 Bft) SW 234 0 min 0,000 mm 0,0 UV-I 0 W/m 12,9 C 14,0 C 9,7 km/h (2 Bft) 95,74 %
19.09.2016 03:52 13,9 C 93 % 1010,0 hPa 0,0 l/m 5,8 km/h (2 Bft) W-SW 243 0 min 0,000 mm 0,0 UV-I 0 W/m 12,8 C 13,9 C 8,0 km/h (2 Bft) 97,92 %
19.09.2016 03:54 13,9 C 93 % 1010,0 hPa 0,0 l/m 4,2 km/h (1 Bft) W-SW 241 0 min 0,000 mm 0,0 UV-I 0 W/m 12,8 C 13,9 C 6,4 km/h (2 Bft) 95,74 %
19.09.2016 03:56 13,9 C 93 % 1010,0 hPa 0,0 l/m 3,0 km/h (1 Bft) SW 236 0 min 0,000 mm 0,0 UV-I 0 W/m 12,8 C 13,9 C 4,8 km/h (1 Bft) 97,87 %
19.09.2016 03:58 13,9 C 93 % 1010,0 hPa 0,0 l/m 3,8 km/h (1 Bft) SW 236 0 min 0,000 mm 0,0 UV-I 0 W/m 12,8 C 13,9 C 4,8 km/h (1 Bft) 97,87 %
19.09.2016 04:00 13,9 C 94 % 1010,0 hPa 0,0 l/m 3,7 km/h (1 Bft) SW 232 0 min 0,000 mm 0,0 UV-I 0 W/m 12,9 C 13,9 C 6,4 km/h (2 Bft) 95,74 %
19.09.2016 04:02 13,8 C 94 % 1010,0 hPa 0,0 l/m 4,1 km/h (1 Bft) SW 232 0 min 0,000 mm 0,0 UV-I 0 W/m 12,9 C 13,8 C 4,8 km/h (1 Bft) 96,67 %
19.09.2016 04:04 13,8 C 94 % 1010,0 hPa 0,0 l/m 3,9 km/h (1 Bft) SW 232 0 min 0,000 mm 0,0 UV-I 0 W/m 12,9 C 13,8 C 6,4 km/h (2 Bft) 98,00 %
19.09.2016 04:06 13,8 C 94 % 1010,0 hPa 0,0 l/m 3,2 km/h (1 Bft) SW 231 0 min 0,000 mm 0,0 UV-I 0 W/m 12,9 C 13,8 C 4,8 km/h (1 Bft) 98,00 %
19.09.2016 04:08 13,8 C 94 % 1010,0 hPa 0,2 l/m 4,5 km/h (1 Bft) SW 235 0 min 0,000 mm 0,0 UV-I 0 W/m 12,9 C 13,8 C 8,0 km/h (2 Bft) 100,00 %
19.09.2016 04:10 13,8 C 94 % 1009,9 hPa 0,0 l/m 3,9 km/h (1 Bft) SW 232 0 min 0,000 mm 0,0 UV-I 0 W/m 12,9 C 13,8 C 6,4 km/h (2 Bft) 97,87 %
19.09.2016 04:12 13,8 C 94 % 1009,9 hPa 0,0 l/m 3,8 km/h (1 Bft) SW 231 0 min 0,000 mm 0,0 UV-I 0 W/m 12,9 C 13,8 C 6,4 km/h (2 Bft) 100,00 %
19.09.2016 04:14 13,7 C 95 % 1009,9 hPa 0,0 l/m 4,9 km/h (1 Bft) SW 221 0 min 0,000 mm 0,0 UV-I 0 W/m 12,9 C 13,7 C 6,4 km/h (2 Bft) 100,00 %
19.09.2016 04:16 13,7 C 95 % 1010,0 hPa 0,0 l/m 3,8 km/h (1 Bft) SW 227 0 min 0,000 mm 0,0 UV-I 0 W/m 12,9 C 13,7 C 4,8 km/h (1 Bft) 100,00 %
19.09.2016 04:18 13,7 C 95 % 1010,0 hPa 0,0 l/m 2,6 km/h (1 Bft) SW 227 0 min 0,000 mm 0,0 UV-I 0 W/m 12,9 C 13,7 C 6,4 km/h (2 Bft) 100,00 %
19.09.2016 04:20 13,7 C 95 % 1010,0 hPa 0,0 l/m 3,7 km/h (1 Bft) W-SW 248 0 min 0,000 mm 0,0 UV-I 0 W/m 12,9 C 13,7 C 6,4 km/h (2 Bft) 95,74 %
19.09.2016 04:22 13,7 C 95 % 1010,0 hPa 0,0 l/m 3,4 km/h (1 Bft) S-SW 211 0 min 0,000 mm 0,0 UV-I 0 W/m 12,9 C 13,7 C 4,8 km/h (1 Bft) 100,00 %
19.09.2016 04:24 13,7 C 95 % 1010,0 hPa 0,0 l/m 2,6 km/h (1 Bft) S-SW 211 0 min 0,000 mm 0,0 UV-I 0 W/m 12,9 C 13,7 C 4,8 km/h (1 Bft) 100,00 %
19.09.2016 04:26 13,6 C 95 % 1010,0 hPa 0,0 l/m 3,0 km/h (1 Bft) S-SW 211 0 min 0,000 mm 0,0 UV-I 0 W/m 12,8 C 13,6 C 4,8 km/h (1 Bft) 100,00 %
19.09.2016 04:28 13,6 C 95 % 1010,0 hPa 0,0 l/m 3,0 km/h (1 Bft) S-SW 211 0 min 0,000 mm 0,0 UV-I 0 W/m 12,8 C 13,6 C 4,8 km/h (1 Bft) 98,00 %
19.09.2016 04:30 13,7 C 95 % 1010,0 hPa 0,0 l/m 2,5 km/h (1 Bft) S-SW 211 0 min 0,000 mm 0,0 UV-I 0 W/m 12,9 C 13,7 C 4,8 km/h (1 Bft) 100,00 %
19.09.2016 04:32 13,7 C 95 % 1010,0 hPa 0,0 l/m 1,7 km/h (1 Bft) S-SW 211 0 min 0,000 mm 0,0 UV-I 0 W/m 12,9 C 13,7 C 3,2 km/h (1 Bft) 97,87 %
19.09.2016 04:34 13,6 C 95 % 1010,0 hPa 0,0 l/m 2,0 km/h (1 Bft) S-SW 211 0 min 0,000 mm 0,0 UV-I 0 W/m 12,8 C 13,6 C 3,2 km/h (1 Bft) 100,00 %
19.09.2016 04:36 13,6 C 96 % 1010,0 hPa 0,0 l/m 0,5 km/h (0 Bft) S-SW 211 0 min 0,000 mm 0,0 UV-I 0 W/m 13,0 C 13,6 C 1,6 km/h (1 Bft) 100,00 %
19.09.2016 04:38 13,6 C 96 % 1010,0 hPa 0,0 l/m 2,3 km/h (1 Bft) S-SW 211 0 min 0,000 mm 0,0 UV-I 0 W/m 13,0 C 13,6 C 3,2 km/h (1 Bft) 100,00 %
19.09.2016 04:40 13,7 C 96 % 1010,1 hPa 0,0 l/m 1,7 km/h (1 Bft) S-SW 211 0 min 0,000 mm 0,0 UV-I 0 W/m 13,1 C 13,7 C 3,2 km/h (1 Bft) 100,00 %
19.09.2016 04:42 13,7 C 96 % 1010,1 hPa 0,0 l/m 2,2 km/h (1 Bft) S-SW 211 0 min 0,000 mm 0,0 UV-I 0 W/m 13,1 C 13,7 C 3,2 km/h (1 Bft) 100,00 %
19.09.2016 04:44 13,7 C 96 % 1010,1 hPa 0,0 l/m 1,8 km/h (1 Bft) S-SW 211 0 min 0,000 mm 0,0 UV-I 0 W/m 13,1 C 13,7 C 4,8 km/h (1 Bft) 97,87 %
19.09.2016 04:46 13,7 C 96 % 1010,1 hPa 0,0 l/m 1,8 km/h (1 Bft) S-SW 211 0 min 0,000 mm 0,0 UV-I 0 W/m 13,1 C 13,7 C 3,2 km/h (1 Bft) 100,00 %
19.09.2016 04:48 13,7 C 96 % 1010,1 hPa 0,0 l/m 2,4 km/h (1 Bft) S-SW 211 0 min 0,000 mm 0,0 UV-I 0 W/m 13,1 C 13,7 C 3,2 km/h (1 Bft) 100,00 %
19.09.2016 04:50 13,7 C 96 % 1010,1 hPa 0,0 l/m 2,5 km/h (1 Bft) S-SW 211 0 min 0,000 mm 0,0 UV-I 0 W/m 13,1 C 13,7 C 4,8 km/h (1 Bft) 100,00 %
19.09.2016 04:52 13,7 C 96 % 1010,2 hPa 0,0 l/m 2,1 km/h (1 Bft) S-SW 211 0 min 0,000 mm 0,0 UV-I 0 W/m 13,1 C 13,7 C 3,2 km/h (1 Bft) 100,00 %
19.09.2016 04:54 13,7 C 96 % 1010,1 hPa 0,0 l/m 1,3 km/h (1 Bft) S-SW 211 0 min 0,000 mm 0,0 UV-I 0 W/m 13,1 C 13,7 C 3,2 km/h (1 Bft) 100,00 %
19.09.2016 04:56 13,7 C 96 % 1010,2 hPa 0,0 l/m 0,2 km/h (0 Bft) S-SW 211 0 min 0,000 mm 0,0 UV-I 0 W/m 13,1 C 13,7 C 1,6 km/h (1 Bft) 100,00 %
19.09.2016 04:58 13,8 C 96 % 1010,1 hPa 0,0 l/m 1,5 km/h (1 Bft) S-SW 211 0 min 0,000 mm 0,0 UV-I 0 W/m 13,2 C 13,8 C 3,2 km/h (1 Bft) 100,00 %
19.09.2016 05:00 13,8 C 96 % 1010,1 hPa 0,0 l/m 1,7 km/h (1 Bft) S-SW 211 0 min 0,000 mm 0,0 UV-I 0 W/m 13,2 C 13,8 C 3,2 km/h (1 Bft) 97,87 %
19.09.2016 05:02 13,8 C 96 % 1010,2 hPa 0,0 l/m 1,5 km/h (1 Bft) S-SW 211 0 min 0,000 mm 0,0 UV-I 0 W/m 13,2 C 13,8 C 3,2 km/h (1 Bft) 100,00 %
19.09.2016 05:04 13,8 C 96 % 1010,2 hPa 0,0 l/m 0,7 km/h (0 Bft) S-SW 211 0 min 0,000 mm 0,0 UV-I 0 W/m 13,2 C 13,8 C 1,6 km/h (1 Bft) 95,74 %
19.09.2016 05:06 13,8 C 96 % 1010,2 hPa 0,0 l/m 1,3 km/h (1 Bft) S-SW 211 0 min 0,000 mm 0,0 UV-I 0 W/m 13,2 C 13,8 C 3,2 km/h (1 Bft) 100,00 %
19.09.2016 05:08 13,8 C 96 % 1010,2 hPa 0,0 l/m 0,8 km/h (0 Bft) S-SW 211 0 min 0,000 mm 0,0 UV-I 0 W/m 13,2 C 13,8 C 1,6 km/h (1 Bft) 100,00 %
19.09.2016 05:10 13,8 C 96 % 1010,2 hPa 0,0 l/m 1,3 km/h (1 Bft) S-SW 211 0 min 0,000 mm 0,0 UV-I 0 W/m 13,2 C 13,8 C 3,2 km/h (1 Bft) 100,00 %
19.09.2016 05:12 13,8 C 95 % 1010,2 hPa 0,0 l/m 1,5 km/h (1 Bft) S-SW 211 0 min 0,000 mm 0,0 UV-I 0 W/m 13,0 C 13,8 C 3,2 km/h (1 Bft) 100,00 %
19.09.2016 05:14 13,8 C 96 % 1010,2 hPa 0,0 l/m 1,0 km/h (0 Bft) S-SW 211 0 min 0,000 mm 0,0 UV-I 0 W/m 13,2 C 13,8 C 1,6 km/h (1 Bft) 97,87 %
19.09.2016 05:16 13,8 C 96 % 1010,2 hPa 0,0 l/m 1,5 km/h (1 Bft) S-SW 211 0 min 0,000 mm 0,0 UV-I 0 W/m 13,2 C 13,8 C 3,2 km/h (1 Bft) 100,00 %
19.09.2016 05:18 13,8 C 96 % 1010,2 hPa 0,0 l/m 0,5 km/h (0 Bft) S-SW 211 0 min 0,000 mm 0,0 UV-I 0 W/m 13,2 C 13,8 C 1,6 km/h (1 Bft) 100,00 %
19.09.2016 05:20 13,8 C 96 % 1010,2 hPa 0,0 l/m 1,7 km/h (1 Bft) S-SW 211 0 min 0,000 mm 0,0 UV-I 0 W/m 13,2 C 13,8 C 3,2 km/h (1 Bft) 98,00 %
19.09.2016 05:22 13,8 C 96 % 1010,1 hPa 0,0 l/m 1,2 km/h (1 Bft) S-SW 211 0 min 0,000 mm 0,0 UV-I 0 W/m 13,2 C 13,8 C 3,2 km/h (1 Bft) 100,00 %
19.09.2016 05:24 13,8 C 95 % 1010,2 hPa 0,0 l/m 2,3 km/h (1 Bft) S-SW 211 0 min 0,000 mm 0,0 UV-I 0 W/m 13,0 C 13,8 C 3,2 km/h (1 Bft) 100,00 %
19.09.2016 05:26 13,8 C 96 % 1010,1 hPa 0,0 l/m 2,3 km/h (1 Bft) S-SW 211 0 min 0,000 mm 0,0 UV-I 0 W/m 13,2 C 13,8 C 3,2 km/h (1 Bft) 95,74 %
19.09.2016 05:28 13,8 C 96 % 1010,1 hPa 0,2 l/m 2,7 km/h (1 Bft) S-SW 211 0 min 0,000 mm 0,0 UV-I 0 W/m 13,2 C 13,8 C 4,8 km/h (1 Bft) 97,87 %
19.09.2016 05:30 13,8 C 96 % 1010,1 hPa 0,0 l/m 3,3 km/h (1 Bft) W-SW 238 0 min 0,000 mm 0,0 UV-I 0 W/m 13,2 C 13,8 C 4,8 km/h (1 Bft) 100,00 %
19.09.2016 05:32 13,8 C 96 % 1010,1 hPa 0,0 l/m 3,6 km/h (1 Bft) SW 222 0 min 0,000 mm 0,0 UV-I 0 W/m 13,2 C 13,8 C 4,8 km/h (1 Bft) 100,00 %
19.09.2016 05:34 13,8 C 96 % 1010,1 hPa 0,0 l/m 3,7 km/h (1 Bft) SW 217 0 min 0,000 mm 0,0 UV-I 0 W/m 13,2 C 13,8 C 4,8 km/h (1 Bft) 95,74 %
19.09.2016 05:36 13,8 C 96 % 1010,1 hPa 0,0 l/m 4,2 km/h (1 Bft) S 190 0 min 0,000 mm 0,0 UV-I 0 W/m 13,2 C 13,8 C 6,4 km/h (2 Bft) 95,74 %
19.09.2016 05:38 13,8 C 96 % 1010,1 hPa 0,0 l/m 5,9 km/h (2 Bft) S-SW 204 0 min 0,000 mm 0,0 UV-I 0 W/m 13,2 C 13,8 C 9,7 km/h (2 Bft) 95,74 %
19.09.2016 05:40 13,7 C 96 % 1010,1 hPa 0,0 l/m 6,4 km/h (2 Bft) SW 235 0 min 0,000 mm 0,0 UV-I 0 W/m 13,1 C 13,7 C 9,7 km/h (2 Bft) 94,29 %
19.09.2016 05:42 13,7 C 96 % 1010,0 hPa 0,2 l/m 6,4 km/h (2 Bft) S 189 0 min 0,000 mm 0,0 UV-I 0 W/m 13,1 C 13,7 C 8,0 km/h (2 Bft) 98,00 %
19.09.2016 05:44 13,7 C 96 % 1010,0 hPa 0,0 l/m 5,5 km/h (1 Bft) SW 227 0 min 0,000 mm 0,0 UV-I 0 W/m 13,1 C 13,7 C 9,7 km/h (2 Bft) 93,62 %
19.09.2016 05:46 13,7 C 96 % 1010,0 hPa 0,0 l/m 5,7 km/h (1 Bft) SW 220 0 min 0,000 mm 0,0 UV-I 0 W/m 13,1 C 13,7 C 11,3 km/h (2 Bft) 95,74 %
19.09.2016 05:48 13,7 C 96 % 1010,0 hPa 0,0 l/m 5,4 km/h (1 Bft) S-SW 207 0 min 0,000 mm 0,0 UV-I 0 W/m 13,1 C 13,7 C 8,0 km/h (2 Bft) 97,87 %
19.09.2016 05:50 13,7 C 96 % 1010,0 hPa 0,0 l/m 5,5 km/h (1 Bft) S-SW 198 0 min 0,000 mm 0,0 UV-I 0 W/m 13,1 C 13,7 C 9,7 km/h (2 Bft) 97,87 %
19.09.2016 05:52 13,7 C 96 % 1010,0 hPa 0,0 l/m 4,9 km/h (1 Bft) S 180 0 min 0,000 mm 0,0 UV-I 0 W/m 13,1 C 13,7 C 9,7 km/h (2 Bft) 95,83 %
19.09.2016 05:54 13,8 C 96 % 1010,0 hPa 0,0 l/m 4,7 km/h (1 Bft) W-SW 253 0 min 0,000 mm 0,0 UV-I 0 W/m 13,2 C 13,8 C 8,0 km/h (2 Bft) 97,87 %
19.09.2016 05:56 13,8 C 96 % 1010,0 hPa 0,0 l/m 5,8 km/h (2 Bft) SW 221 0 min 0,000 mm 0,0 UV-I 0 W/m 13,2 C 13,8 C 9,7 km/h (2 Bft) 97,87 %
19.09.2016 05:58 13,8 C 96 % 1010,0 hPa 0,0 l/m 5,6 km/h (1 Bft) S-SW 209 0 min 0,000 mm 0,0 UV-I 0 W/m 13,2 C 13,8 C 9,7 km/h (2 Bft) 98,00 %
19.09.2016 06:00 13,8 C 96 % 1010,0 hPa 0,0 l/m 6,2 km/h (2 Bft) W-SW 238 0 min 0,000 mm 0,0 UV-I 0 W/m 13,2 C 13,8 C 9,7 km/h (2 Bft) 95,74 %
19.09.2016 06:02 13,8 C 96 % 1009,9 hPa 0,0 l/m 5,9 km/h (2 Bft) SW 226 0 min 0,000 mm 0,0 UV-I 0 W/m 13,2 C 13,8 C 9,7 km/h (2 Bft) 95,83 %
19.09.2016 06:04 13,8 C 96 % 1009,9 hPa 0,0 l/m 6,7 km/h (2 Bft) SW 232 0 min 0,000 mm 0,0 UV-I 0 W/m 13,2 C 13,6 C 9,7 km/h (2 Bft) 95,74 %
19.09.2016 06:06 13,8 C 96 % 1009,9 hPa 0,0 l/m 7,2 km/h (2 Bft) S-SW 195 0 min 0,000 mm 0,0 UV-I 0 W/m 13,2 C 13,3 C 12,9 km/h (3 Bft) 100,00 %
19.09.2016 06:08 13,8 C 96 % 1009,9 hPa 0,0 l/m 8,0 km/h (2 Bft) W-SW 244 0 min 0,000 mm 0,0 UV-I 0 W/m 13,2 C 12,8 C 12,9 km/h (3 Bft) 97,14 %
19.09.2016 06:10 13,8 C 96 % 1010,0 hPa 0,0 l/m 5,2 km/h (1 Bft) SW 219 0 min 0,000 mm 0,0 UV-I 0 W/m 13,2 C 13,8 C 8,0 km/h (2 Bft) 100,00 %
19.09.2016 06:12 13,7 C 96 % 1010,0 hPa 0,0 l/m 5,4 km/h (1 Bft) S-SW 203 0 min 0,000 mm 0,0 UV-I 0 W/m 13,1 C 13,7 C 8,0 km/h (2 Bft) 100,00 %
19.09.2016 06:14 13,8 C 96 % 1009,9 hPa 0,0 l/m 5,5 km/h (1 Bft) W-SW 238 0 min 0,000 mm 0,0 UV-I 0 W/m 13,2 C 13,8 C 9,7 km/h (2 Bft) 97,87 %
19.09.2016 06:16 13,7 C 96 % 1010,0 hPa 0,0 l/m 5,2 km/h (1 Bft) S-SW 202 0 min 0,000 mm 0,0 UV-I 0 W/m 13,1 C 13,7 C 11,3 km/h (2 Bft) 100,00 %
19.09.2016 06:18 13,7 C 96 % 1010,0 hPa 0,0 l/m 6,8 km/h (2 Bft) W-SW 251 0 min 0,000 mm 0,0 UV-I 0 W/m 13,1 C 13,5 C 9,7 km/h (2 Bft) 100,00 %
19.09.2016 06:20 13,7 C 96 % 1010,0 hPa 0,0 l/m 5,4 km/h (1 Bft) SW 223 0 min 0,000 mm 0,0 UV-I 0 W/m 13,1 C 13,7 C 9,7 km/h (2 Bft) 100,00 %
19.09.2016 06:22 13,7 C 96 % 1009,9 hPa 0,0 l/m 4,0 km/h (1 Bft) W-SW 241 0 min 0,000 mm 0,0 UV-I 0 W/m 13,1 C 13,7 C 6,4 km/h (2 Bft) 100,00 %
19.09.2016 06:24 13,7 C 96 % 1010,0 hPa 0,0 l/m 6,5 km/h (2 Bft) W 261 0 min 0,000 mm 0,0 UV-I 0 W/m 13,1 C 13,7 C 8,0 km/h (2 Bft) 100,00 %
19.09.2016 06:26 13,7 C 96 % 1010,0 hPa 0,0 l/m 5,8 km/h (2 Bft) SW 223 0 min 0,000 mm 0,0 UV-I 0 W/m 13,1 C 13,7 C 9,7 km/h (2 Bft) 95,74 %
19.09.2016 06:28 13,7 C 96 % 1010,0 hPa 0,0 l/m 3,9 km/h (1 Bft) SW 233 0 min 0,000 mm 0,0 UV-I 0 W/m 13,1 C 13,7 C 6,4 km/h (2 Bft) 95,74 %
19.09.2016 06:30 13,7 C 96 % 1010,0 hPa 0,0 l/m 4,2 km/h (1 Bft) W-SW 254 0 min 0,000 mm 0,0 UV-I 0 W/m 13,1 C 13,7 C 6,4 km/h (2 Bft) 98,00 %
19.09.2016 06:32 13,7 C 96 % 1010,0 hPa 0,0 l/m 4,9 km/h (1 Bft) SW 227 0 min 0,000 mm 0,0 UV-I 0 W/m 13,1 C 13,7 C 6,4 km/h (2 Bft) 100,00 %
19.09.2016 06:34 13,7 C 96 % 1010,0 hPa 0,0 l/m 4,4 km/h (1 Bft) W 264 0 min 0,000 mm 0,0 UV-I 0 W/m 13,1 C 13,7 C 6,4 km/h (2 Bft) 100,00 %
19.09.2016 06:36 13,7 C 96 % 1010,0 hPa 0,0 l/m 3,8 km/h (1 Bft) W 264 0 min 0,000 mm 0,0 UV-I 0 W/m 13,1 C 13,7 C 6,4 km/h (2 Bft) 100,00 %
19.09.2016 06:38 13,7 C 96 % 1010,1 hPa 0,0 l/m 3,7 km/h (1 Bft) W 261 0 min 0,000 mm 0,0 UV-I 0 W/m 13,1 C 13,7 C 6,4 km/h (2 Bft) 100,00 %
19.09.2016 06:40 13,7 C 96 % 1010,1 hPa 0,0 l/m 4,7 km/h (1 Bft) W-SW 251 0 min 0,000 mm 0,0 UV-I 0 W/m 13,1 C 13,7 C 9,7 km/h (2 Bft) 92,00 %
19.09.2016 06:42 13,7 C 96 % 1010,1 hPa 0,0 l/m 5,1 km/h (1 Bft) W-SW 258 0 min 0,000 mm 0,0 UV-I 0 W/m 13,1 C 13,7 C 9,7 km/h (2 Bft) 100,00 %
19.09.2016 06:44 13,7 C 96 % 1010,1 hPa 0,0 l/m 5,2 km/h (1 Bft) W-SW 257 0 min 0,000 mm 0,0 UV-I 0 W/m 13,1 C 13,7 C 8,0 km/h (2 Bft) 100,00 %
19.09.2016 06:46 13,8 C 96 % 1010,1 hPa 0,0 l/m 4,7 km/h (1 Bft) W-SW 247 0 min 0,000 mm 0,0 UV-I 0 W/m 13,2 C 13,8 C 6,4 km/h (2 Bft) 97,87 %
19.09.2016 06:48 13,8 C 96 % 1010,1 hPa 0,0 l/m 4,3 km/h (1 Bft) W-SW 254 0 min 0,000 mm 0,0 UV-I 0 W/m 13,2 C 13,8 C 6,4 km/h (2 Bft) 100,00 %
19.09.2016 06:50 13,8 C 96 % 1010,1 hPa 0,0 l/m 3,9 km/h (1 Bft) W-SW 254 0 min 0,000 mm 0,0 UV-I 0 W/m 13,2 C 13,8 C 6,4 km/h (2 Bft) 97,87 %
19.09.2016 06:52 13,8 C 96 % 1010,1 hPa 0,0 l/m 5,6 km/h (1 Bft) W 263 0 min 0,000 mm 0,0 UV-I 0 W/m 13,2 C 13,8 C 9,7 km/h (2 Bft) 97,87 %
19.09.2016 06:54 13,8 C 96 % 1010,1 hPa 0,0 l/m 6,5 km/h (2 Bft) W-SW 245 0 min 0,000 mm 0,0 UV-I 0 W/m 13,2 C 13,8 C 11,3 km/h (2 Bft) 100,00 %
19.09.2016 06:56 13,8 C 96 % 1010,1 hPa 0,0 l/m 5,7 km/h (1 Bft) W 264 0 min 0,000 mm 0,0 UV-I 0 W/m 13,2 C 13,8 C 9,7 km/h (2 Bft) 97,87 %
19.09.2016 06:58 13,8 C 96 % 1010,0 hPa 0,0 l/m 7,2 km/h (2 Bft) W-SW 244 0 min 0,000 mm 0,0 UV-I 0 W/m 13,2 C 13,3 C 14,5 km/h (3 Bft) 95,74 %
19.09.2016 07:00 13,8 C 96 % 1010,1 hPa 0,0 l/m 6,6 km/h (2 Bft) W 261 0 min 0,000 mm 0,0 UV-I 0 W/m 13,2 C 13,7 C 11,3 km/h (2 Bft) 97,87 %
19.09.2016 07:02 13,8 C 96 % 1010,1 hPa 0,0 l/m 5,4 km/h (1 Bft) W-SW 247 0 min 0,000 mm 0,0 UV-I 0 W/m 13,2 C 13,8 C 8,0 km/h (2 Bft) 100,00 %
19.09.2016 07:04 13,8 C 96 % 1010,1 hPa 0,0 l/m 6,3 km/h (2 Bft) SW 228 0 min 0,000 mm 0,0 UV-I 0 W/m 13,2 C 13,8 C 11,3 km/h (2 Bft) 97,87 %
19.09.2016 07:06 13,8 C 96 % 1010,1 hPa 0,0 l/m 5,7 km/h (1 Bft) W-SW 245 0 min 0,000 mm 0,0 UV-I 0 W/m 13,2 C 13,8 C 9,7 km/h (2 Bft) 97,87 %
19.09.2016 07:08 13,8 C 96 % 1010,0 hPa 0,0 l/m 6,2 km/h (2 Bft) W-SW 244 0 min 0,000 mm 0,0 UV-I 0 W/m 13,2 C 13,8 C 8,0 km/h (2 Bft) 97,22 %
19.09.2016 07:10 13,8 C 96 % 1010,1 hPa 0,0 l/m 5,1 km/h (1 Bft) W-SW 251 0 min 0,000 mm 0,0 UV-I 0 W/m 13,2 C 13,8 C 6,4 km/h (2 Bft) 98,36 %
19.09.2016 07:12 13,8 C 96 % 1010,1 hPa 0,0 l/m 5,6 km/h (1 Bft) SW 225 0 min 0,000 mm 0,0 UV-I 4 W/m 13,2 C 13,8 C 9,7 km/h (2 Bft) 100,00 %
19.09.2016 07:14 13,8 C 95 % 1010,0 hPa 0,0 l/m 5,1 km/h (1 Bft) W 261 0 min 0,000 mm 0,0 UV-I 5 W/m 13,0 C 13,8 C 9,7 km/h (2 Bft) 100,00 %
19.09.2016 07:16 13,8 C 95 % 1010,1 hPa 0,0 l/m 4,5 km/h (1 Bft) W-SW 250 0 min 0,000 mm 0,0 UV-I 5 W/m 13,0 C 13,8 C 8,0 km/h (2 Bft) 100,00 %
19.09.2016 07:18 13,8 C 95 % 1010,1 hPa 0,0 l/m 4,8 km/h (1 Bft) W-SW 246 0 min 0,000 mm 0,0 UV-I 5 W/m 13,0 C 13,8 C 6,4 km/h (2 Bft) 97,87 %
19.09.2016 07:20 13,8 C 95 % 1010,1 hPa 0,0 l/m 5,4 km/h (1 Bft) SW 230 0 min 0,000 mm 0,0 UV-I 5 W/m 13,0 C 13,8 C 11,3 km/h (2 Bft) 93,62 %
19.09.2016 07:22 13,9 C 95 % 1010,1 hPa 0,0 l/m 5,1 km/h (1 Bft) SW 227 0 min 0,000 mm 0,0 UV-I 5 W/m 13,1 C 13,9 C 8,0 km/h (2 Bft) 97,87 %
19.09.2016 07:24 13,9 C 95 % 1010,2 hPa 0,0 l/m 6,0 km/h (2 Bft) SW 234 0 min 0,000 mm 0,0 UV-I 5 W/m 13,1 C 13,9 C 9,7 km/h (2 Bft) 97,87 %
19.09.2016 07:26 13,9 C 95 % 1010,2 hPa 0,0 l/m 5,2 km/h (1 Bft) SW 225 0 min 0,000 mm 0,0 UV-I 5 W/m 13,1 C 13,9 C 8,0 km/h (2 Bft) 100,00 %
19.09.2016 07:28 13,9 C 95 % 1010,2 hPa 0,0 l/m 5,2 km/h (1 Bft) SW 235 0 min 0,000 mm 0,0 UV-I 5 W/m 13,1 C 13,9 C 8,0 km/h (2 Bft) 97,87 %
19.09.2016 07:30 13,9 C 95 % 1010,1 hPa 0,0 l/m 7,0 km/h (2 Bft) SW 230 0 min 0,000 mm 0,0 UV-I 5 W/m 13,1 C 13,5 C 11,3 km/h (2 Bft) 97,87 %
19.09.2016 07:32 13,9 C 95 % 1010,2 hPa 0,0 l/m 6,6 km/h (2 Bft) SW 234 0 min 0,000 mm 0,0 UV-I 6 W/m 13,1 C 13,8 C 9,7 km/h (2 Bft) 97,87 %
19.09.2016 07:34 13,9 C 95 % 1010,2 hPa 0,0 l/m 6,8 km/h (2 Bft) SW 229 0 min 0,000 mm 0,0 UV-I 7 W/m 13,1 C 13,7 C 12,9 km/h (3 Bft) 97,87 %
19.09.2016 07:36 13,9 C 95 % 1010,2 hPa 0,0 l/m 7,4 km/h (2 Bft) SW 234 0 min 0,000 mm 0,0 UV-I 7 W/m 13,1 C 13,3 C 11,3 km/h (2 Bft) 97,37 %
19.09.2016 07:38 13,9 C 95 % 1010,2 hPa 0,0 l/m 7,3 km/h (2 Bft) W-SW 243 0 min 0,000 mm 0,0 UV-I 7 W/m 13,1 C 13,4 C 11,3 km/h (2 Bft) 96,00 %
19.09.2016 07:40 13,9 C 95 % 1010,2 hPa 0,0 l/m 6,8 km/h (2 Bft) W-SW 240 0 min 0,000 mm 0,0 UV-I 9 W/m 13,1 C 13,7 C 11,3 km/h (2 Bft) 97,87 %
19.09.2016 07:42 13,9 C 95 % 1010,2 hPa 0,0 l/m 5,0 km/h (1 Bft) SW 229 0 min 0,000 mm 0,0 UV-I 9 W/m 13,1 C 13,9 C 8,0 km/h (2 Bft) 98,00 %
19.09.2016 07:44 13,9 C 95 % 1010,2 hPa 0,0 l/m 4,8 km/h (1 Bft) W 263 0 min 0,000 mm 0,0 UV-I 10 W/m 13,1 C 13,9 C 6,4 km/h (2 Bft) 93,62 %
19.09.2016 07:46 13,9 C 95 % 1010,2 hPa 0,0 l/m 5,3 km/h (1 Bft) W-SW 245 0 min 0,000 mm 0,0 UV-I 12 W/m 13,1 C 13,9 C 12,9 km/h (3 Bft) 97,87 %
19.09.2016 07:48 13,9 C 95 % 1010,2 hPa 0,0 l/m 5,2 km/h (1 Bft) W-SW 246 0 min 0,000 mm 0,0 UV-I 14 W/m 13,1 C 13,9 C 8,0 km/h (2 Bft) 97,22 %
19.09.2016 07:50 13,9 C 95 % 1010,2 hPa 0,0 l/m 6,4 km/h (2 Bft) W-SW 239 0 min 0,000 mm 0,0 UV-I 16 W/m 13,1 C 13,9 C 11,3 km/h (2 Bft) 98,00 %
19.09.2016 07:52 13,9 C 95 % 1010,2 hPa 0,0 l/m 5,4 km/h (1 Bft) SW 218 0 min 0,000 mm 0,0 UV-I 18 W/m 13,1 C 13,9 C 8,0 km/h (2 Bft) 98,11 %
19.09.2016 07:54 13,9 C 95 % 1010,2 hPa 0,0 l/m 5,1 km/h (1 Bft) SW 232 0 min 0,000 mm 0,0 UV-I 19 W/m 13,1 C 13,9 C 8,0 km/h (2 Bft) 97,87 %
19.09.2016 07:56 13,9 C 95 % 1010,2 hPa 0,0 l/m 5,4 km/h (1 Bft) SW 225 0 min 0,000 mm 0,0 UV-I 18 W/m 13,1 C 13,9 C 8,0 km/h (2 Bft) 97,87 %
19.09.2016 07:58 13,9 C 95 % 1010,2 hPa 0,0 l/m 4,9 km/h (1 Bft) W-SW 248 0 min 0,000 mm 0,0 UV-I 18 W/m 13,1 C 13,9 C 6,4 km/h (2 Bft) 97,87 %
19.09.2016 08:00 13,9 C 95 % 1010,2 hPa 0,0 l/m 7,5 km/h (2 Bft) SW 228 0 min 0,000 mm 0,0 UV-I 18 W/m 13,1 C 13,2 C 12,9 km/h (3 Bft) 97,87 %
19.09.2016 08:02 13,9 C 95 % 1010,2 hPa 0,0 l/m 5,8 km/h (2 Bft) W-SW 243 0 min 0,000 mm 0,0 UV-I 17 W/m 13,1 C 13,9 C 9,7 km/h (2 Bft) 96,00 %
19.09.2016 08:04 13,9 C 95 % 1010,2 hPa 0,0 l/m 6,0 km/h (2 Bft) W-SW 249 0 min 0,000 mm 0,0 UV-I 16 W/m 13,1 C 13,9 C 9,7 km/h (2 Bft) 95,74 %
19.09.2016 08:06 14,0 C 95 % 1010,3 hPa 0,0 l/m 5,0 km/h (1 Bft) W-SW 244 0 min 0,000 mm 0,0 UV-I 16 W/m 13,2 C 14,0 C 6,4 km/h (2 Bft) 100,00 %
19.09.2016 08:08 13,9 C 95 % 1010,3 hPa 0,0 l/m 6,6 km/h (2 Bft) W-SW 245 0 min 0,000 mm 0,0 UV-I 18 W/m 13,1 C 13,8 C 11,3 km/h (2 Bft) 100,00 %
19.09.2016 08:10 14,0 C 95 % 1010,3 hPa 0,0 l/m 5,8 km/h (2 Bft) W-SW 257 0 min 0,000 mm 0,0 UV-I 19 W/m 13,2 C 14,0 C 8,0 km/h (2 Bft) 100,00 %
19.09.2016 08:12 14,0 C 95 % 1010,3 hPa 0,0 l/m 6,2 km/h (2 Bft) W 266 0 min 0,000 mm 0,0 UV-I 20 W/m 13,2 C 14,0 C 11,3 km/h (2 Bft) 100,00 %
19.09.2016 08:14 14,0 C 95 % 1010,3 hPa 0,0 l/m 7,2 km/h (2 Bft) SW 218 0 min 0,000 mm 0,0 UV-I 21 W/m 13,2 C 13,5 C 11,3 km/h (2 Bft) 97,87 %
19.09.2016 08:16 14,0 C 95 % 1010,3 hPa 0,0 l/m 7,8 km/h (2 Bft) SW 234 0 min 0,000 mm 0,0 UV-I 21 W/m 13,2 C 13,2 C 12,9 km/h (3 Bft) 100,00 %
19.09.2016 08:18 14,0 C 95 % 1010,3 hPa 0,0 l/m 5,7 km/h (1 Bft) W 264 0 min 0,000 mm 0,0 UV-I 23 W/m 13,2 C 14,0 C 9,7 km/h (2 Bft) 98,00 %
19.09.2016 08:20 14,0 C 95 % 1010,3 hPa 0,0 l/m 6,9 km/h (2 Bft) W-SW 252 0 min 0,000 mm 0,0 UV-I 24 W/m 13,2 C 13,7 C 9,7 km/h (2 Bft) 100,00 %
19.09.2016 08:22 14,0 C 95 % 1010,3 hPa 0,0 l/m 5,8 km/h (2 Bft) W 266 0 min 0,000 mm 0,0 UV-I 27 W/m 13,2 C 14,0 C 11,3 km/h (2 Bft) 100,00 %
19.09.2016 08:24 14,1 C 95 % 1010,3 hPa 0,0 l/m 6,5 km/h (2 Bft) W 263 0 min 0,000 mm 0,0 UV-I 29 W/m 13,3 C 14,1 C 11,3 km/h (2 Bft) 100,00 %
19.09.2016 08:26 14,0 C 95 % 1010,3 hPa 0,0 l/m 5,5 km/h (1 Bft) W 266 0 min 0,000 mm 0,0 UV-I 33 W/m 13,2 C 14,0 C 9,7 km/h (2 Bft) 97,87 %
19.09.2016 08:28 14,0 C 95 % 1010,2 hPa 0,0 l/m 7,6 km/h (2 Bft) W 263 0 min 0,000 mm 0,0 UV-I 36 W/m 13,2 C 13,3 C 12,9 km/h (3 Bft) 97,92 %
19.09.2016 08:30 14,0 C 95 % 1010,3 hPa 0,0 l/m 7,5 km/h (2 Bft) W-NW 286 0 min 0,000 mm 0,0 UV-I 42 W/m 13,2 C 13,3 C 12,9 km/h (3 Bft) 100,00 %
19.09.2016 08:32 14,0 C 95 % 1010,3 hPa 0,0 l/m 7,2 km/h (2 Bft) W-SW 244 0 min 0,000 mm 0,0 UV-I 45 W/m 13,2 C 13,5 C 11,3 km/h (2 Bft) 100,00 %
19.09.2016 08:34 14,0 C 95 % 1010,3 hPa 0,0 l/m 6,5 km/h (2 Bft) W-SW 248 0 min 0,000 mm 0,0 UV-I 47 W/m 13,2 C 14,0 C 11,3 km/h (2 Bft) 100,00 %
19.09.2016 08:36 14,0 C 95 % 1010,3 hPa 0,0 l/m 7,7 km/h (2 Bft) SW 221 0 min 0,000 mm 0,0 UV-I 46 W/m 13,2 C 13,2 C 12,9 km/h (3 Bft) 97,87 %
19.09.2016 08:38 14,0 C 95 % 1010,3 hPa 0,0 l/m 6,9 km/h (2 Bft) W-SW 257 0 min 0,000 mm 0,0 UV-I 43 W/m 13,2 C 13,7 C 11,3 km/h (2 Bft) 100,00 %
19.09.2016 08:40 14,1 C 95 % 1010,3 hPa 0,0 l/m 6,7 km/h (2 Bft) S-SW 211 0 min 0,000 mm 0,0 UV-I 38 W/m 13,3 C 13,9 C 12,9 km/h (3 Bft) 100,00 %
19.09.2016 08:42 14,1 C 95 % 1010,4 hPa 0,0 l/m 6,3 km/h (2 Bft) SW 227 0 min 0,000 mm 0,0 UV-I 35 W/m 13,3 C 14,1 C 9,7 km/h (2 Bft) 100,00 %
19.09.2016 08:44 14,1 C 95 % 1010,3 hPa 0,0 l/m 4,9 km/h (1 Bft) W 263 0 min 0,000 mm 0,0 UV-I 34 W/m 13,3 C 14,1 C 9,7 km/h (2 Bft) 100,00 %
19.09.2016 08:46 14,1 C 95 % 1010,4 hPa 0,0 l/m 6,2 km/h (2 Bft) W-SW 240 0 min 0,000 mm 0,0 UV-I 33 W/m 13,3 C 14,1 C 12,9 km/h (3 Bft) 100,00 %
19.09.2016 08:48 14,1 C 95 % 1010,4 hPa 0,0 l/m 5,2 km/h (1 Bft) W-SW 244 0 min 0,000 mm 0,0 UV-I 35 W/m 13,3 C 14,1 C 11,3 km/h (2 Bft) 100,00 %
19.09.2016 08:50 14,1 C 95 % 1010,4 hPa 0,0 l/m 7,9 km/h (2 Bft) W-SW 238 0 min 0,000 mm 0,0 UV-I 39 W/m 13,3 C 13,2 C 14,5 km/h (3 Bft) 100,00 %
19.09.2016 08:52 14,1 C 95 % 1010,5 hPa 0,0 l/m 7,1 km/h (2 Bft) SW 231 0 min 0,000 mm 0,0 UV-I 43 W/m 13,3 C 13,7 C 12,9 km/h (3 Bft) 100,00 %
19.09.2016 08:54 14,1 C 95 % 1010,5 hPa 0,0 l/m 5,7 km/h (1 Bft) W-SW 252 0 min 0,000 mm 0,0 UV-I 46 W/m 13,3 C 14,1 C 9,7 km/h (2 Bft) 100,00 %
19.09.2016 08:56 14,2 C 95 % 1010,4 hPa 0,0 l/m 5,9 km/h (2 Bft) W-SW 251 0 min 0,000 mm 0,0 UV-I 46 W/m 13,4 C 14,2 C 11,3 km/h (2 Bft) 97,87 %
19.09.2016 08:58 14,2 C 95 % 1010,4 hPa 0,0 l/m 5,8 km/h (2 Bft) W-SW 238 0 min 0,000 mm 0,0 UV-I 44 W/m 13,4 C 14,2 C 9,7 km/h (2 Bft) 97,87 %
19.09.2016 09:00 14,2 C 95 % 1010,4 hPa 0,0 l/m 6,1 km/h (2 Bft) W-SW 252 0 min 0,025 mm 0,0 UV-I 45 W/m 13,4 C 14,2 C 11,3 km/h (2 Bft) 100,00 %
19.09.2016 09:02 14,2 C 95 % 1010,5 hPa 0,0 l/m 7,0 km/h (2 Bft) W 265 0 min 0,000 mm 0,0 UV-I 47 W/m 13,4 C 13,8 C 12,9 km/h (3 Bft) 100,00 %
19.09.2016 09:04 14,2 C 95 % 1010,5 hPa 0,0 l/m 7,9 km/h (2 Bft) W-SW 253 0 min 0,000 mm 0,0 UV-I 47 W/m 13,4 C 13,3 C 12,9 km/h (3 Bft) 96,00 %
19.09.2016 09:06 14,2 C 95 % 1010,5 hPa 0,0 l/m 7,6 km/h (2 Bft) W-SW 256 0 min 0,000 mm 0,0 UV-I 47 W/m 13,4 C 13,5 C 11,3 km/h (2 Bft) 100,00 %
19.09.2016 09:08 14,2 C 95 % 1010,5 hPa 0,0 l/m 7,8 km/h (2 Bft) W-SW 242 0 min 0,000 mm 0,0 UV-I 47 W/m 13,4 C 13,4 C 11,3 km/h (2 Bft) 100,00 %
19.09.2016 09:10 14,2 C 95 % 1010,5 hPa 0,0 l/m 5,0 km/h (1 Bft) SW 217 0 min 0,000 mm 0,0 UV-I 47 W/m 13,4 C 14,2 C 9,7 km/h (2 Bft) 100,00 %
19.09.2016 09:12 14,3 C 95 % 1010,5 hPa 0,0 l/m 6,1 km/h (2 Bft) W-SW 255 0 min 0,000 mm 0,0 UV-I 48 W/m 13,5 C 14,3 C 9,7 km/h (2 Bft) 100,00 %
19.09.2016 09:14 14,3 C 95 % 1010,5 hPa 0,0 l/m 5,3 km/h (1 Bft) W-SW 237 0 min 0,000 mm 0,0 UV-I 52 W/m 13,5 C 14,3 C 8,0 km/h (2 Bft) 100,00 %
19.09.2016 09:16 14,3 C 95 % 1010,5 hPa 0,0 l/m 7,2 km/h (2 Bft) SW 235 0 min 0,000 mm 0,0 UV-I 60 W/m 13,5 C 13,8 C 12,9 km/h (3 Bft) 100,00 %
19.09.2016 09:18 14,3 C 95 % 1010,5 hPa 0,0 l/m 9,1 km/h (2 Bft) W-SW 249 0 min 0,000 mm 0,0 UV-I 72 W/m 13,5 C 12,8 C 14,5 km/h (3 Bft) 100,00 %
19.09.2016 09:20 14,3 C 95 % 1010,6 hPa 0,0 l/m 8,6 km/h (2 Bft) W-SW 242 0 min 0,000 mm 0,0 UV-I 85 W/m 13,5 C 13,0 C 14,5 km/h (3 Bft) 100,00 %
19.09.2016 09:22 14,3 C 95 % 1010,6 hPa 0,0 l/m 9,0 km/h (2 Bft) SW 219 0 min 0,000 mm 0,2 UV-I 100 W/m 13,5 C 12,8 C 12,9 km/h (3 Bft) 97,87 %
19.09.2016 09:24 14,3 C 95 % 1010,6 hPa 0,0 l/m 9,1 km/h (2 Bft) W-SW 245 0 min 0,000 mm 0,5 UV-I 114 W/m 13,5 C 12,8 C 14,5 km/h (3 Bft) 97,87 %
19.09.2016 09:26 14,4 C 96 % 1010,6 hPa 0,0 l/m 7,0 km/h (2 Bft) W-SW 238 0 min 0,000 mm 0,6 UV-I 133 W/m 13,8 C 14,1 C 11,3 km/h (2 Bft) 100,00 %
19.09.2016 09:28 14,5 C 95 % 1010,6 hPa 0,0 l/m 9,2 km/h (2 Bft) W-SW 246 0 min 0,000 mm 0,6 UV-I 139 W/m 13,7 C 13,0 C 14,5 km/h (3 Bft) 95,74 %
19.09.2016 09:30 14,5 C 95 % 1010,7 hPa 0,0 l/m 11,8 km/h (2 Bft) W-SW 243 0 min 0,000 mm 0,6 UV-I 140 W/m 13,7 C 11,8 C 14,5 km/h (3 Bft) 97,87 %
19.09.2016 09:32 14,5 C 95 % 1010,7 hPa 0,0 l/m 7,4 km/h (2 Bft) W-SW 247 0 min 0,000 mm 0,6 UV-I 137 W/m 13,7 C 13,9 C 11,3 km/h (2 Bft) 100,00 %
19.09.2016 09:34 14,5 C 95 % 1010,7 hPa 0,0 l/m 8,8 km/h (2 Bft) W 275 0 min 0,000 mm 0,6 UV-I 133 W/m 13,7 C 13,2 C 12,9 km/h (3 Bft) 95,74 %
19.09.2016 09:36 14,6 C 96 % 1010,7 hPa 0,0 l/m 9,1 km/h (2 Bft) W 273 0 min 0,000 mm 0,6 UV-I 127 W/m 14,0 C 13,1 C 12,9 km/h (3 Bft) 97,87 %
19.09.2016 09:38 14,6 C 95 % 1010,7 hPa 0,0 l/m 10,1 km/h (2 Bft) W-SW 253 0 min 0,000 mm 0,5 UV-I 113 W/m 13,8 C 12,6 C 12,9 km/h (3 Bft) 95,74 %
19.09.2016 09:40 14,6 C 96 % 1010,8 hPa 0,0 l/m 8,2 km/h (2 Bft) W-SW 251 0 min 0,000 mm 0,3 UV-I 94 W/m 14,0 C 13,6 C 12,9 km/h (3 Bft) 97,87 %
19.09.2016 09:42 14,6 C 96 % 1010,8 hPa 0,0 l/m 8,4 km/h (2 Bft) W-SW 244 0 min 0,000 mm 0,0 UV-I 90 W/m 14,0 C 13,5 C 12,9 km/h (3 Bft) 98,00 %
19.09.2016 09:44 14,6 C 96 % 1010,8 hPa 0,0 l/m 7,2 km/h (2 Bft) W-SW 251 0 min 0,000 mm 0,0 UV-I 81 W/m 14,0 C 14,1 C 12,9 km/h (3 Bft) 95,74 %
19.09.2016 09:46 14,6 C 96 % 1010,8 hPa 0,0 l/m 7,1 km/h (2 Bft) W-SW 238 0 min 0,000 mm 0,0 UV-I 93 W/m 14,0 C 14,2 C 12,9 km/h (3 Bft) 93,62 %
19.09.2016 09:48 14,6 C 96 % 1010,8 hPa 0,0 l/m 6,7 km/h (2 Bft) W 260 0 min 0,000 mm 0,2 UV-I 90 W/m 14,0 C 14,4 C 11,3 km/h (2 Bft) 98,00 %
19.09.2016 09:50 14,5 C 96 % 1010,8 hPa 0,0 l/m 8,1 km/h (2 Bft) W-SW 242 0 min 0,000 mm 0,0 UV-I 81 W/m 13,9 C 13,5 C 14,5 km/h (3 Bft) 97,87 %
19.09.2016 09:52 14,5 C 96 % 1010,9 hPa 0,0 l/m 5,7 km/h (1 Bft) W-SW 250 0 min 0,000 mm 0,0 UV-I 80 W/m 13,9 C 14,5 C 11,3 km/h (2 Bft) 97,92 %
19.09.2016 09:54 14,5 C 96 % 1010,9 hPa 0,0 l/m 10,3 km/h (2 Bft) W-SW 257 0 min 0,000 mm 0,0 UV-I 72 W/m 13,9 C 12,4 C 16,1 km/h (3 Bft) 97,37 %
19.09.2016 09:56 14,6 C 96 % 1010,9 hPa 0,0 l/m 9,0 km/h (2 Bft) SW 235 0 min 0,000 mm 0,0 UV-I 58 W/m 14,0 C 13,2 C 22,5 km/h (4 Bft) 95,83 %
19.09.2016 09:58 14,5 C 96 % 1011,0 hPa 0,0 l/m 10,8 km/h (2 Bft) W 281 0 min 0,000 mm 0,0 UV-I 42 W/m 13,9 C 12,2 C 19,3 km/h (3 Bft) 97,87 %
19.09.2016 10:00 14,4 C 96 % 1011,0 hPa 0,0 l/m 11,0 km/h (2 Bft) W 265 0 min 0,000 mm 0,0 UV-I 42 W/m 13,8 C 12,0 C 20,9 km/h (4 Bft) 97,87 %
19.09.2016 10:02 14,4 C 96 % 1011,0 hPa 0,0 l/m 8,7 km/h (2 Bft) W-SW 258 0 min 0,051 mm 0,0 UV-I 40 W/m 13,8 C 13,1 C 12,9 km/h (3 Bft) 96,23 %
19.09.2016 10:04 14,4 C 96 % 1011,1 hPa 0,0 l/m 9,1 km/h (2 Bft) W 261 0 min 0,000 mm 0,0 UV-I 44 W/m 13,8 C 12,9 C 14,5 km/h (3 Bft) 97,37 %
19.09.2016 10:06 14,4 C 96 % 1011,1 hPa 0,0 l/m 6,8 km/h (2 Bft) W-SW 242 0 min 0,000 mm 0,0 UV-I 61 W/m 13,8 C 14,2 C 11,3 km/h (2 Bft) 100,00 %
19.09.2016 10:08 14,4 C 96 % 1011,2 hPa 0,0 l/m 9,0 km/h (2 Bft) SW 229 0 min 0,000 mm 0,2 UV-I 75 W/m 13,8 C 12,9 C 16,1 km/h (3 Bft) 97,87 %
19.09.2016 10:10 14,4 C 96 % 1011,2 hPa 0,0 l/m 6,3 km/h (2 Bft) W 263 0 min 0,000 mm 0,0 UV-I 60 W/m 13,8 C 14,4 C 11,3 km/h (2 Bft) 97,87 %
19.09.2016 10:12 14,4 C 96 % 1011,2 hPa 0,2 l/m 4,6 km/h (1 Bft) W-SW 255 0 min 0,000 mm 0,0 UV-I 56 W/m 13,8 C 14,4 C 8,0 km/h (2 Bft) 100,00 %
19.09.2016 10:14 14,4 C 96 % 1011,3 hPa 0,0 l/m 6,3 km/h (2 Bft) W-SW 255 0 min 0,000 mm 0,0 UV-I 57 W/m 13,8 C 14,4 C 12,9 km/h (3 Bft) 98,00 %
19.09.2016 10:16 14,4 C 96 % 1011,3 hPa 0,0 l/m 7,0 km/h (2 Bft) W 273 0 min 0,000 mm 0,0 UV-I 54 W/m 13,8 C 14,1 C 17,7 km/h (3 Bft) 100,00 %
19.09.2016 10:18 14,4 C 96 % 1011,3 hPa 0,0 l/m 8,2 km/h (2 Bft) W-SW 250 0 min 0,000 mm 0,0 UV-I 54 W/m 13,8 C 13,4 C 16,1 km/h (3 Bft) 97,87 %
19.09.2016 10:20 14,4 C 96 % 1011,3 hPa 0,0 l/m 5,8 km/h (2 Bft) SW 235 0 min 0,000 mm 0,0 UV-I 52 W/m 13,8 C 14,4 C 9,7 km/h (2 Bft) 100,00 %
19.09.2016 10:22 14,4 C 96 % 1011,3 hPa 0,0 l/m 6,6 km/h (2 Bft) W 265 0 min 0,000 mm 0,0 UV-I 47 W/m 13,8 C 14,3 C 11,3 km/h (2 Bft) 100,00 %
19.09.2016 10:24 14,4 C 96 % 1011,3 hPa 0,0 l/m 5,7 km/h (1 Bft) SW 233 0 min 0,000 mm 0,0 UV-I 47 W/m 13,8 C 14,4 C 9,7 km/h (2 Bft) 100,00 %
19.09.2016 10:26 14,4 C 96 % 1011,3 hPa 0,0 l/m 7,7 km/h (2 Bft) W-SW 237 0 min 0,000 mm 0,0 UV-I 48 W/m 13,8 C 13,6 C 12,9 km/h (3 Bft) 97,87 %
19.09.2016 10:28 14,4 C 96 % 1011,3 hPa 0,0 l/m 4,7 km/h (1 Bft) W-SW 246 0 min 0,000 mm 0,0 UV-I 52 W/m 13,8 C 14,4 C 8,0 km/h (2 Bft) 100,00 %
19.09.2016 10:30 14,4 C 96 % 1011,4 hPa 0,0 l/m 8,4 km/h (2 Bft) SW 235 0 min 0,000 mm 0,0 UV-I 58 W/m 13,8 C 13,3 C 19,3 km/h (3 Bft) 100,00 %
19.09.2016 10:32 14,4 C 96 % 1011,4 hPa 0,0 l/m 8,6 km/h (2 Bft) W-SW 250 0 min 0,000 mm 0,0 UV-I 60 W/m 13,8 C 13,1 C 16,1 km/h (3 Bft) 98,00 %
19.09.2016 10:34 14,3 C 96 % 1011,4 hPa 0,0 l/m 8,5 km/h (2 Bft) W-NW 297 0 min 0,000 mm 0,0 UV-I 63 W/m 13,7 C 13,1 C 14,5 km/h (3 Bft) 97,87 %
19.09.2016 10:36 14,4 C 96 % 1011,4 hPa 0,0 l/m 9,6 km/h (2 Bft) SW 234 0 min 0,000 mm 0,0 UV-I 66 W/m 13,8 C 12,6 C 16,1 km/h (3 Bft) 97,87 %
19.09.2016 10:38 14,3 C 96 % 1011,4 hPa 0,0 l/m 14,4 km/h (3 Bft) W 278 0 min 0,000 mm 0,0 UV-I 75 W/m 13,7 C 10,6 C 22,5 km/h (4 Bft) 100,00 %
19.09.2016 10:40 14,3 C 96 % 1011,4 hPa 0,0 l/m 7,5 km/h (2 Bft) SW 236 0 min 0,000 mm 0,3 UV-I 90 W/m 13,7 C 13,7 C 14,5 km/h (3 Bft) 97,37 %
19.09.2016 10:42 14,4 C 96 % 1011,4 hPa 0,2 l/m 7,8 km/h (2 Bft) W 281 0 min 0,000 mm 0,6 UV-I 112 W/m 13,8 C 13,6 C 14,5 km/h (3 Bft) 100,00 %
19.09.2016 10:44 14,4 C 96 % 1011,4 hPa 0,0 l/m 8,3 km/h (2 Bft) W 279 0 min 0,000 mm 0,3 UV-I 87 W/m 13,8 C 13,3 C 12,9 km/h (3 Bft) 100,00 %
19.09.2016 10:46 14,3 C 96 % 1011,4 hPa 0,2 l/m 8,0 km/h (2 Bft) W-SW 237 0 min 0,000 mm 0,0 UV-I 72 W/m 13,7 C 13,4 C 16,1 km/h (3 Bft) 100,00 %
19.09.2016 10:48 14,3 C 96 % 1011,4 hPa 0,0 l/m 6,2 km/h (2 Bft) W-SW 257 0 min 0,000 mm 0,0 UV-I 50 W/m 13,7 C 14,3 C 11,3 km/h (2 Bft) 98,00 %
19.09.2016 10:50 14,3 C 96 % 1011,5 hPa 0,0 l/m 8,3 km/h (2 Bft) W-SW 249 0 min 0,000 mm 0,0 UV-I 43 W/m 13,7 C 13,2 C 14,5 km/h (3 Bft) 100,00 %
19.09.2016 10:52 14,3 C 96 % 1011,5 hPa 0,2 l/m 9,2 km/h (2 Bft) W 272 0 min 0,000 mm 0,0 UV-I 41 W/m 13,7 C 12,7 C 12,9 km/h (3 Bft) 97,87 %
19.09.2016 10:54 14,2 C 96 % 1011,5 hPa 0,0 l/m 14,3 km/h (3 Bft) W 267 0 min 0,000 mm 0,0 UV-I 34 W/m 13,6 C 10,5 C 20,9 km/h (4 Bft) 100,00 %
19.09.2016 10:56 14,2 C 96 % 1011,5 hPa 0,0 l/m 12,1 km/h (2 Bft) W 265 0 min 0,000 mm 0,0 UV-I 36 W/m 13,6 C 11,3 C 20,9 km/h (4 Bft) 100,00 %
19.09.2016 10:58 14,1 C 96 % 1011,5 hPa 0,0 l/m 6,9 km/h (2 Bft) W 274 0 min 0,000 mm 0,0 UV-I 40 W/m 13,5 C 13,8 C 11,3 km/h (2 Bft) 97,87 %
19.09.2016 11:00 14,1 C 96 % 1011,5 hPa 0,2 l/m 8,4 km/h (2 Bft) W-SW 258 0 min 0,026 mm 0,0 UV-I 43 W/m 13,5 C 12,9 C 12,9 km/h (3 Bft) 100,00 %
19.09.2016 11:02 14,1 C 96 % 1011,5 hPa 0,0 l/m 9,7 km/h (2 Bft) S-SW 213 0 min 0,000 mm 0,0 UV-I 42 W/m 13,5 C 12,3 C 16,1 km/h (3 Bft) 100,00 %
19.09.2016 11:04 14,1 C 96 % 1011,5 hPa 0,0 l/m 8,7 km/h (2 Bft) W 269 0 min 0,000 mm 0,0 UV-I 46 W/m 13,5 C 12,8 C 14,5 km/h (3 Bft) 100,00 %
19.09.2016 11:06 14,1 C 96 % 1011,5 hPa 0,0 l/m 9,6 km/h (2 Bft) W-SW 238 0 min 0,000 mm 0,0 UV-I 52 W/m 13,5 C 12,3 C 12,9 km/h (3 Bft) 100,00 %
19.09.2016 11:08 14,1 C 96 % 1011,5 hPa 0,0 l/m 6,8 km/h (2 Bft) W-SW 243 0 min 0,000 mm 0,0 UV-I 60 W/m 13,5 C 13,9 C 12,9 km/h (3 Bft) 100,00 %
19.09.2016 11:10 14,1 C 96 % 1011,5 hPa 0,2 l/m 8,4 km/h (2 Bft) W-SW 244 0 min 0,000 mm 0,3 UV-I 73 W/m 13,5 C 12,9 C 16,1 km/h (3 Bft) 97,87 %
19.09.2016 11:12 14,1 C 96 % 1011,5 hPa 0,2 l/m 11,6 km/h (2 Bft) W 261 0 min 0,000 mm 0,6 UV-I 102 W/m 13,5 C 11,4 C 20,9 km/h (4 Bft) 100,00 %
19.09.2016 11:14 14,1 C 96 % 1011,5 hPa 0,2 l/m 11,4 km/h (2 Bft) W-SW 257 0 min 0,000 mm 0,7 UV-I 114 W/m 13,5 C 11,5 C 16,1 km/h (3 Bft) 100,00 %
19.09.2016 11:16 14,0 C 96 % 1011,5 hPa 0,4 l/m 8,3 km/h (2 Bft) SW 232 0 min 0,000 mm 0,7 UV-I 109 W/m 13,4 C 12,9 C 12,9 km/h (3 Bft) 95,74 %
19.09.2016 11:18 14,1 C 96 % 1011,5 hPa 0,2 l/m 12,1 km/h (2 Bft) W 269 0 min 0,000 mm 0,8 UV-I 116 W/m 13,5 C 11,2 C 17,7 km/h (3 Bft) 97,87 %
19.09.2016 11:20 14,1 C 96 % 1011,6 hPa 0,4 l/m 13,5 km/h (3 Bft) SW 235 0 min 0,000 mm 0,8 UV-I 126 W/m 13,5 C 10,6 C 19,3 km/h (3 Bft) 97,87 %
19.09.2016 11:22 14,0 C 96 % 1011,5 hPa 0,2 l/m 12,6 km/h (3 Bft) W-SW 258 0 min 0,000 mm 0,8 UV-I 125 W/m 13,4 C 10,9 C 22,5 km/h (4 Bft) 97,87 %
19.09.2016 11:24 14,0 C 96 % 1011,5 hPa 0,2 l/m 13,0 km/h (3 Bft) W-SW 248 0 min 0,000 mm 0,7 UV-I 108 W/m 13,4 C 10,7 C 20,9 km/h (4 Bft) 100,00 %
19.09.2016 11:26 14,1 C 96 % 1011,6 hPa 0,0 l/m 12,6 km/h (3 Bft) W 268 0 min 0,000 mm 0,8 UV-I 109 W/m 13,5 C 11,0 C 17,7 km/h (3 Bft) 95,74 %
19.09.2016 11:28 14,0 C 96 % 1011,6 hPa 0,2 l/m 13,1 km/h (3 Bft) W-NW 284 0 min 0,000 mm 0,8 UV-I 111 W/m 13,4 C 10,7 C 25,7 km/h (4 Bft) 95,74 %
19.09.2016 11:30 14,0 C 96 % 1011,6 hPa 0,2 l/m 13,5 km/h (3 Bft) W 267 0 min 0,000 mm 0,7 UV-I 95 W/m 13,4 C 10,5 C 20,9 km/h (4 Bft) 100,00 %
19.09.2016 11:32 14,0 C 96 % 1011,6 hPa 0,0 l/m 11,4 km/h (2 Bft) W-SW 239 0 min 0,000 mm 0,6 UV-I 88 W/m 13,4 C 11,4 C 17,7 km/h (3 Bft) 98,00 %
19.09.2016 11:34 13,9 C 96 % 1011,6 hPa 0,0 l/m 11,4 km/h (2 Bft) W 277 0 min 0,000 mm 0,6 UV-I 86 W/m 13,3 C 11,3 C 19,3 km/h (3 Bft) 92,11 %
19.09.2016 11:36 13,9 C 96 % 1011,6 hPa 0,2 l/m 11,1 km/h (2 Bft) W-SW 242 0 min 0,000 mm 0,6 UV-I 83 W/m 13,3 C 11,4 C 17,7 km/h (3 Bft) 97,87 %
19.09.2016 11:38 13,9 C 96 % 1011,6 hPa 0,0 l/m 10,3 km/h (2 Bft) W-SW 257 0 min 0,000 mm 0,6 UV-I 84 W/m 13,3 C 11,8 C 16,1 km/h (3 Bft) 95,74 %
19.09.2016 11:40 14,0 C 96 % 1011,6 hPa 0,0 l/m 11,6 km/h (2 Bft) W-SW 238 0 min 0,000 mm 0,6 UV-I 79 W/m 13,4 C 11,3 C 20,9 km/h (4 Bft) 95,74 %
19.09.2016 11:42 14,0 C 96 % 1011,6 hPa 0,2 l/m 10,1 km/h (2 Bft) W 261 0 min 0,000 mm 0,6 UV-I 79 W/m 13,4 C 12,0 C 16,1 km/h (3 Bft) 97,92 %
19.09.2016 11:44 13,9 C 96 % 1011,7 hPa 0,0 l/m 15,7 km/h (3 Bft) W-SW 255 0 min 0,000 mm 0,6 UV-I 79 W/m 13,3 C 9,6 C 22,5 km/h (4 Bft) 97,96 %
19.09.2016 11:46 13,9 C 96 % 1011,6 hPa 0,0 l/m 14,2 km/h (3 Bft) W 266 0 min 0,000 mm 0,6 UV-I 83 W/m 13,3 C 10,1 C 24,1 km/h (4 Bft) 95,83 %
19.09.2016 11:48 13,9 C 96 % 1011,7 hPa 0,2 l/m 14,9 km/h (3 Bft) W 274 0 min 0,000 mm 0,6 UV-I 81 W/m 13,3 C 9,9 C 22,5 km/h (4 Bft) 97,87 %
19.09.2016 11:50 13,9 C 96 % 1011,6 hPa 0,0 l/m 14,1 km/h (3 Bft) W-SW 247 0 min 0,000 mm 0,6 UV-I 76 W/m 13,3 C 10,2 C 20,9 km/h (4 Bft) 97,87 %
19.09.2016 11:52 13,9 C 96 % 1011,6 hPa 0,0 l/m 11,5 km/h (2 Bft) W-SW 257 0 min 0,000 mm 0,5 UV-I 73 W/m 13,3 C 11,2 C 19,3 km/h (3 Bft) 97,87 %
19.09.2016 11:54 13,9 C 96 % 1011,7 hPa 0,0 l/m 10,3 km/h (2 Bft) W-SW 257 0 min 0,000 mm 0,5 UV-I 69 W/m 13,3 C 11,8 C 14,5 km/h (3 Bft) 97,87 %
19.09.2016 11:56 14,0 C 96 % 1011,7 hPa 0,2 l/m 12,5 km/h (3 Bft) SW 222 0 min 0,000 mm 0,6 UV-I 72 W/m 13,4 C 10,9 C 19,3 km/h (3 Bft) 97,87 %
19.09.2016 11:58 14,0 C 96 % 1011,7 hPa 0,0 l/m 15,1 km/h (3 Bft) W-SW 252 0 min 0,000 mm 0,6 UV-I 80 W/m 13,4 C 9,9 C 20,9 km/h (4 Bft) 97,14 %
19.09.2016 12:00 14,0 C 96 % 1011,7 hPa 0,0 l/m 16,8 km/h (3 Bft) W 264 0 min 0,050 mm 0,8 UV-I 89 W/m 13,4 C 9,4 C 29,0 km/h (5 Bft) 98,21 %
19.09.2016 12:02 14,0 C 96 % 1011,7 hPa 0,0 l/m 14,0 km/h (3 Bft) W-SW 249 0 min 0,000 mm 0,8 UV-I 88 W/m 13,4 C 10,3 C 19,3 km/h (3 Bft) 97,87 %
19.09.2016 12:04 14,1 C 96 % 1011,7 hPa 0,0 l/m 13,2 km/h (3 Bft) W-NW 293 0 min 0,000 mm 0,8 UV-I 94 W/m 13,5 C 10,8 C 19,3 km/h (3 Bft) 95,74 %
19.09.2016 12:06 14,1 C 96 % 1011,8 hPa 0,0 l/m 12,4 km/h (3 Bft) W-SW 255 0 min 0,000 mm 0,9 UV-I 97 W/m 13,5 C 11,1 C 20,9 km/h (4 Bft) 98,00 %
19.09.2016 12:08 14,1 C 96 % 1011,7 hPa 0,0 l/m 17,0 km/h (3 Bft) W-SW 244 0 min 0,000 mm 0,9 UV-I 104 W/m 13,5 C 9,4 C 30,6 km/h (5 Bft) 100,00 %
19.09.2016 12:10 14,1 C 96 % 1011,8 hPa 0,0 l/m 13,7 km/h (3 Bft) W-SW 251 0 min 0,000 mm 0,9 UV-I 104 W/m 13,5 C 10,6 C 20,9 km/h (4 Bft) 95,74 %
19.09.2016 12:12 14,1 C 96 % 1011,7 hPa 0,0 l/m 13,5 km/h (3 Bft) W-SW 247 0 min 0,000 mm 0,9 UV-I 101 W/m 13,5 C 10,6 C 19,3 km/h (3 Bft) 100,00 %
19.09.2016 12:14 14,1 C 96 % 1011,7 hPa 0,0 l/m 10,9 km/h (2 Bft) SW 230 0 min 0,000 mm 0,7 UV-I 95 W/m 13,5 C 11,7 C 20,9 km/h (4 Bft) 100,00 %
19.09.2016 12:16 14,1 C 96 % 1011,8 hPa 0,0 l/m 15,1 km/h (3 Bft) W 273 0 min 0,000 mm 0,6 UV-I 86 W/m 13,5 C 10,1 C 22,5 km/h (4 Bft) 100,00 %
19.09.2016 12:18 14,1 C 96 % 1011,8 hPa 0,0 l/m 10,7 km/h (2 Bft) W-SW 253 0 min 0,000 mm 0,6 UV-I 87 W/m 13,5 C 11,8 C 22,5 km/h (4 Bft) 97,87 %
19.09.2016 12:20 14,1 C 96 % 1011,8 hPa 0,0 l/m 9,3 km/h (2 Bft) W 259 0 min 0,000 mm 0,7 UV-I 96 W/m 13,5 C 12,5 C 19,3 km/h (3 Bft) 95,92 %
19.09.2016 12:22 14,1 C 96 % 1011,8 hPa 0,0 l/m 13,4 km/h (3 Bft) SW 224 0 min 0,000 mm 0,8 UV-I 114 W/m 13,5 C 10,7 C 20,9 km/h (4 Bft) 100,00 %
19.09.2016 12:24 14,1 C 96 % 1011,8 hPa 0,0 l/m 10,5 km/h (2 Bft) W-SW 241 0 min 0,000 mm 1,0 UV-I 134 W/m 13,5 C 11,9 C 22,5 km/h (4 Bft) 93,62 %
19.09.2016 12:26 14,1 C 96 % 1011,8 hPa 0,0 l/m 16,9 km/h (3 Bft) SW 221 0 min 0,000 mm 1,2 UV-I 165 W/m 13,5 C 9,5 C 24,1 km/h (4 Bft) 97,87 %
19.09.2016 12:28 14,1 C 96 % 1011,8 hPa 0,0 l/m 14,7 km/h (3 Bft) W-SW 245 0 min 0,000 mm 1,4 UV-I 183 W/m 13,5 C 10,2 C 24,1 km/h (4 Bft) 98,00 %
19.09.2016 12:30 14,2 C 96 % 1011,8 hPa 0,0 l/m 14,0 km/h (3 Bft) SW 227 0 min 0,000 mm 1,3 UV-I 182 W/m 13,6 C 10,6 C 17,7 km/h (3 Bft) 100,00 %
19.09.2016 12:32 14,2 C 96 % 1011,9 hPa 0,0 l/m 11,4 km/h (2 Bft) SW 227 0 min 0,000 mm 1,3 UV-I 175 W/m 13,6 C 11,6 C 16,1 km/h (3 Bft) 97,87 %
19.09.2016 12:34 14,2 C 96 % 1011,9 hPa 0,0 l/m 11,3 km/h (2 Bft) SW 236 0 min 0,000 mm 1,3 UV-I 181 W/m 13,6 C 11,6 C 17,7 km/h (3 Bft) 100,00 %
19.09.2016 12:36 14,3 C 96 % 1011,9 hPa 0,0 l/m 12,6 km/h (3 Bft) W 260 0 min 0,000 mm 1,3 UV-I 183 W/m 13,7 C 11,2 C 19,3 km/h (3 Bft) 100,00 %
19.09.2016 12:38 14,2 C 95 % 1011,9 hPa 0,0 l/m 10,5 km/h (2 Bft) SW 224 0 min 0,000 mm 1,2 UV-I 173 W/m 13,4 C 12,0 C 17,7 km/h (3 Bft) 97,87 %
19.09.2016 12:40 14,3 C 96 % 1011,9 hPa 0,0 l/m 13,0 km/h (3 Bft) W-SW 246 0 min 0,000 mm 1,1 UV-I 157 W/m 13,7 C 11,1 C 19,3 km/h (3 Bft) 95,74 %
19.09.2016 12:42 14,3 C 95 % 1011,9 hPa 0,0 l/m 10,8 km/h (2 Bft) W-SW 252 0 min 0,000 mm 1,0 UV-I 143 W/m 13,5 C 12,0 C 17,7 km/h (3 Bft) 100,00 %
19.09.2016 12:44 14,3 C 95 % 1011,9 hPa 0,0 l/m 13,0 km/h (3 Bft) W-SW 255 0 min 0,000 mm 0,8 UV-I 122 W/m 13,5 C 11,1 C 19,3 km/h (3 Bft) 100,00 %
19.09.2016 12:46 14,3 C 95 % 1011,9 hPa 0,0 l/m 12,5 km/h (3 Bft) SW 229 0 min 0,000 mm 0,8 UV-I 117 W/m 13,5 C 11,3 C 19,3 km/h (3 Bft) 100,00 %
19.09.2016 12:48 14,3 C 95 % 1011,9 hPa 0,0 l/m 10,6 km/h (2 Bft) SW 232 0 min 0,000 mm 0,8 UV-I 118 W/m 13,5 C 12,1 C 17,7 km/h (3 Bft) 100,00 %
19.09.2016 12:50 14,3 C 95 % 1012,0 hPa 0,0 l/m 15,7 km/h (3 Bft) W-SW 249 0 min 0,000 mm 0,9 UV-I 128 W/m 13,5 C 10,1 C 25,7 km/h (4 Bft) 100,00 %
19.09.2016 12:52 14,3 C 95 % 1011,9 hPa 0,0 l/m 12,5 km/h (3 Bft) SW 222 0 min 0,000 mm 0,9 UV-I 133 W/m 13,5 C 11,3 C 19,3 km/h (3 Bft) 100,00 %
19.09.2016 12:54 14,3 C 95 % 1011,9 hPa 0,0 l/m 16,1 km/h (3 Bft) W 260 0 min 0,000 mm 0,8 UV-I 118 W/m 13,5 C 10,0 C 24,1 km/h (4 Bft) 100,00 %
19.09.2016 12:56 14,3 C 95 % 1011,9 hPa 0,0 l/m 12,1 km/h (2 Bft) S 191 0 min 0,000 mm 0,8 UV-I 113 W/m 13,5 C 11,4 C 19,3 km/h (3 Bft) 97,87 %
19.09.2016 12:58 14,3 C 95 % 1012,0 hPa 0,0 l/m 14,7 km/h (3 Bft) W-NW 284 0 min 0,000 mm 0,7 UV-I 108 W/m 13,5 C 10,4 C 19,3 km/h (3 Bft) 100,00 %
19.09.2016 13:00 14,3 C 95 % 1012,0 hPa 0,0 l/m 12,1 km/h (2 Bft) W-SW 246 0 min 0,077 mm 0,7 UV-I 106 W/m 13,5 C 11,4 C 17,7 km/h (3 Bft) 100,00 %
19.09.2016 13:02 14,3 C 95 % 1012,0 hPa 0,0 l/m 17,2 km/h (3 Bft) W-SW 255 0 min 0,000 mm 0,7 UV-I 108 W/m 13,5 C 9,6 C 25,7 km/h (4 Bft) 100,00 %
19.09.2016 13:04 14,3 C 95 % 1012,0 hPa 0,0 l/m 13,1 km/h (3 Bft) W-SW 240 0 min 0,000 mm 0,6 UV-I 94 W/m 13,5 C 11,0 C 22,5 km/h (4 Bft) 100,00 %
19.09.2016 13:06 14,3 C 95 % 1012,0 hPa 0,0 l/m 14,7 km/h (3 Bft) W-SW 252 0 min 0,000 mm 0,6 UV-I 88 W/m 13,5 C 10,4 C 19,3 km/h (3 Bft) 100,00 %
19.09.2016 13:08 14,3 C 95 % 1012,0 hPa 0,0 l/m 14,1 km/h (3 Bft) SW 222 0 min 0,000 mm 0,6 UV-I 91 W/m 13,5 C 10,7 C 20,9 km/h (4 Bft) 100,00 %
19.09.2016 13:10 14,3 C 95 % 1012,0 hPa 0,0 l/m 10,6 km/h (2 Bft) SW 227 0 min 0,000 mm 0,7 UV-I 101 W/m 13,5 C 12,1 C 17,7 km/h (3 Bft) 100,00 %
19.09.2016 13:12 14,3 C 95 % 1012,0 hPa 0,0 l/m 14,4 km/h (3 Bft) SW 233 0 min 0,000 mm 0,9 UV-I 120 W/m 13,5 C 10,6 C 20,9 km/h (4 Bft) 97,87 %
19.09.2016 13:14 14,3 C 95 % 1012,0 hPa 0,0 l/m 12,7 km/h (3 Bft) W-SW 245 0 min 0,000 mm 0,9 UV-I 123 W/m 13,5 C 11,2 C 22,5 km/h (4 Bft) 100,00 %
19.09.2016 13:16 14,3 C 95 % 1012,0 hPa 0,4 l/m 8,5 km/h (2 Bft) W-SW 238 0 min 0,000 mm 0,7 UV-I 90 W/m 13,5 C 13,1 C 16,1 km/h (3 Bft) 100,00 %
19.09.2016 13:18 14,2 C 95 % 1012,0 hPa 0,2 l/m 9,0 km/h (2 Bft) W-SW 238 0 min 0,000 mm 0,6 UV-I 77 W/m 13,4 C 12,7 C 12,9 km/h (3 Bft) 97,87 %
19.09.2016 13:20 14,2 C 95 % 1012,0 hPa 0,2 l/m 12,5 km/h (3 Bft) S-SW 204 0 min 0,000 mm 0,1 UV-I 57 W/m 13,4 C 11,1 C 19,3 km/h (3 Bft) 100,00 %
19.09.2016 13:22 14,2 C 95 % 1012,1 hPa 0,2 l/m 9,8 km/h (2 Bft) W 267 0 min 0,000 mm 0,0 UV-I 49 W/m 13,4 C 12,3 C 19,3 km/h (3 Bft) 100,00 %
19.09.2016 13:24 14,2 C 95 % 1012,2 hPa 0,2 l/m 9,9 km/h (2 Bft) W-NW 296 0 min 0,000 mm 0,3 UV-I 67 W/m 13,4 C 12,3 C 17,7 km/h (3 Bft) 100,00 %
19.09.2016 13:26 14,2 C 95 % 1012,2 hPa 0,4 l/m 10,9 km/h (2 Bft) W 262 0 min 0,000 mm 0,7 UV-I 99 W/m 13,4 C 11,8 C 17,7 km/h (3 Bft) 100,00 %
19.09.2016 13:28 14,2 C 96 % 1012,2 hPa 0,2 l/m 9,3 km/h (2 Bft) SW 234 0 min 0,000 mm 0,9 UV-I 127 W/m 13,6 C 12,6 C 17,7 km/h (3 Bft) 100,00 %
19.09.2016 13:30 14,2 C 96 % 1012,1 hPa 0,2 l/m 11,3 km/h (2 Bft) SW 236 0 min 0,000 mm 1,0 UV-I 139 W/m 13,6 C 11,6 C 17,7 km/h (3 Bft) 100,00 %
19.09.2016 13:32 14,2 C 96 % 1012,1 hPa 0,0 l/m 15,7 km/h (3 Bft) W 261 0 min 0,000 mm 0,9 UV-I 131 W/m 13,6 C 10,0 C 22,5 km/h (4 Bft) 95,74 %
19.09.2016 13:34 14,1 C 96 % 1012,1 hPa 0,0 l/m 12,5 km/h (3 Bft) W-SW 250 0 min 0,000 mm 0,8 UV-I 126 W/m 13,5 C 11,0 C 19,3 km/h (3 Bft) 97,87 %
19.09.2016 13:36 14,1 C 96 % 1012,2 hPa 0,2 l/m 13,1 km/h (3 Bft) W-SW 243 0 min 0,000 mm 0,8 UV-I 110 W/m 13,5 C 10,8 C 19,3 km/h (3 Bft) 97,87 %
19.09.2016 13:38 14,1 C 96 % 1012,2 hPa 0,2 l/m 12,0 km/h (2 Bft) W-SW 240 0 min 0,000 mm 0,6 UV-I 82 W/m 13,5 C 11,2 C 16,1 km/h (3 Bft) 97,87 %
19.09.2016 13:40 14,1 C 96 % 1012,2 hPa 0,0 l/m 13,3 km/h (3 Bft) SW 216 0 min 0,000 mm 0,1 UV-I 60 W/m 13,5 C 10,7 C 19,3 km/h (3 Bft) 97,87 %
19.09.2016 13:42 14,1 C 96 % 1012,2 hPa 0,0 l/m 13,2 km/h (3 Bft) W-SW 254 0 min 0,000 mm 0,0 UV-I 58 W/m 13,5 C 10,8 C 19,3 km/h (3 Bft) 96,00 %
19.09.2016 13:44 14,0 C 96 % 1012,2 hPa 0,0 l/m 11,6 km/h (2 Bft) W-SW 245 0 min 0,000 mm 0,0 UV-I 55 W/m 13,4 C 11,3 C 17,7 km/h (3 Bft) 97,87 %
19.09.2016 13:46 14,0 C 96 % 1012,2 hPa 0,2 l/m 14,9 km/h (3 Bft) W-SW 254 0 min 0,000 mm 0,0 UV-I 55 W/m 13,4 C 10,0 C 20,9 km/h (4 Bft) 95,83 %
19.09.2016 13:48 14,0 C 96 % 1012,2 hPa 0,0 l/m 12,3 km/h (3 Bft) W 270 0 min 0,000 mm 0,2 UV-I 69 W/m 13,4 C 11,0 C 17,7 km/h (3 Bft) 95,74 %
19.09.2016 13:50 14,0 C 96 % 1012,2 hPa 0,0 l/m 12,5 km/h (3 Bft) SW 231 0 min 0,000 mm 0,4 UV-I 75 W/m 13,4 C 10,9 C 19,3 km/h (3 Bft) 95,74 %
19.09.2016 13:52 14,0 C 96 % 1012,2 hPa 0,0 l/m 12,0 km/h (2 Bft) SW 229 0 min 0,000 mm 0,5 UV-I 83 W/m 13,4 C 11,1 C 20,9 km/h (4 Bft) 97,87 %
19.09.2016 13:54 14,0 C 96 % 1012,2 hPa 0,2 l/m 14,2 km/h (3 Bft) W-SW 250 0 min 0,000 mm 0,6 UV-I 97 W/m 13,4 C 10,3 C 22,5 km/h (4 Bft) 97,87 %
19.09.2016 13:56 14,0 C 96 % 1012,2 hPa 0,0 l/m 12,4 km/h (3 Bft) W-SW 248 0 min 0,000 mm 0,6 UV-I 104 W/m 13,4 C 11,0 C 16,1 km/h (3 Bft) 96,15 %
19.09.2016 13:58 14,1 C 96 % 1012,2 hPa 0,0 l/m 16,6 km/h (3 Bft) W-SW 255 0 min 0,000 mm 0,6 UV-I 109 W/m 13,5 C 9,6 C 24,1 km/h (4 Bft) 98,39 %
19.09.2016 14:00 14,1 C 96 % 1012,2 hPa 0,0 l/m 12,8 km/h (3 Bft) W-SW 257 0 min 0,050 mm 0,7 UV-I 114 W/m 13,5 C 10,9 C 22,5 km/h (4 Bft) 95,74 %
19.09.2016 14:02 14,1 C 96 % 1012,3 hPa 0,0 l/m 13,4 km/h (3 Bft) W 260 0 min 0,000 mm 0,9 UV-I 150 W/m 13,5 C 10,7 C 20,9 km/h (4 Bft) 97,87 %
19.09.2016 14:04 14,1 C 95 % 1012,2 hPa 0,0 l/m 15,6 km/h (3 Bft) W 267 0 min 0,000 mm 0,8 UV-I 135 W/m 13,3 C 9,9 C 22,5 km/h (4 Bft) 97,87 %
19.09.2016 14:06 14,2 C 95 % 1012,3 hPa 0,0 l/m 10,6 km/h (2 Bft) W-SW 239 0 min 0,000 mm 0,6 UV-I 102 W/m 13,4 C 12,0 C 16,1 km/h (3 Bft) 100,00 %
19.09.2016 14:08 14,2 C 96 % 1012,3 hPa 0,0 l/m 9,1 km/h (2 Bft) W-SW 246 0 min 0,000 mm 0,5 UV-I 99 W/m 13,6 C 12,7 C 17,7 km/h (3 Bft) 97,87 %
19.09.2016 14:10 14,2 C 95 % 1012,2 hPa 0,0 l/m 15,9 km/h (3 Bft) W-SW 257 0 min 0,000 mm 1,1 UV-I 180 W/m 13,4 C 9,9 C 22,5 km/h (4 Bft) 97,87 %
19.09.2016 14:12 14,2 C 95 % 1012,2 hPa 0,0 l/m 16,5 km/h (3 Bft) S-SW 211 0 min 0,000 mm 1,0 UV-I 174 W/m 13,4 C 9,7 C 22,5 km/h (4 Bft) 100,00 %
19.09.2016 14:14 14,2 C 95 % 1012,2 hPa 0,0 l/m 12,8 km/h (3 Bft) W-SW 253 0 min 0,000 mm 0,7 UV-I 114 W/m 13,4 C 11,0 C 20,9 km/h (4 Bft) 97,87 %
19.09.2016 14:16 14,2 C 95 % 1012,2 hPa 0,0 l/m 9,3 km/h (2 Bft) S-SW 211 0 min 0,000 mm 0,5 UV-I 80 W/m 13,4 C 12,6 C 17,7 km/h (3 Bft) 97,87 %
19.09.2016 14:18 14,2 C 95 % 1012,2 hPa 0,0 l/m 5,8 km/h (2 Bft) W-SW 249 0 min 0,000 mm 0,0 UV-I 68 W/m 13,4 C 14,2 C 9,7 km/h (2 Bft) 100,00 %
19.09.2016 14:20 14,2 C 95 % 1012,2 hPa 0,0 l/m 8,2 km/h (2 Bft) SW 224 0 min 0,000 mm 0,2 UV-I 82 W/m 13,4 C 13,2 C 19,3 km/h (3 Bft) 100,00 %
19.09.2016 14:22 14,2 C 95 % 1012,3 hPa 0,0 l/m 12,1 km/h (2 Bft) W-SW 247 0 min 0,000 mm 0,6 UV-I 104 W/m 13,4 C 11,3 C 17,7 km/h (3 Bft) 93,62 %
19.09.2016 14:24 14,2 C 96 % 1012,3 hPa 0,0 l/m 13,6 km/h (3 Bft) W-SW 246 0 min 0,000 mm 0,2 UV-I 70 W/m 13,6 C 10,7 C 19,3 km/h (3 Bft) 100,00 %
19.09.2016 14:26 14,1 C 95 % 1012,3 hPa 0,0 l/m 9,6 km/h (2 Bft) W 270 0 min 0,000 mm 0,0 UV-I 50 W/m 13,3 C 12,3 C 16,1 km/h (3 Bft) 96,00 %
19.09.2016 14:28 14,1 C 96 % 1012,3 hPa 0,0 l/m 6,7 km/h (2 Bft) W-SW 251 0 min 0,000 mm 0,0 UV-I 45 W/m 13,5 C 13,9 C 12,9 km/h (3 Bft) 95,74 %
19.09.2016 14:30 14,1 C 96 % 1012,3 hPa 0,0 l/m 9,3 km/h (2 Bft) S-SW 211 0 min 0,000 mm 0,0 UV-I 50 W/m 13,5 C 12,5 C 12,9 km/h (3 Bft) 95,74 %
19.09.2016 14:32 14,1 C 96 % 1012,3 hPa 0,0 l/m 9,2 km/h (2 Bft) W-SW 246 0 min 0,000 mm 0,0 UV-I 53 W/m 13,5 C 12,5 C 16,1 km/h (3 Bft) 97,87 %
19.09.2016 14:34 14,1 C 96 % 1012,3 hPa 0,0 l/m 14,3 km/h (3 Bft) W-SW 249 0 min 0,000 mm 0,0 UV-I 50 W/m 13,5 C 10,3 C 20,9 km/h (4 Bft) 97,87 %
19.09.2016 14:36 14,0 C 96 % 1012,3 hPa 0,0 l/m 12,0 km/h (2 Bft) W-SW 249 0 min 0,000 mm 0,0 UV-I 51 W/m 13,4 C 11,1 C 16,1 km/h (3 Bft) 100,00 %
19.09.2016 14:38 14,0 C 96 % 1012,3 hPa 0,2 l/m 13,6 km/h (3 Bft) W 259 0 min 0,000 mm 0,0 UV-I 48 W/m 13,4 C 10,5 C 19,3 km/h (3 Bft) 97,87 %
19.09.2016 14:40 13,9 C 96 % 1012,2 hPa 0,0 l/m 15,4 km/h (3 Bft) W 266 0 min 0,000 mm 0,0 UV-I 46 W/m 13,3 C 9,7 C 24,1 km/h (4 Bft) 100,00 %
19.09.2016 14:42 13,9 C 95 % 1012,3 hPa 0,0 l/m 16,2 km/h (3 Bft) W-SW 252 0 min 0,000 mm 0,0 UV-I 45 W/m 13,1 C 9,5 C 22,5 km/h (4 Bft) 100,00 %
19.09.2016 14:44 13,9 C 95 % 1012,3 hPa 0,0 l/m 12,7 km/h (3 Bft) SW 226 0 min 0,000 mm 0,0 UV-I 48 W/m 13,1 C 10,7 C 17,7 km/h (3 Bft) 100,00 %
19.09.2016 14:46 13,9 C 95 % 1012,3 hPa 0,0 l/m 13,3 km/h (3 Bft) W 265 0 min 0,000 mm 0,0 UV-I 53 W/m 13,1 C 10,5 C 19,3 km/h (3 Bft) 97,87 %
19.09.2016 14:48 13,9 C 95 % 1012,3 hPa 0,0 l/m 14,8 km/h (3 Bft) W 262 0 min 0,000 mm 0,0 UV-I 52 W/m 13,1 C 9,9 C 22,5 km/h (4 Bft) 97,87 %
19.09.2016 14:50 13,9 C 95 % 1012,3 hPa 0,0 l/m 16,2 km/h (3 Bft) W-SW 256 0 min 0,000 mm 0,0 UV-I 48 W/m 13,1 C 9,5 C 24,1 km/h (4 Bft) 97,87 %
19.09.2016 14:52 13,9 C 95 % 1012,3 hPa 0,0 l/m 13,7 km/h (3 Bft) SW 235 0 min 0,000 mm 0,0 UV-I 48 W/m 13,1 C 10,3 C 24,1 km/h (4 Bft) 100,00 %
19.09.2016 14:54 13,9 C 95 % 1012,3 hPa 0,0 l/m 10,7 km/h (2 Bft) W 278 0 min 0,000 mm 0,0 UV-I 54 W/m 13,1 C 11,6 C 16,1 km/h (3 Bft) 100,00 %
19.09.2016 14:56 13,9 C 96 % 1012,3 hPa 0,0 l/m 12,2 km/h (2 Bft) W-SW 254 0 min 0,000 mm 0,0 UV-I 60 W/m 13,3 C 10,9 C 16,1 km/h (3 Bft) 100,00 %
19.09.2016 14:58 13,9 C 96 % 1012,3 hPa 0,0 l/m 14,0 km/h (3 Bft) W-SW 256 0 min 0,000 mm 0,0 UV-I 64 W/m 13,3 C 10,2 C 19,3 km/h (3 Bft) 100,00 %
19.09.2016 15:00 13,9 C 95 % 1012,4 hPa 0,0 l/m 14,2 km/h (3 Bft) W-SW 258 0 min 0,051 mm 0,2 UV-I 73 W/m 13,1 C 10,1 C 19,3 km/h (3 Bft) 100,00 %
19.09.2016 15:02 13,9 C 95 % 1012,4 hPa 0,2 l/m 12,3 km/h (3 Bft) W 259 0 min 0,000 mm 0,3 UV-I 76 W/m 13,1 C 10,9 C 16,1 km/h (3 Bft) 100,00 %
19.09.2016 15:04 13,9 C 95 % 1012,4 hPa 0,0 l/m 12,8 km/h (3 Bft) W-SW 248 0 min 0,000 mm 0,0 UV-I 61 W/m 13,1 C 10,7 C 17,7 km/h (3 Bft) 100,00 %
19.09.2016 15:06 13,9 C 95 % 1012,5 hPa 0,0 l/m 8,8 km/h (2 Bft) W-SW 242 0 min 0,000 mm 0,0 UV-I 48 W/m 13,1 C 12,5 C 14,5 km/h (3 Bft) 97,87 %
19.09.2016 15:08 13,9 C 96 % 1012,5 hPa 0,0 l/m 8,4 km/h (2 Bft) W 270 0 min 0,000 mm 0,0 UV-I 46 W/m 13,3 C 12,7 C 12,9 km/h (3 Bft) 100,00 %
19.09.2016 15:10 13,9 C 96 % 1012,5 hPa 0,0 l/m 11,9 km/h (2 Bft) W-SW 252 0 min 0,000 mm 0,0 UV-I 43 W/m 13,3 C 11,0 C 17,7 km/h (3 Bft) 100,00 %
19.09.2016 15:12 13,9 C 95 % 1012,5 hPa 0,2 l/m 10,8 km/h (2 Bft) W-SW 238 0 min 0,000 mm 0,0 UV-I 40 W/m 13,1 C 11,5 C 17,7 km/h (3 Bft) 100,00 %
19.09.2016 15:14 13,9 C 96 % 1012,6 hPa 0,0 l/m 12,5 km/h (3 Bft) W-SW 252 0 min 0,000 mm 0,0 UV-I 43 W/m 13,3 C 10,8 C 19,3 km/h (3 Bft) 95,74 %
19.09.2016 15:16 13,9 C 96 % 1012,6 hPa 0,0 l/m 10,8 km/h (2 Bft) W 274 0 min 0,000 mm 0,0 UV-I 45 W/m 13,3 C 11,5 C 16,1 km/h (3 Bft) 95,74 %
19.09.2016 15:18 13,9 C 96 % 1012,6 hPa 0,0 l/m 11,4 km/h (2 Bft) W 266 0 min 0,000 mm 0,0 UV-I 48 W/m 13,3 C 11,3 C 16,1 km/h (3 Bft) 100,00 %
19.09.2016 15:20 13,9 C 96 % 1012,6 hPa 0,2 l/m 11,4 km/h (2 Bft) SW 236 0 min 0,000 mm 0,0 UV-I 46 W/m 13,3 C 11,3 C 17,7 km/h (3 Bft) 97,87 %
19.09.2016 15:22 13,9 C 96 % 1012,6 hPa 0,0 l/m 11,1 km/h (2 Bft) W-SW 256 0 min 0,000 mm 0,0 UV-I 30 W/m 13,3 C 11,4 C 17,7 km/h (3 Bft) 97,87 %
19.09.2016 15:24 13,8 C 96 % 1012,6 hPa 0,2 l/m 6,8 km/h (2 Bft) W-SW 248 0 min 0,000 mm 0,0 UV-I 27 W/m 13,2 C 13,6 C 11,3 km/h (2 Bft) 100,00 %
19.09.2016 15:26 13,8 C 96 % 1012,7 hPa 0,0 l/m 6,8 km/h (2 Bft) W-NW 284 0 min 0,000 mm 0,0 UV-I 31 W/m 13,2 C 13,6 C 12,9 km/h (3 Bft) 97,87 %
19.09.2016 15:28 13,8 C 96 % 1012,7 hPa 0,0 l/m 10,9 km/h (2 Bft) W 259 0 min 0,000 mm 0,0 UV-I 29 W/m 13,2 C 11,4 C 17,7 km/h (3 Bft) 97,87 %
19.09.2016 15:30 13,8 C 96 % 1012,7 hPa 0,2 l/m 7,5 km/h (2 Bft) W 261 0 min 0,000 mm 0,0 UV-I 25 W/m 13,2 C 13,1 C 14,5 km/h (3 Bft) 100,00 %
19.09.2016 15:32 13,8 C 96 % 1012,7 hPa 0,0 l/m 10,0 km/h (2 Bft) W-SW 248 0 min 0,000 mm 0,0 UV-I 27 W/m 13,2 C 11,8 C 19,3 km/h (3 Bft) 95,74 %
19.09.2016 15:34 13,8 C 96 % 1012,7 hPa 0,0 l/m 9,9 km/h (2 Bft) W-SW 250 0 min 0,000 mm 0,0 UV-I 26 W/m 13,2 C 11,8 C 16,1 km/h (3 Bft) 97,87 %
19.09.2016 15:36 13,8 C 96 % 1012,7 hPa 0,0 l/m 9,4 km/h (2 Bft) W 278 0 min 0,000 mm 0,0 UV-I 29 W/m 13,2 C 12,1 C 14,5 km/h (3 Bft) 95,92 %
19.09.2016 15:38 13,8 C 96 % 1012,7 hPa 0,0 l/m 9,5 km/h (2 Bft) W-SW 244 0 min 0,000 mm 0,0 UV-I 34 W/m 13,2 C 12,0 C 16,1 km/h (3 Bft) 95,00 %
19.09.2016 15:40 13,8 C 96 % 1012,7 hPa 0,0 l/m 10,8 km/h (2 Bft) W-SW 256 0 min 0,000 mm 0,0 UV-I 41 W/m 13,2 C 11,4 C 16,1 km/h (3 Bft) 97,92 %
19.09.2016 15:42 13,8 C 96 % 1012,7 hPa 0,0 l/m 10,3 km/h (2 Bft) W 271 0 min 0,000 mm 0,0 UV-I 29 W/m 13,2 C 11,6 C 16,1 km/h (3 Bft) 97,87 %
19.09.2016 15:44 13,8 C 96 % 1012,7 hPa 0,0 l/m 6,4 km/h (2 Bft) W-NW 290 0 min 0,000 mm 0,0 UV-I 28 W/m 13,2 C 13,8 C 11,3 km/h (2 Bft) 97,87 %
19.09.2016 15:46 13,8 C 96 % 1012,7 hPa 0,2 l/m 8,5 km/h (2 Bft) W 269 0 min 0,000 mm 0,0 UV-I 30 W/m 13,2 C 12,6 C 14,5 km/h (3 Bft) 95,74 %
19.09.2016 15:48 13,8 C 96 % 1012,8 hPa 0,0 l/m 5,9 km/h (2 Bft) W-SW 248 0 min 0,000 mm 0,0 UV-I 28 W/m 13,2 C 13,8 C 12,9 km/h (3 Bft) 97,87 %
19.09.2016 15:50 13,8 C 96 % 1012,7 hPa 0,2 l/m 5,6 km/h (1 Bft) W 269 0 min 0,000 mm 0,0 UV-I 32 W/m 13,2 C 13,8 C 9,7 km/h (2 Bft) 93,62 %
19.09.2016 15:52 13,8 C 96 % 1012,7 hPa 0,0 l/m 5,8 km/h (2 Bft) W 265 0 min 0,000 mm 0,0 UV-I 33 W/m 13,2 C 13,8 C 11,3 km/h (2 Bft) 96,00 %
19.09.2016 15:54 13,8 C 96 % 1012,8 hPa 0,4 l/m 5,5 km/h (1 Bft) SW 225 0 min 0,000 mm 0,0 UV-I 30 W/m 13,2 C 13,8 C 9,7 km/h (2 Bft) 95,74 %
19.09.2016 15:56 13,8 C 96 % 1012,8 hPa 0,2 l/m 6,6 km/h (2 Bft) W-SW 248 0 min 0,000 mm 0,0 UV-I 33 W/m 13,2 C 13,7 C 11,3 km/h (2 Bft) 97,87 %
19.09.2016 15:58 13,8 C 96 % 1012,8 hPa 0,2 l/m 8,3 km/h (2 Bft) W-NW 283 0 min 0,000 mm 0,0 UV-I 33 W/m 13,2 C 12,7 C 14,5 km/h (3 Bft) 95,74 %
19.09.2016 16:00 13,8 C 96 % 1012,8 hPa 0,2 l/m 9,1 km/h (2 Bft) W 267 0 min 0,000 mm 0,0 UV-I 34 W/m 13,2 C 12,2 C 12,9 km/h (3 Bft) 97,87 %
19.09.2016 16:02 13,8 C 96 % 1012,8 hPa 0,2 l/m 10,6 km/h (2 Bft) W-SW 251 0 min 0,026 mm 0,0 UV-I 30 W/m 13,2 C 11,5 C 20,9 km/h (4 Bft) 97,87 %
19.09.2016 16:04 13,8 C 96 % 1012,7 hPa 0,2 l/m 9,7 km/h (2 Bft) W-SW 254 0 min 0,000 mm 0,0 UV-I 28 W/m 13,2 C 11,9 C 14,5 km/h (3 Bft) 100,00 %
19.09.2016 16:06 13,8 C 96 % 1012,7 hPa 0,0 l/m 10,4 km/h (2 Bft) W-SW 257 0 min 0,000 mm 0,0 UV-I 23 W/m 13,2 C 11,6 C 14,5 km/h (3 Bft) 100,00 %
19.09.2016 16:08 13,8 C 96 % 1012,7 hPa 0,2 l/m 10,4 km/h (2 Bft) W 272 0 min 0,000 mm 0,0 UV-I 20 W/m 13,2 C 11,6 C 16,1 km/h (3 Bft) 95,74 %
19.09.2016 16:10 13,7 C 96 % 1012,8 hPa 0,0 l/m 7,5 km/h (2 Bft) W-SW 241 0 min 0,000 mm 0,0 UV-I 21 W/m 13,1 C 13,0 C 16,1 km/h (3 Bft) 100,00 %
19.09.2016 16:12 13,7 C 96 % 1012,8 hPa 0,0 l/m 7,2 km/h (2 Bft) W-SW 250 0 min 0,000 mm 0,0 UV-I 28 W/m 13,1 C 13,2 C 16,1 km/h (3 Bft) 100,00 %
19.09.2016 16:14 13,7 C 96 % 1012,8 hPa 0,2 l/m 8,5 km/h (2 Bft) W-SW 248 0 min 0,000 mm 0,0 UV-I 33 W/m 13,1 C 12,5 C 17,7 km/h (3 Bft) 100,00 %
19.09.2016 16:16 13,7 C 96 % 1012,8 hPa 0,0 l/m 8,0 km/h (2 Bft) W 259 0 min 0,000 mm 0,0 UV-I 34 W/m 13,1 C 12,7 C 14,5 km/h (3 Bft) 97,92 %
19.09.2016 16:18 13,8 C 96 % 1012,8 hPa 0,0 l/m 9,8 km/h (2 Bft) W 264 0 min 0,000 mm 0,0 UV-I 34 W/m 13,2 C 11,9 C 16,1 km/h (3 Bft) 100,00 %
19.09.2016 16:20 13,7 C 96 % 1012,8 hPa 0,0 l/m 12,1 km/h (2 Bft) W 262 0 min 0,000 mm 0,0 UV-I 36 W/m 13,1 C 10,7 C 19,3 km/h (3 Bft) 97,87 %
19.09.2016 16:22 13,7 C 96 % 1012,8 hPa 0,0 l/m 7,2 km/h (2 Bft) W-SW 250 0 min 0,000 mm 0,0 UV-I 34 W/m 13,1 C 13,2 C 12,9 km/h (3 Bft) 100,00 %
19.09.2016 16:24 13,7 C 96 % 1012,8 hPa 0,2 l/m 9,1 km/h (2 Bft) W 261 0 min 0,000 mm 0,0 UV-I 35 W/m 13,1 C 12,1 C 12,9 km/h (3 Bft) 98,00 %
19.09.2016 16:26 13,7 C 96 % 1012,8 hPa 0,0 l/m 7,4 km/h (2 Bft) SW 232 0 min 0,000 mm 0,0 UV-I 29 W/m 13,1 C 13,1 C 11,3 km/h (2 Bft) 100,00 %
19.09.2016 16:28 13,7 C 96 % 1012,8 hPa 0,0 l/m 6,4 km/h (2 Bft) W-SW 252 0 min 0,000 mm 0,0 UV-I 31 W/m 13,1 C 13,7 C 17,7 km/h (3 Bft) 100,00 %
19.09.2016 16:30 13,7 C 96 % 1012,8 hPa 0,0 l/m 10,1 km/h (2 Bft) SW 234 0 min 0,000 mm 0,0 UV-I 43 W/m 13,1 C 11,6 C 14,5 km/h (3 Bft) 97,87 %
19.09.2016 16:32 13,7 C 97 % 1012,8 hPa 0,0 l/m 11,9 km/h (2 Bft) W 267 0 min 0,000 mm 0,0 UV-I 50 W/m 13,2 C 10,8 C 19,3 km/h (3 Bft) 100,00 %
19.09.2016 16:34 13,7 C 97 % 1012,8 hPa 0,0 l/m 12,5 km/h (3 Bft) W-SW 248 0 min 0,000 mm 0,0 UV-I 47 W/m 13,2 C 10,6 C 17,7 km/h (3 Bft) 97,37 %
19.09.2016 16:36 13,8 C 96 % 1012,8 hPa 0,0 l/m 10,6 km/h (2 Bft) SW 230 0 min 0,000 mm 0,0 UV-I 36 W/m 13,2 C 11,5 C 14,5 km/h (3 Bft) 100,00 %
19.09.2016 16:38 13,8 C 96 % 1012,8 hPa 0,0 l/m 6,4 km/h (2 Bft) SW 227 0 min 0,000 mm 0,0 UV-I 32 W/m 13,2 C 13,8 C 11,3 km/h (2 Bft) 100,00 %
19.09.2016 16:40 13,8 C 96 % 1012,8 hPa 0,0 l/m 8,7 km/h (2 Bft) SW 227 0 min 0,000 mm 0,0 UV-I 30 W/m 13,2 C 12,5 C 14,5 km/h (3 Bft) 97,87 %
19.09.2016 16:42 13,8 C 96 % 1012,8 hPa 0,0 l/m 11,1 km/h (2 Bft) W-SW 243 0 min 0,000 mm 0,0 UV-I 33 W/m 13,2 C 11,3 C 16,1 km/h (3 Bft) 97,87 %
19.09.2016 16:44 13,8 C 96 % 1012,8 hPa 0,2 l/m 8,4 km/h (2 Bft) SW 236 0 min 0,000 mm 0,0 UV-I 28 W/m 13,2 C 12,6 C 12,9 km/h (3 Bft) 100,00 %
19.09.2016 16:46 13,7 C 96 % 1012,8 hPa 0,0 l/m 8,4 km/h (2 Bft) W 268 0 min 0,000 mm 0,0 UV-I 27 W/m 13,1 C 12,5 C 17,7 km/h (3 Bft) 100,00 %
19.09.2016 16:48 13,7 C 96 % 1012,8 hPa 0,0 l/m 10,5 km/h (2 Bft) W 281 0 min 0,000 mm 0,0 UV-I 25 W/m 13,1 C 11,4 C 16,1 km/h (3 Bft) 100,00 %
19.09.2016 16:50 13,7 C 96 % 1012,8 hPa 0,0 l/m 7,2 km/h (2 Bft) W-SW 254 0 min 0,000 mm 0,0 UV-I 27 W/m 13,1 C 13,2 C 12,9 km/h (3 Bft) 95,74 %
19.09.2016 16:52 13,7 C 96 % 1012,8 hPa 0,0 l/m 11,7 km/h (2 Bft) W-SW 240 0 min 0,000 mm 0,0 UV-I 29 W/m 13,1 C 10,9 C 17,7 km/h (3 Bft) 100,00 %
19.09.2016 16:54 13,7 C 96 % 1012,8 hPa 0,2 l/m 12,0 km/h (2 Bft) W-SW 248 0 min 0,000 mm 0,0 UV-I 31 W/m 13,1 C 10,8 C 24,1 km/h (4 Bft) 95,74 %
19.09.2016 16:56 13,7 C 96 % 1012,8 hPa 0,0 l/m 10,4 km/h (2 Bft) W-SW 244 0 min 0,000 mm 0,0 UV-I 26 W/m 13,1 C 11,5 C 14,5 km/h (3 Bft) 100,00 %
19.09.2016 16:58 13,7 C 96 % 1012,9 hPa 0,0 l/m 12,9 km/h (3 Bft) W-SW 252 0 min 0,000 mm 0,0 UV-I 27 W/m 13,1 C 10,4 C 22,5 km/h (4 Bft) 100,00 %
19.09.2016 17:00 13,7 C 96 % 1012,8 hPa 0,2 l/m 10,5 km/h (2 Bft) W-SW 240 0 min 0,025 mm 0,0 UV-I 29 W/m 13,1 C 11,4 C 17,7 km/h (3 Bft) 100,00 %
19.09.2016 17:02 13,7 C 96 % 1012,8 hPa 0,2 l/m 11,6 km/h (2 Bft) W 261 0 min 0,000 mm 0,0 UV-I 26 W/m 13,1 C 10,9 C 17,7 km/h (3 Bft) 97,92 %
19.09.2016 17:04 13,7 C 96 % 1012,9 hPa 0,0 l/m 10,9 km/h (2 Bft) W-SW 254 0 min 0,000 mm 0,0 UV-I 21 W/m 13,1 C 11,3 C 16,1 km/h (3 Bft) 100,00 %
19.09.2016 17:06 13,7 C 96 % 1012,8 hPa 0,0 l/m 11,1 km/h (2 Bft) W-SW 255 0 min 0,000 mm 0,0 UV-I 16 W/m 13,1 C 11,2 C 16,1 km/h (3 Bft) 100,00 %
19.09.2016 17:08 13,6 C 96 % 1012,9 hPa 0,2 l/m 8,1 km/h (2 Bft) W-NW 293 0 min 0,000 mm 0,0 UV-I 15 W/m 13,0 C 12,6 C 12,9 km/h (3 Bft) 98,00 %
19.09.2016 17:10 13,6 C 96 % 1012,9 hPa 0,0 l/m 9,7 km/h (2 Bft) W 276 0 min 0,000 mm 0,0 UV-I 14 W/m 13,0 C 11,7 C 14,5 km/h (3 Bft) 100,00 %
19.09.2016 17:12 13,6 C 96 % 1012,8 hPa 0,0 l/m 11,4 km/h (2 Bft) W 259 0 min 0,000 mm 0,0 UV-I 15 W/m 13,0 C 10,9 C 16,1 km/h (3 Bft) 100,00 %
19.09.2016 17:14 13,6 C 96 % 1012,9 hPa 0,0 l/m 8,6 km/h (2 Bft) W-SW 251 0 min 0,000 mm 0,0 UV-I 15 W/m 13,0 C 12,3 C 16,1 km/h (3 Bft) 100,00 %
19.09.2016 17:16 13,6 C 96 % 1012,9 hPa 0,0 l/m 13,0 km/h (3 Bft) W-SW 238 0 min 0,000 mm 0,0 UV-I 18 W/m 13,0 C 10,2 C 17,7 km/h (3 Bft) 100,00 %
19.09.2016 17:18 13,6 C 96 % 1012,9 hPa 0,0 l/m 11,5 km/h (2 Bft) SW 229 0 min 0,000 mm 0,0 UV-I 19 W/m 13,0 C 10,9 C 17,7 km/h (3 Bft) 97,87 %
19.09.2016 17:20 13,6 C 96 % 1012,9 hPa 0,0 l/m 9,1 km/h (2 Bft) W-NW 286 0 min 0,000 mm 0,0 UV-I 19 W/m 13,0 C 12,0 C 16,1 km/h (3 Bft) 100,00 %
19.09.2016 17:22 13,6 C 96 % 1012,9 hPa 0,0 l/m 9,0 km/h (2 Bft) W-SW 252 0 min 0,000 mm 0,0 UV-I 19 W/m 13,0 C 12,1 C 16,1 km/h (3 Bft) 100,00 %
19.09.2016 17:24 13,6 C 96 % 1012,9 hPa 0,0 l/m 10,6 km/h (2 Bft) W-SW 250 0 min 0,000 mm 0,0 UV-I 18 W/m 13,0 C 11,3 C 14,5 km/h (3 Bft) 100,00 %
19.09.2016 17:26 13,6 C 96 % 1012,9 hPa 0,0 l/m 11,7 km/h (2 Bft) W-SW 248 0 min 0,000 mm 0,0 UV-I 16 W/m 13,0 C 10,8 C 19,3 km/h (3 Bft) 100,00 %
19.09.2016 17:28 13,6 C 96 % 1013,0 hPa 0,0 l/m 8,4 km/h (2 Bft) W-SW 254 0 min 0,000 mm 0,0 UV-I 14 W/m 13,0 C 12,4 C 16,1 km/h (3 Bft) 97,87 %
19.09.2016 17:30 13,6 C 96 % 1013,0 hPa 0,0 l/m 10,2 km/h (2 Bft) W 259 0 min 0,000 mm 0,0 UV-I 11 W/m 13,0 C 11,5 C 16,1 km/h (3 Bft) 100,00 %
19.09.2016 17:32 13,6 C 96 % 1012,9 hPa 0,0 l/m 7,3 km/h (2 Bft) W 259 0 min 0,000 mm 0,0 UV-I 11 W/m 13,0 C 13,0 C 14,5 km/h (3 Bft) 97,87 %
19.09.2016 17:34 13,6 C 96 % 1012,9 hPa 0,0 l/m 11,4 km/h (2 Bft) W-SW 243 0 min 0,000 mm 0,0 UV-I 12 W/m 13,0 C 10,9 C 17,7 km/h (3 Bft) 95,74 %
19.09.2016 17:36 13,6 C 96 % 1012,9 hPa 0,0 l/m 8,9 km/h (2 Bft) W-SW 252 0 min 0,000 mm 0,0 UV-I 13 W/m 13,0 C 12,1 C 16,1 km/h (3 Bft) 97,92 %
19.09.2016 17:38 13,5 C 96 % 1012,9 hPa 0,2 l/m 9,8 km/h (2 Bft) W 273 0 min 0,000 mm 0,0 UV-I 14 W/m 12,9 C 11,6 C 14,5 km/h (3 Bft) 97,87 %
19.09.2016 17:40 13,5 C 96 % 1012,9 hPa 0,0 l/m 10,1 km/h (2 Bft) W 259 0 min 0,000 mm 0,0 UV-I 13 W/m 12,9 C 11,4 C 17,7 km/h (3 Bft) 97,87 %
19.09.2016 17:42 13,5 C 96 % 1012,9 hPa 0,0 l/m 10,2 km/h (2 Bft) SW 236 0 min 0,000 mm 0,0 UV-I 11 W/m 12,9 C 11,4 C 19,3 km/h (3 Bft) 97,87 %
19.09.2016 17:44 13,6 C 96 % 1012,9 hPa 0,0 l/m 11,4 km/h (2 Bft) SW 236 0 min 0,000 mm 0,0 UV-I 11 W/m 13,0 C 10,9 C 17,7 km/h (3 Bft) 97,87 %
19.09.2016 17:46 13,6 C 96 % 1012,9 hPa 0,0 l/m 12,3 km/h (3 Bft) W 259 0 min 0,000 mm 0,0 UV-I 11 W/m 13,0 C 10,5 C 19,3 km/h (3 Bft) 98,00 %
19.09.2016 17:48 13,6 C 96 % 1012,9 hPa 0,0 l/m 10,7 km/h (2 Bft) W-SW 245 0 min 0,000 mm 0,0 UV-I 8 W/m 13,0 C 11,2 C 17,7 km/h (3 Bft) 97,37 %
19.09.2016 17:50 13,5 C 96 % 1013,0 hPa 0,0 l/m 10,0 km/h (2 Bft) W 272 0 min 0,000 mm 0,0 UV-I 7 W/m 12,9 C 11,5 C 14,5 km/h (3 Bft) 95,74 %
19.09.2016 17:52 13,5 C 96 % 1012,9 hPa 0,0 l/m 12,6 km/h (3 Bft) W-SW 252 0 min 0,000 mm 0,0 UV-I 7 W/m 12,9 C 10,3 C 19,3 km/h (3 Bft) 94,00 %
19.09.2016 17:54 13,6 C 96 % 1012,9 hPa 0,0 l/m 15,8 km/h (3 Bft) W-SW 249 0 min 0,000 mm 0,0 UV-I 9 W/m 13,0 C 9,2 C 27,4 km/h (4 Bft) 98,00 %
19.09.2016 17:56 13,5 C 96 % 1013,0 hPa 0,0 l/m 14,4 km/h (3 Bft) W-SW 253 0 min 0,000 mm 0,0 UV-I 9 W/m 12,9 C 9,6 C 24,1 km/h (4 Bft) 97,87 %
19.09.2016 17:58 13,5 C 96 % 1012,9 hPa 0,0 l/m 11,6 km/h (2 Bft) W 265 0 min 0,000 mm 0,0 UV-I 9 W/m 12,9 C 10,7 C 22,5 km/h (4 Bft) 96,00 %
19.09.2016 18:00 13,4 C 96 % 1013,0 hPa 0,0 l/m 12,2 km/h (2 Bft) W-SW 247 0 min 0,000 mm 0,0 UV-I 9 W/m 12,8 C 10,3 C 22,5 km/h (4 Bft) 95,74 %
19.09.2016 18:02 13,4 C 96 % 1012,9 hPa 0,0 l/m 12,5 km/h (3 Bft) W-SW 242 0 min 0,000 mm 0,0 UV-I 7 W/m 12,8 C 10,2 C 22,5 km/h (4 Bft) 97,87 %
19.09.2016 18:04 13,4 C 96 % 1012,9 hPa 0,0 l/m 15,7 km/h (3 Bft) SW 227 0 min 0,000 mm 0,0 UV-I 7 W/m 12,8 C 9,0 C 19,3 km/h (3 Bft) 100,00 %
19.09.2016 18:06 13,4 C 96 % 1013,0 hPa 0,0 l/m 9,6 km/h (2 Bft) W-SW 238 0 min 0,000 mm 0,0 UV-I 7 W/m 12,8 C 11,6 C 16,1 km/h (3 Bft) 100,00 %
19.09.2016 18:08 13,4 C 96 % 1013,0 hPa 0,0 l/m 10,8 km/h (2 Bft) W-SW 257 0 min 0,000 mm 0,0 UV-I 5 W/m 12,8 C 11,0 C 17,7 km/h (3 Bft) 100,00 %
19.09.2016 18:10 13,4 C 96 % 1013,0 hPa 0,0 l/m 8,8 km/h (2 Bft) W-SW 255 0 min 0,000 mm 0,0 UV-I 4 W/m 12,8 C 12,0 C 16,1 km/h (3 Bft) 100,00 %
19.09.2016 18:12 13,4 C 96 % 1013,0 hPa 0,0 l/m 10,0 km/h (2 Bft) W-NW 290 0 min 0,000 mm 0,0 UV-I 0 W/m 12,8 C 11,4 C 17,7 km/h (3 Bft) 100,00 %
19.09.2016 18:14 13,4 C 96 % 1013,0 hPa 0,0 l/m 10,1 km/h (2 Bft) W-SW 254 0 min 0,000 mm 0,0 UV-I 0 W/m 12,8 C 11,3 C 19,3 km/h (3 Bft) 100,00 %
19.09.2016 18:16 13,4 C 96 % 1013,0 hPa 0,0 l/m 11,6 km/h (2 Bft) W 263 0 min 0,000 mm 0,0 UV-I 0 W/m 12,8 C 10,6 C 16,1 km/h (3 Bft) 100,00 %
19.09.2016 18:18 13,3 C 96 % 1013,0 hPa 0,0 l/m 11,8 km/h (2 Bft) W-SW 255 0 min 0,000 mm 0,0 UV-I 0 W/m 12,7 C 10,4 C 24,1 km/h (4 Bft) 100,00 %
19.09.2016 18:20 13,3 C 96 % 1013,0 hPa 0,0 l/m 14,7 km/h (3 Bft) W-SW 245 0 min 0,000 mm 0,0 UV-I 0 W/m 12,7 C 9,2 C 20,9 km/h (4 Bft) 100,00 %
19.09.2016 18:22 13,3 C 96 % 1013,1 hPa 0,0 l/m 10,4 km/h (2 Bft) W-SW 241 0 min 0,000 mm 0,0 UV-I 0 W/m 12,7 C 11,0 C 16,1 km/h (3 Bft) 98,11 %
19.09.2016 18:24 13,3 C 96 % 1013,2 hPa 0,0 l/m 9,1 km/h (2 Bft) SW 234 0 min 0,000 mm 0,0 UV-I 0 W/m 12,7 C 11,7 C 16,1 km/h (3 Bft) 100,00 %
19.09.2016 18:26 13,3 C 96 % 1013,1 hPa 0,0 l/m 11,8 km/h (2 Bft) W-SW 243 0 min 0,000 mm 0,0 UV-I 0 W/m 12,7 C 10,4 C 20,9 km/h (4 Bft) 97,87 %
19.09.2016 18:28 13,3 C 96 % 1013,1 hPa 0,0 l/m 10,4 km/h (2 Bft) S-SO 157 0 min 0,000 mm 0,0 UV-I 0 W/m 12,7 C 11,0 C 20,9 km/h (4 Bft) 100,00 %
19.09.2016 18:30 13,3 C 96 % 1013,1 hPa 0,0 l/m 12,7 km/h (3 Bft) W-SW 248 0 min 0,000 mm 0,0 UV-I 0 W/m 12,7 C 10,0 C 17,7 km/h (3 Bft) 100,00 %
19.09.2016 18:32 13,3 C 96 % 1013,2 hPa 0,0 l/m 13,4 km/h (3 Bft) W-SW 238 0 min 0,000 mm 0,0 UV-I 0 W/m 12,7 C 9,7 C 22,5 km/h (4 Bft) 100,00 %
19.09.2016 18:34 13,3 C 96 % 1013,2 hPa 0,0 l/m 10,1 km/h (2 Bft) W-SW 248 0 min 0,000 mm 0,0 UV-I 0 W/m 12,7 C 11,2 C 17,7 km/h (3 Bft) 98,11 %
19.09.2016 18:36 13,3 C 96 % 1013,3 hPa 0,0 l/m 17,1 km/h (3 Bft) W-SW 250 0 min 0,000 mm 0,0 UV-I 0 W/m 12,7 C 8,4 C 24,1 km/h (4 Bft) 95,74 %
19.09.2016 18:38 13,3 C 96 % 1013,3 hPa 0,0 l/m 10,4 km/h (2 Bft) W-NW 292 0 min 0,000 mm 0,0 UV-I 3 W/m 12,7 C 11,0 C 14,5 km/h (3 Bft) 100,00 %
19.09.2016 18:40 13,3 C 96 % 1013,3 hPa 0,2 l/m 13,0 km/h (3 Bft) W-SW 248 0 min 0,000 mm 0,0 UV-I 5 W/m 12,7 C 9,9 C 17,7 km/h (3 Bft) 97,87 %
19.09.2016 18:42 13,3 C 96 % 1013,3 hPa 0,0 l/m 13,0 km/h (3 Bft) W-SW 257 0 min 0,000 mm 0,0 UV-I 5 W/m 12,7 C 9,9 C 19,3 km/h (3 Bft) 95,74 %
19.09.2016 18:44 13,2 C 96 % 1013,3 hPa 0,2 l/m 9,9 km/h (2 Bft) W-SW 252 0 min 0,000 mm 0,0 UV-I 5 W/m 12,6 C 11,2 C 14,5 km/h (3 Bft) 100,00 %
19.09.2016 18:46 13,2 C 96 % 1013,3 hPa 0,0 l/m 13,0 km/h (3 Bft) W-SW 251 0 min 0,000 mm 0,0 UV-I 5 W/m 12,6 C 9,8 C 24,1 km/h (4 Bft) 97,87 %
19.09.2016 18:48 13,2 C 96 % 1013,3 hPa 0,0 l/m 12,8 km/h (3 Bft) SW 236 0 min 0,000 mm 0,0 UV-I 5 W/m 12,6 C 9,9 C 17,7 km/h (3 Bft) 100,00 %
19.09.2016 18:50 13,2 C 96 % 1013,2 hPa 0,4 l/m 13,5 km/h (3 Bft) SW 224 0 min 0,000 mm 0,0 UV-I 5 W/m 12,6 C 9,6 C 20,9 km/h (4 Bft) 97,87 %
19.09.2016 18:52 13,2 C 96 % 1013,2 hPa 0,0 l/m 11,4 km/h (2 Bft) W-SW 248 0 min 0,000 mm 0,0 UV-I 5 W/m 12,6 C 10,5 C 16,1 km/h (3 Bft) 97,87 %
19.09.2016 18:54 13,2 C 96 % 1013,2 hPa 0,4 l/m 11,5 km/h (2 Bft) W-SW 257 0 min 0,000 mm 0,0 UV-I 5 W/m 12,6 C 10,4 C 19,3 km/h (3 Bft) 100,00 %
19.09.2016 18:56 13,2 C 96 % 1013,2 hPa 0,2 l/m 11,9 km/h (2 Bft) W-SW 248 0 min 0,000 mm 0,0 UV-I 0 W/m 12,6 C 10,2 C 19,3 km/h (3 Bft) 97,92 %
19.09.2016 18:58 13,2 C 96 % 1013,3 hPa 0,2 l/m 16,8 km/h (3 Bft) SW 225 0 min 0,000 mm 0,0 UV-I 0 W/m 12,6 C 8,4 C 24,1 km/h (4 Bft) 97,87 %
19.09.2016 19:00 13,2 C 96 % 1013,3 hPa 0,2 l/m 13,4 km/h (3 Bft) W-SW 254 0 min 0,000 mm 0,0 UV-I 0 W/m 12,6 C 9,6 C 27,4 km/h (4 Bft) 97,87 %
19.09.2016 19:02 13,2 C 96 % 1013,3 hPa 0,2 l/m 15,6 km/h (3 Bft) W 267 0 min 0,000 mm 0,0 UV-I 0 W/m 12,6 C 8,8 C 20,9 km/h (4 Bft) 97,87 %
19.09.2016 19:04 13,2 C 96 % 1013,3 hPa 0,0 l/m 11,3 km/h (2 Bft) W-SW 252 0 min 0,000 mm 0,0 UV-I 0 W/m 12,6 C 10,5 C 22,5 km/h (4 Bft) 100,00 %
19.09.2016 19:06 13,2 C 96 % 1013,3 hPa 0,2 l/m 13,6 km/h (3 Bft) W-SW 248 0 min 0,000 mm 0,0 UV-I 0 W/m 12,6 C 9,5 C 22,5 km/h (4 Bft) 95,74 %
19.09.2016 19:08 13,1 C 96 % 1013,4 hPa 0,2 l/m 13,6 km/h (3 Bft) W-SW 256 0 min 0,000 mm 0,0 UV-I 0 W/m 12,5 C 9,4 C 22,5 km/h (4 Bft) 98,00 %
19.09.2016 19:10 13,1 C 96 % 1013,4 hPa 0,2 l/m 15,3 km/h (3 Bft) W-SW 252 0 min 0,000 mm 0,0 UV-I 0 W/m 12,5 C 8,8 C 25,7 km/h (4 Bft) 97,87 %
19.09.2016 19:12 13,1 C 96 % 1013,4 hPa 0,4 l/m 13,6 km/h (3 Bft) W 277 0 min 0,000 mm 0,0 UV-I 0 W/m 12,5 C 9,4 C 20,9 km/h (4 Bft) 100,00 %
19.09.2016 19:14 13,1 C 96 % 1013,4 hPa 0,4 l/m 11,9 km/h (2 Bft) W-SW 248 0 min 0,000 mm 0,0 UV-I 0 W/m 12,5 C 10,1 C 20,9 km/h (4 Bft) 100,00 %
19.09.2016 19:16 13,1 C 96 % 1013,4 hPa 0,6 l/m 16,0 km/h (3 Bft) SW 236 0 min 0,000 mm 0,0 UV-I 0 W/m 12,5 C 8,5 C 25,7 km/h (4 Bft) 100,00 %
19.09.2016 19:18 13,1 C 96 % 1013,5 hPa 0,6 l/m 14,3 km/h (3 Bft) W-SW 250 0 min 0,000 mm 0,0 UV-I 0 W/m 12,5 C 9,1 C 27,4 km/h (4 Bft) 100,00 %
19.09.2016 19:20 13,1 C 96 % 1013,4 hPa 0,4 l/m 16,3 km/h (3 Bft) SW 222 0 min 0,000 mm 0,0 UV-I 0 W/m 12,5 C 8,4 C 20,9 km/h (4 Bft) 100,00 %
19.09.2016 19:22 13,1 C 96 % 1013,4 hPa 0,2 l/m 15,2 km/h (3 Bft) W-SW 257 0 min 0,000 mm 0,0 UV-I 0 W/m 12,5 C 8,8 C 20,9 km/h (4 Bft) 100,00 %
19.09.2016 19:24 13,1 C 96 % 1013,4 hPa 0,2 l/m 14,5 km/h (3 Bft) W 273 0 min 0,000 mm 0,0 UV-I 0 W/m 12,5 C 9,1 C 20,9 km/h (4 Bft) 97,87 %
19.09.2016 19:26 13,1 C 96 % 1013,4 hPa 0,2 l/m 15,2 km/h (3 Bft) W-SW 250 0 min 0,000 mm 0,0 UV-I 0 W/m 12,5 C 8,8 C 27,4 km/h (4 Bft) 97,87 %
19.09.2016 19:28 13,0 C 96 % 1013,5 hPa 0,2 l/m 14,9 km/h (3 Bft) W 262 0 min 0,000 mm 0,0 UV-I 0 W/m 12,4 C 8,8 C 24,1 km/h (4 Bft) 100,00 %
19.09.2016 19:30 13,0 C 96 % 1013,4 hPa 0,0 l/m 16,9 km/h (3 Bft) W-SW 255 0 min 0,000 mm 0,0 UV-I 0 W/m 12,4 C 8,1 C 24,1 km/h (4 Bft) 100,00 %
19.09.2016 19:32 13,0 C 96 % 1013,5 hPa 0,2 l/m 15,1 km/h (3 Bft) W 276 0 min 0,000 mm 0,0 UV-I 0 W/m 12,4 C 8,7 C 22,5 km/h (4 Bft) 98,11 %
19.09.2016 19:34 13,0 C 96 % 1013,5 hPa 0,0 l/m 13,5 km/h (3 Bft) W 265 0 min 0,000 mm 0,0 UV-I 0 W/m 12,4 C 9,3 C 20,9 km/h (4 Bft) 95,74 %
19.09.2016 19:36 13,0 C 97 % 1013,5 hPa 0,2 l/m 15,4 km/h (3 Bft) W 262 0 min 0,000 mm 0,0 UV-I 0 W/m 12,5 C 8,6 C 22,5 km/h (4 Bft) 97,87 %
19.09.2016 19:38 13,0 C 96 % 1013,5 hPa 0,0 l/m 15,2 km/h (3 Bft) SW 223 0 min 0,000 mm 0,0 UV-I 0 W/m 12,4 C 8,7 C 25,7 km/h (4 Bft) 97,22 %
19.09.2016 19:40 13,0 C 97 % 1013,5 hPa 0,0 l/m 13,3 km/h (3 Bft) W-SW 237 0 min 0,000 mm 0,0 UV-I 0 W/m 12,5 C 9,4 C 22,5 km/h (4 Bft) 97,96 %
19.09.2016 19:42 13,0 C 97 % 1013,5 hPa 0,2 l/m 14,0 km/h (3 Bft) W 268 0 min 0,000 mm 0,0 UV-I 0 W/m 12,5 C 9,1 C 24,1 km/h (4 Bft) 95,74 %
19.09.2016 19:44 13,0 C 97 % 1013,6 hPa 0,0 l/m 8,9 km/h (2 Bft) W-SW 258 0 min 0,000 mm 0,0 UV-I 0 W/m 12,5 C 11,5 C 14,5 km/h (3 Bft) 97,87 %
19.09.2016 19:46 13,0 C 97 % 1013,6 hPa 0,0 l/m 9,8 km/h (2 Bft) W 275 0 min 0,000 mm 0,0 UV-I 0 W/m 12,5 C 11,0 C 14,5 km/h (3 Bft) 98,00 %
19.09.2016 19:48 13,1 C 97 % 1013,6 hPa 0,0 l/m 11,8 km/h (2 Bft) S-SW 196 0 min 0,000 mm 0,0 UV-I 0 W/m 12,6 C 10,2 C 16,1 km/h (3 Bft) 95,74 %
19.09.2016 19:50 13,1 C 97 % 1013,7 hPa 0,0 l/m 9,0 km/h (2 Bft) S 190 0 min 0,000 mm 0,0 UV-I 0 W/m 12,6 C 11,5 C 14,5 km/h (3 Bft) 96,00 %
19.09.2016 19:52 13,1 C 97 % 1013,6 hPa 0,0 l/m 15,0 km/h (3 Bft) W-SW 244 0 min 0,000 mm 0,0 UV-I 0 W/m 12,6 C 8,9 C 22,5 km/h (4 Bft) 95,74 %
19.09.2016 19:54 13,1 C 97 % 1013,7 hPa 0,0 l/m 10,1 km/h (2 Bft) W-SW 250 0 min 0,000 mm 0,0 UV-I 0 W/m 12,6 C 11,0 C 16,1 km/h (3 Bft) 95,74 %
19.09.2016 19:56 13,1 C 97 % 1013,7 hPa 0,0 l/m 11,2 km/h (2 Bft) SW 234 0 min 0,000 mm 0,0 UV-I 0 W/m 12,6 C 10,4 C 16,1 km/h (3 Bft) 95,74 %
19.09.2016 19:58 13,1 C 97 % 1013,8 hPa 0,0 l/m 11,7 km/h (2 Bft) W-SW 248 0 min 0,000 mm 0,0 UV-I 0 W/m 12,6 C 10,2 C 16,1 km/h (3 Bft) 95,74 %
19.09.2016 20:00 13,1 C 96 % 1013,7 hPa 0,0 l/m 13,2 km/h (3 Bft) W-SW 257 0 min 0,000 mm 0,0 UV-I 0 W/m 12,5 C 9,6 C 19,3 km/h (3 Bft) 97,37 %
19.09.2016 20:02 13,0 C 96 % 1013,8 hPa 0,2 l/m 12,7 km/h (3 Bft) W 267 0 min 0,000 mm 0,0 UV-I 0 W/m 12,4 C 9,7 C 19,3 km/h (3 Bft) 98,00 %
19.09.2016 20:04 13,0 C 96 % 1013,8 hPa 0,0 l/m 14,9 km/h (3 Bft) W-SW 254 0 min 0,000 mm 0,0 UV-I 0 W/m 12,4 C 8,8 C 20,9 km/h (4 Bft) 95,74 %
19.09.2016 20:06 13,0 C 96 % 1013,8 hPa 0,0 l/m 12,6 km/h (3 Bft) W-SW 251 0 min 0,000 mm 0,0 UV-I 0 W/m 12,4 C 9,7 C 17,7 km/h (3 Bft) 100,00 %
19.09.2016 20:08 13,0 C 96 % 1013,9 hPa 0,2 l/m 14,5 km/h (3 Bft) W 263 0 min 0,000 mm 0,0 UV-I 0 W/m 12,4 C 9,0 C 20,9 km/h (4 Bft) 100,00 %
19.09.2016 20:10 13,0 C 96 % 1013,8 hPa 0,0 l/m 11,5 km/h (2 Bft) W 259 0 min 0,000 mm 0,0 UV-I 0 W/m 12,4 C 10,2 C 19,3 km/h (3 Bft) 100,00 %
19.09.2016 20:12 13,0 C 96 % 1013,9 hPa 0,0 l/m 13,1 km/h (3 Bft) W-SW 251 0 min 0,000 mm 0,0 UV-I 0 W/m 12,4 C 9,5 C 20,9 km/h (4 Bft) 100,00 %
19.09.2016 20:14 13,0 C 96 % 1013,9 hPa 0,2 l/m 12,7 km/h (3 Bft) W-SW 248 0 min 0,000 mm 0,0 UV-I 0 W/m 12,4 C 9,7 C 17,7 km/h (3 Bft) 95,83 %
19.09.2016 20:16 13,0 C 96 % 1013,9 hPa 0,2 l/m 11,7 km/h (2 Bft) W-SW 239 0 min 0,000 mm 0,0 UV-I 0 W/m 12,4 C 10,1 C 17,7 km/h (3 Bft) 100,00 %
19.09.2016 20:18 13,0 C 96 % 1014,0 hPa 0,4 l/m 11,3 km/h (2 Bft) W-SW 240 0 min 0,000 mm 0,0 UV-I 0 W/m 12,4 C 10,3 C 16,1 km/h (3 Bft) 100,00 %
19.09.2016 20:20 13,0 C 96 % 1013,9 hPa 0,8 l/m 14,2 km/h (3 Bft) W-SW 239 0 min 0,000 mm 0,0 UV-I 0 W/m 12,4 C 9,1 C 24,1 km/h (4 Bft) 100,00 %
19.09.2016 20:22 13,0 C 96 % 1013,9 hPa 0,6 l/m 17,0 km/h (3 Bft) W-SW 254 0 min 0,000 mm 0,0 UV-I 0 W/m 12,4 C 8,1 C 25,7 km/h (4 Bft) 100,00 %
19.09.2016 20:24 12,9 C 96 % 1013,9 hPa 0,4 l/m 11,5 km/h (2 Bft) SW 236 0 min 0,000 mm 0,0 UV-I 0 W/m 12,3 C 10,1 C 17,7 km/h (3 Bft) 100,00 %
19.09.2016 20:26 12,9 C 96 % 1013,9 hPa 0,2 l/m 14,6 km/h (3 Bft) W 265 0 min 0,000 mm 0,0 UV-I 0 W/m 12,3 C 8,8 C 19,3 km/h (3 Bft) 100,00 %
19.09.2016 20:28 12,9 C 96 % 1013,9 hPa 0,0 l/m 12,1 km/h (2 Bft) W 268 0 min 0,000 mm 0,0 UV-I 0 W/m 12,3 C 9,8 C 19,3 km/h (3 Bft) 100,00 %
19.09.2016 20:30 12,9 C 96 % 1014,0 hPa 0,4 l/m 13,4 km/h (3 Bft) SW 222 0 min 0,000 mm 0,0 UV-I 0 W/m 12,3 C 9,3 C 22,5 km/h (4 Bft) 100,00 %
19.09.2016 20:32 12,9 C 96 % 1014,0 hPa 0,2 l/m 12,9 km/h (3 Bft) W-SW 242 0 min 0,000 mm 0,0 UV-I 0 W/m 12,3 C 9,5 C 20,9 km/h (4 Bft) 100,00 %
19.09.2016 20:34 12,9 C 96 % 1014,0 hPa 0,2 l/m 13,6 km/h (3 Bft) W-SW 242 0 min 0,000 mm 0,0 UV-I 0 W/m 12,3 C 9,2 C 20,9 km/h (4 Bft) 97,87 %
19.09.2016 20:36 12,9 C 96 % 1014,0 hPa 0,2 l/m 10,9 km/h (2 Bft) W-SW 242 0 min 0,000 mm 0,0 UV-I 0 W/m 12,3 C 10,4 C 17,7 km/h (3 Bft) 98,00 %
19.09.2016 20:38 12,9 C 97 % 1014,0 hPa 0,2 l/m 9,7 km/h (2 Bft) W-SW 237 0 min 0,000 mm 0,0 UV-I 0 W/m 12,4 C 11,0 C 17,7 km/h (3 Bft) 100,00 %
19.09.2016 20:40 12,9 C 97 % 1014,1 hPa 0,0 l/m 12,3 km/h (3 Bft) W-SW 254 0 min 0,000 mm 0,0 UV-I 0 W/m 12,4 C 9,7 C 17,7 km/h (3 Bft) 100,00 %
19.09.2016 20:42 12,9 C 97 % 1014,1 hPa 0,2 l/m 12,5 km/h (3 Bft) W 267 0 min 0,000 mm 0,0 UV-I 0 W/m 12,4 C 9,6 C 19,3 km/h (3 Bft) 97,87 %
19.09.2016 20:44 12,9 C 97 % 1014,1 hPa 0,0 l/m 10,6 km/h (2 Bft) W-SW 256 0 min 0,000 mm 0,0 UV-I 0 W/m 12,4 C 10,5 C 16,1 km/h (3 Bft) 100,00 %
19.09.2016 20:46 12,9 C 97 % 1014,1 hPa 0,0 l/m 10,8 km/h (2 Bft) SW 236 0 min 0,000 mm 0,0 UV-I 0 W/m 12,4 C 10,4 C 14,5 km/h (3 Bft) 100,00 %
19.09.2016 20:48 12,9 C 97 % 1014,1 hPa 0,0 l/m 11,4 km/h (2 Bft) SW 229 0 min 0,000 mm 0,0 UV-I 0 W/m 12,4 C 10,1 C 16,1 km/h (3 Bft) 97,87 %
19.09.2016 20:50 12,9 C 97 % 1014,1 hPa 0,2 l/m 9,7 km/h (2 Bft) W-SW 252 0 min 0,000 mm 0,0 UV-I 0 W/m 12,4 C 11,0 C 16,1 km/h (3 Bft) 100,00 %
19.09.2016 20:52 12,9 C 97 % 1014,1 hPa 0,0 l/m 13,1 km/h (3 Bft) W-SW 249 0 min 0,000 mm 0,0 UV-I 0 W/m 12,4 C 9,4 C 24,1 km/h (4 Bft) 100,00 %
19.09.2016 20:54 12,9 C 97 % 1014,1 hPa 0,0 l/m 12,4 km/h (3 Bft) W-SW 247 0 min 0,000 mm 0,0 UV-I 0 W/m 12,4 C 9,7 C 19,3 km/h (3 Bft) 100,00 %
19.09.2016 20:56 12,9 C 97 % 1014,2 hPa 0,0 l/m 10,0 km/h (2 Bft) W-SW 242 0 min 0,000 mm 0,0 UV-I 0 W/m 12,4 C 10,8 C 17,7 km/h (3 Bft) 100,00 %
19.09.2016 20:58 12,9 C 97 % 1014,1 hPa 0,0 l/m 10,0 km/h (2 Bft) NW 311 0 min 0,000 mm 0,0 UV-I 0 W/m 12,4 C 10,8 C 12,9 km/h (3 Bft) 100,00 %
19.09.2016 21:00 12,9 C 97 % 1014,2 hPa 0,2 l/m 11,9 km/h (2 Bft) W-SW 256 0 min 0,000 mm 0,0 UV-I 0 W/m 12,4 C 9,9 C 20,9 km/h (4 Bft) 97,87 %
19.09.2016 21:02 12,9 C 97 % 1014,2 hPa 0,0 l/m 10,7 km/h (2 Bft) W-SW 238 0 min 0,000 mm 0,0 UV-I 0 W/m 12,4 C 10,5 C 17,7 km/h (3 Bft) 100,00 %
19.09.2016 21:04 12,9 C 97 % 1014,2 hPa 0,2 l/m 13,6 km/h (3 Bft) W-SW 246 0 min 0,000 mm 0,0 UV-I 0 W/m 12,4 C 9,2 C 24,1 km/h (4 Bft) 97,87 %
19.09.2016 21:06 12,9 C 97 % 1014,2 hPa 0,0 l/m 10,7 km/h (2 Bft) SW 233 0 min 0,000 mm 0,0 UV-I 0 W/m 12,4 C 10,5 C 19,3 km/h (3 Bft) 100,00 %
19.09.2016 21:08 12,9 C 97 % 1014,2 hPa 0,0 l/m 11,3 km/h (2 Bft) S-SW 205 0 min 0,000 mm 0,0 UV-I 0 W/m 12,4 C 10,2 C 20,9 km/h (4 Bft) 97,87 %
19.09.2016 21:10 12,9 C 97 % 1014,2 hPa 0,0 l/m 13,2 km/h (3 Bft) W 263 0 min 0,000 mm 0,0 UV-I 0 W/m 12,4 C 9,3 C 19,3 km/h (3 Bft) 100,00 %
19.09.2016 21:12 12,8 C 97 % 1014,2 hPa 0,2 l/m 9,6 km/h (2 Bft) W 265 0 min 0,000 mm 0,0 UV-I 0 W/m 12,3 C 10,9 C 14,5 km/h (3 Bft) 100,00 %
19.09.2016 21:14 12,9 C 97 % 1014,2 hPa 0,0 l/m 14,4 km/h (3 Bft) W-NW 298 0 min 0,000 mm 0,0 UV-I 0 W/m 12,4 C 8,9 C 22,5 km/h (4 Bft) 100,00 %
19.09.2016 21:16 12,8 C 97 % 1014,2 hPa 0,0 l/m 9,7 km/h (2 Bft) SW 217 0 min 0,000 mm 0,0 UV-I 0 W/m 12,3 C 10,8 C 12,9 km/h (3 Bft) 100,00 %
19.09.2016 21:18 12,8 C 97 % 1014,2 hPa 0,2 l/m 13,1 km/h (3 Bft) W-SW 254 0 min 0,000 mm 0,0 UV-I 0 W/m 12,3 C 9,3 C 19,3 km/h (3 Bft) 100,00 %
19.09.2016 21:20 12,8 C 97 % 1014,2 hPa 0,0 l/m 12,6 km/h (3 Bft) W-SW 242 0 min 0,000 mm 0,0 UV-I 0 W/m 12,3 C 9,5 C 17,7 km/h (3 Bft) 100,00 %
19.09.2016 21:22 12,8 C 97 % 1014,2 hPa 0,2 l/m 12,4 km/h (3 Bft) W-SW 240 0 min 0,000 mm 0,0 UV-I 0 W/m 12,3 C 9,6 C 17,7 km/h (3 Bft) 100,00 %
19.09.2016 21:24 12,8 C 97 % 1014,2 hPa 0,2 l/m 15,3 km/h (3 Bft) W 277 0 min 0,000 mm 0,0 UV-I 0 W/m 12,3 C 8,4 C 22,5 km/h (4 Bft) 100,00 %
19.09.2016 21:26 12,8 C 97 % 1014,2 hPa 0,0 l/m 10,9 km/h (2 Bft) W-SW 252 0 min 0,000 mm 0,0 UV-I 0 W/m 12,3 C 10,2 C 17,7 km/h (3 Bft) 100,00 %
19.09.2016 21:28 12,8 C 97 % 1014,2 hPa 0,0 l/m 13,8 km/h (3 Bft) W 272 0 min 0,000 mm 0,0 UV-I 0 W/m 12,3 C 9,0 C 19,3 km/h (3 Bft) 100,00 %
19.09.2016 21:30 12,8 C 97 % 1014,3 hPa 0,2 l/m 10,0 km/h (2 Bft) W 272 0 min 0,000 mm 0,0 UV-I 0 W/m 12,3 C 10,7 C 14,5 km/h (3 Bft) 97,87 %
19.09.2016 21:32 12,8 C 97 % 1014,3 hPa 0,0 l/m 10,6 km/h (2 Bft) W 265 0 min 0,000 mm 0,0 UV-I 0 W/m 12,3 C 10,4 C 17,7 km/h (3 Bft) 95,74 %
19.09.2016 21:34 12,8 C 97 % 1014,3 hPa 0,0 l/m 11,5 km/h (2 Bft) W-NW 285 0 min 0,000 mm 0,0 UV-I 0 W/m 12,3 C 10,0 C 19,3 km/h (3 Bft) 97,87 %
19.09.2016 21:36 12,8 C 97 % 1014,2 hPa 0,2 l/m 12,9 km/h (3 Bft) W 266 0 min 0,000 mm 0,0 UV-I 0 W/m 12,3 C 9,4 C 25,7 km/h (4 Bft) 97,87 %
19.09.2016 21:38 12,8 C 97 % 1014,3 hPa 0,0 l/m 10,3 km/h (2 Bft) W-SW 252 0 min 0,000 mm 0,0 UV-I 0 W/m 12,3 C 10,5 C 16,1 km/h (3 Bft) 95,74 %
19.09.2016 21:40 12,8 C 97 % 1014,3 hPa 0,2 l/m 11,0 km/h (2 Bft) W-SW 250 0 min 0,000 mm 0,0 UV-I 0 W/m 12,3 C 10,2 C 17,7 km/h (3 Bft) 95,74 %
19.09.2016 21:42 12,8 C 97 % 1014,4 hPa 0,0 l/m 10,6 km/h (2 Bft) W-SW 244 0 min 0,000 mm 0,0 UV-I 0 W/m 12,3 C 10,4 C 16,1 km/h (3 Bft) 95,74 %
19.09.2016 21:44 12,8 C 97 % 1014,3 hPa 0,2 l/m 10,8 km/h (2 Bft) W-SW 242 0 min 0,000 mm 0,0 UV-I 0 W/m 12,3 C 10,3 C 19,3 km/h (3 Bft) 98,00 %
19.09.2016 21:46 12,8 C 97 % 1014,3 hPa 0,0 l/m 13,7 km/h (3 Bft) W 265 0 min 0,000 mm 0,0 UV-I 0 W/m 12,3 C 9,0 C 19,3 km/h (3 Bft) 97,87 %
19.09.2016 21:48 12,8 C 97 % 1014,3 hPa 0,2 l/m 12,4 km/h (3 Bft) W-SW 242 0 min 0,000 mm 0,0 UV-I 0 W/m 12,3 C 9,6 C 22,5 km/h (4 Bft) 97,87 %
19.09.2016 21:50 12,8 C 97 % 1014,3 hPa 0,2 l/m 12,4 km/h (3 Bft) W-SW 249 0 min 0,000 mm 0,0 UV-I 0 W/m 12,3 C 9,6 C 16,1 km/h (3 Bft) 97,87 %
19.09.2016 21:52 12,8 C 97 % 1014,3 hPa 0,0 l/m 12,8 km/h (3 Bft) W-SW 239 0 min 0,000 mm 0,0 UV-I 0 W/m 12,3 C 9,4 C 19,3 km/h (3 Bft) 95,74 %
19.09.2016 21:54 12,8 C 97 % 1014,4 hPa 0,0 l/m 12,3 km/h (3 Bft) W-SW 248 0 min 0,000 mm 0,0 UV-I 0 W/m 12,3 C 9,6 C 17,7 km/h (3 Bft) 95,74 %
19.09.2016 21:56 12,8 C 97 % 1014,3 hPa 0,2 l/m 12,3 km/h (3 Bft) W 259 0 min 0,000 mm 0,0 UV-I 0 W/m 12,3 C 9,6 C 19,3 km/h (3 Bft) 98,00 %
19.09.2016 21:58 12,8 C 97 % 1014,4 hPa 0,0 l/m 11,4 km/h (2 Bft) W 260 0 min 0,000 mm 0,0 UV-I 0 W/m 12,3 C 10,0 C 20,9 km/h (4 Bft) 97,37 %
19.09.2016 22:00 12,8 C 97 % 1014,4 hPa 0,2 l/m 13,9 km/h (3 Bft) W 263 0 min 0,000 mm 0,0 UV-I 0 W/m 12,3 C 8,9 C 17,7 km/h (3 Bft) 97,87 %
19.09.2016 22:02 12,8 C 97 % 1014,4 hPa 0,0 l/m 10,6 km/h (2 Bft) W 265 0 min 0,000 mm 0,0 UV-I 0 W/m 12,3 C 10,4 C 16,1 km/h (3 Bft) 97,87 %
19.09.2016 22:04 12,8 C 97 % 1014,4 hPa 0,0 l/m 11,4 km/h (2 Bft) W 260 0 min 0,000 mm 0,0 UV-I 0 W/m 12,3 C 10,0 C 16,1 km/h (3 Bft) 97,87 %
19.09.2016 22:06 12,8 C 97 % 1014,4 hPa 0,0 l/m 10,4 km/h (2 Bft) W-SW 256 0 min 0,000 mm 0,0 UV-I 0 W/m 12,3 C 10,5 C 16,1 km/h (3 Bft) 97,87 %
19.09.2016 22:08 12,8 C 97 % 1014,3 hPa 0,2 l/m 9,6 km/h (2 Bft) W 264 0 min 0,000 mm 0,0 UV-I 0 W/m 12,3 C 10,9 C 12,9 km/h (3 Bft) 95,83 %
19.09.2016 22:10 12,8 C 97 % 1014,4 hPa 0,0 l/m 11,8 km/h (2 Bft) W 271 0 min 0,000 mm 0,0 UV-I 0 W/m 12,3 C 9,8 C 19,3 km/h (3 Bft) 100,00 %
19.09.2016 22:12 12,8 C 97 % 1014,4 hPa 0,0 l/m 11,6 km/h (2 Bft) W-SW 253 0 min 0,000 mm 0,0 UV-I 0 W/m 12,3 C 9,9 C 16,1 km/h (3 Bft) 100,00 %
19.09.2016 22:14 12,8 C 97 % 1014,4 hPa 0,0 l/m 11,5 km/h (2 Bft) W 264 0 min 0,000 mm 0,0 UV-I 0 W/m 12,3 C 10,0 C 14,5 km/h (3 Bft) 97,87 %
19.09.2016 22:16 12,8 C 97 % 1014,4 hPa 0,0 l/m 8,8 km/h (2 Bft) W-SW 248 0 min 0,000 mm 0,0 UV-I 0 W/m 12,3 C 11,3 C 14,5 km/h (3 Bft) 97,87 %
19.09.2016 22:18 12,8 C 97 % 1014,4 hPa 0,0 l/m 8,8 km/h (2 Bft) W 267 0 min 0,000 mm 0,0 UV-I 0 W/m 12,3 C 11,3 C 12,9 km/h (3 Bft) 100,00 %
19.09.2016 22:20 12,8 C 97 % 1014,4 hPa 0,0 l/m 8,0 km/h (2 Bft) W 275 0 min 0,000 mm 0,0 UV-I 0 W/m 12,3 C 11,8 C 12,9 km/h (3 Bft) 100,00 %
19.09.2016 22:22 12,8 C 97 % 1014,4 hPa 0,2 l/m 8,5 km/h (2 Bft) W 261 0 min 0,000 mm 0,0 UV-I 0 W/m 12,3 C 11,5 C 17,7 km/h (3 Bft) 100,00 %
19.09.2016 22:24 12,8 C 97 % 1014,4 hPa 0,0 l/m 9,5 km/h (2 Bft) W-SW 251 0 min 0,000 mm 0,0 UV-I 0 W/m 12,3 C 10,9 C 12,9 km/h (3 Bft) 100,00 %
19.09.2016 22:26 12,8 C 97 % 1014,4 hPa 0,0 l/m 8,8 km/h (2 Bft) W-SW 248 0 min 0,000 mm 0,0 UV-I 0 W/m 12,3 C 11,3 C 16,1 km/h (3 Bft) 100,00 %
19.09.2016 22:28 12,8 C 97 % 1014,4 hPa 0,0 l/m 7,8 km/h (2 Bft) W 263 0 min 0,000 mm 0,0 UV-I 0 W/m 12,3 C 11,9 C 12,9 km/h (3 Bft) 98,00 %
19.09.2016 22:30 12,8 C 97 % 1014,4 hPa 0,0 l/m 13,1 km/h (3 Bft) W-SW 254 0 min 0,000 mm 0,0 UV-I 0 W/m 12,3 C 9,3 C 16,1 km/h (3 Bft) 95,74 %
19.09.2016 22:32 12,8 C 97 % 1014,4 hPa 0,0 l/m 9,7 km/h (2 Bft) W 266 0 min 0,000 mm 0,0 UV-I 0 W/m 12,3 C 10,8 C 17,7 km/h (3 Bft) 100,00 %
19.09.2016 22:34 12,8 C 97 % 1014,4 hPa 0,0 l/m 7,6 km/h (2 Bft) W 259 0 min 0,000 mm 0,0 UV-I 0 W/m 12,3 C 12,0 C 12,9 km/h (3 Bft) 100,00 %
19.09.2016 22:36 12,8 C 97 % 1014,4 hPa 0,0 l/m 9,7 km/h (2 Bft) W-SW 244 0 min 0,000 mm 0,0 UV-I 0 W/m 12,3 C 10,8 C 19,3 km/h (3 Bft) 97,87 %
19.09.2016 22:38 12,8 C 97 % 1014,4 hPa 0,0 l/m 10,9 km/h (2 Bft) W-SW 243 0 min 0,000 mm 0,0 UV-I 0 W/m 12,3 C 10,2 C 17,7 km/h (3 Bft) 100,00 %
19.09.2016 22:40 12,8 C 97 % 1014,4 hPa 0,0 l/m 12,5 km/h (3 Bft) W 275 0 min 0,000 mm 0,0 UV-I 0 W/m 12,3 C 9,5 C 20,9 km/h (4 Bft) 100,00 %
19.09.2016 22:42 12,8 C 97 % 1014,4 hPa 0,0 l/m 9,6 km/h (2 Bft) SW 220 0 min 0,000 mm 0,0 UV-I 0 W/m 12,3 C 10,9 C 16,1 km/h (3 Bft) 100,00 %
19.09.2016 22:44 12,8 C 97 % 1014,3 hPa 0,2 l/m 9,0 km/h (2 Bft) W-SW 256 0 min 0,000 mm 0,0 UV-I 0 W/m 12,3 C 11,2 C 16,1 km/h (3 Bft) 97,87 %
19.09.2016 22:46 12,8 C 97 % 1014,3 hPa 0,0 l/m 9,1 km/h (2 Bft) W-SW 238 0 min 0,000 mm 0,0 UV-I 0 W/m 12,3 C 11,2 C 14,5 km/h (3 Bft) 97,87 %
19.09.2016 22:48 12,8 C 97 % 1014,4 hPa 0,2 l/m 8,8 km/h (2 Bft) W-SW 257 0 min 0,000 mm 0,0 UV-I 0 W/m 12,3 C 11,3 C 14,5 km/h (3 Bft) 100,00 %
19.09.2016 22:50 12,8 C 97 % 1014,3 hPa 0,0 l/m 7,3 km/h (2 Bft) W 271 0 min 0,000 mm 0,0 UV-I 0 W/m 12,3 C 12,2 C 11,3 km/h (2 Bft) 100,00 %
19.09.2016 22:52 12,8 C 97 % 1014,3 hPa 0,0 l/m 6,5 km/h (2 Bft) W-SW 256 0 min 0,000 mm 0,0 UV-I 0 W/m 12,3 C 12,8 C 11,3 km/h (2 Bft) 95,74 %
19.09.2016 22:54 12,8 C 97 % 1014,4 hPa 0,2 l/m 6,9 km/h (2 Bft) W-SW 250 0 min 0,000 mm 0,0 UV-I 0 W/m 12,3 C 12,5 C 9,7 km/h (2 Bft) 93,62 %
19.09.2016 22:56 12,8 C 97 % 1014,3 hPa 0,0 l/m 6,9 km/h (2 Bft) W-SW 255 0 min 0,000 mm 0,0 UV-I 0 W/m 12,3 C 12,5 C 11,3 km/h (2 Bft) 100,00 %
19.09.2016 22:58 12,8 C 97 % 1014,3 hPa 0,0 l/m 5,9 km/h (2 Bft) W 259 0 min 0,000 mm 0,0 UV-I 0 W/m 12,3 C 12,8 C 11,3 km/h (2 Bft) 100,00 %
19.09.2016 23:00 12,8 C 97 % 1014,3 hPa 0,0 l/m 4,9 km/h (1 Bft) W-SW 255 0 min 0,000 mm 0,0 UV-I 0 W/m 12,3 C 12,8 C 6,4 km/h (2 Bft) 97,87 %
19.09.2016 23:02 12,8 C 97 % 1014,3 hPa 0,2 l/m 4,0 km/h (1 Bft) W 270 0 min 0,000 mm 0,0 UV-I 0 W/m 12,3 C 12,8 C 6,4 km/h (2 Bft) 100,00 %
19.09.2016 23:04 12,8 C 97 % 1014,3 hPa 0,0 l/m 8,1 km/h (2 Bft) W-SW 240 0 min 0,000 mm 0,0 UV-I 0 W/m 12,3 C 11,7 C 12,9 km/h (3 Bft) 100,00 %
19.09.2016 23:06 12,8 C 97 % 1014,4 hPa 0,0 l/m 8,5 km/h (2 Bft) W 263 0 min 0,000 mm 0,0 UV-I 0 W/m 12,3 C 11,5 C 12,9 km/h (3 Bft) 95,92 %
19.09.2016 23:08 12,7 C 97 % 1014,4 hPa 0,0 l/m 7,1 km/h (2 Bft) SW 227 0 min 0,000 mm 0,0 UV-I 0 W/m 12,2 C 12,3 C 11,3 km/h (2 Bft) 100,00 %
19.09.2016 23:10 12,7 C 97 % 1014,4 hPa 0,0 l/m 7,3 km/h (2 Bft) W-SW 250 0 min 0,000 mm 0,0 UV-I 0 W/m 12,2 C 12,1 C 12,9 km/h (3 Bft) 100,00 %
19.09.2016 23:12 12,8 C 97 % 1014,4 hPa 0,0 l/m 6,7 km/h (2 Bft) W-SW 238 0 min 0,000 mm 0,0 UV-I 0 W/m 12,3 C 12,6 C 11,3 km/h (2 Bft) 98,11 %
19.09.2016 23:14 12,7 C 97 % 1014,4 hPa 0,0 l/m 4,8 km/h (1 Bft) W-SW 254 0 min 0,000 mm 0,0 UV-I 0 W/m 12,2 C 12,7 C 6,4 km/h (2 Bft) 100,00 %
19.09.2016 23:16 12,7 C 97 % 1014,4 hPa 0,0 l/m 8,5 km/h (2 Bft) W 263 0 min 0,000 mm 0,0 UV-I 0 W/m 12,2 C 11,4 C 11,3 km/h (2 Bft) 97,87 %
19.09.2016 23:18 12,7 C 97 % 1014,3 hPa 0,0 l/m 8,2 km/h (2 Bft) W-SW 253 0 min 0,000 mm 0,0 UV-I 0 W/m 12,2 C 11,6 C 12,9 km/h (3 Bft) 100,00 %
19.09.2016 23:20 12,7 C 97 % 1014,4 hPa 0,0 l/m 8,6 km/h (2 Bft) W 259 0 min 0,000 mm 0,0 UV-I 0 W/m 12,2 C 11,3 C 12,9 km/h (3 Bft) 100,00 %
19.09.2016 23:22 12,7 C 97 % 1014,4 hPa 0,0 l/m 8,9 km/h (2 Bft) W-SW 241 0 min 0,000 mm 0,0 UV-I 0 W/m 12,2 C 11,2 C 12,9 km/h (3 Bft) 100,00 %
19.09.2016 23:24 12,7 C 97 % 1014,4 hPa 0,2 l/m 7,0 km/h (2 Bft) W 260 0 min 0,000 mm 0,0 UV-I 0 W/m 12,2 C 12,3 C 12,9 km/h (3 Bft) 96,23 %
19.09.2016 23:26 12,7 C 97 % 1014,4 hPa 0,0 l/m 8,9 km/h (2 Bft) W 259 0 min 0,000 mm 0,0 UV-I 0 W/m 12,2 C 11,2 C 16,1 km/h (3 Bft) 100,00 %
19.09.2016 23:28 12,7 C 97 % 1014,4 hPa 0,0 l/m 9,0 km/h (2 Bft) W 261 0 min 0,000 mm 0,0 UV-I 0 W/m 12,2 C 11,1 C 14,5 km/h (3 Bft) 97,87 %
19.09.2016 23:30 12,7 C 97 % 1014,4 hPa 0,0 l/m 8,5 km/h (2 Bft) W-SW 255 0 min 0,000 mm 0,0 UV-I 0 W/m 12,2 C 11,4 C 14,5 km/h (3 Bft) 97,87 %
19.09.2016 23:32 12,7 C 97 % 1014,4 hPa 0,0 l/m 7,5 km/h (2 Bft) W 261 0 min 0,000 mm 0,0 UV-I 0 W/m 12,2 C 12,0 C 11,3 km/h (2 Bft) 100,00 %
19.09.2016 23:34 12,7 C 97 % 1014,4 hPa 0,0 l/m 10,4 km/h (2 Bft) W-SW 258 0 min 0,000 mm 0,0 UV-I 0 W/m 12,2 C 10,4 C 16,1 km/h (3 Bft) 97,44 %
19.09.2016 23:36 12,7 C 97 % 1014,4 hPa 0,0 l/m 13,0 km/h (3 Bft) W 265 0 min 0,000 mm 0,0 UV-I 0 W/m 12,2 C 9,2 C 19,3 km/h (3 Bft) 97,87 %
19.09.2016 23:38 12,7 C 97 % 1014,4 hPa 0,0 l/m 9,1 km/h (2 Bft) W 261 0 min 0,000 mm 0,0 UV-I 0 W/m 12,2 C 11,1 C 16,1 km/h (3 Bft) 96,00 %
19.09.2016 23:40 12,7 C 97 % 1014,4 hPa 0,0 l/m 10,7 km/h (2 Bft) SW 228 0 min 0,000 mm 0,0 UV-I 0 W/m 12,2 C 10,2 C 14,5 km/h (3 Bft) 97,87 %
19.09.2016 23:42 12,7 C 97 % 1014,4 hPa 0,0 l/m 11,6 km/h (2 Bft) SW 236 0 min 0,000 mm 0,0 UV-I 0 W/m 12,2 C 9,8 C 17,7 km/h (3 Bft) 95,74 %
19.09.2016 23:44 12,7 C 97 % 1014,4 hPa 0,0 l/m 8,1 km/h (2 Bft) W 261 0 min 0,000 mm 0,0 UV-I 0 W/m 12,2 C 11,6 C 14,5 km/h (3 Bft) 97,87 %
19.09.2016 23:46 12,7 C 97 % 1014,4 hPa 0,0 l/m 11,3 km/h (2 Bft) W-SW 253 0 min 0,000 mm 0,0 UV-I 0 W/m 12,2 C 9,9 C 16,1 km/h (3 Bft) 97,87 %
19.09.2016 23:48 12,7 C 97 % 1014,5 hPa 0,0 l/m 10,7 km/h (2 Bft) W-SW 255 0 min 0,000 mm 0,0 UV-I 0 W/m 12,2 C 10,2 C 14,5 km/h (3 Bft) 93,62 %
19.09.2016 23:50 12,7 C 97 % 1014,5 hPa 0,0 l/m 10,9 km/h (2 Bft) W-SW 250 0 min 0,000 mm 0,0 UV-I 0 W/m 12,2 C 10,1 C 16,1 km/h (3 Bft) 95,74 %
19.09.2016 23:52 12,7 C 97 % 1014,5 hPa 0,0 l/m 10,3 km/h (2 Bft) W-NW 290 0 min 0,000 mm 0,0 UV-I 0 W/m 12,2 C 10,4 C 16,1 km/h (3 Bft) 95,74 %
19.09.2016 23:54 12,7 C 97 % 1014,5 hPa 0,0 l/m 10,3 km/h (2 Bft) W-SW 252 0 min 0,000 mm 0,0 UV-I 0 W/m 12,2 C 10,4 C 19,3 km/h (3 Bft) 97,87 %
19.09.2016 23:56 12,7 C 97 % 1014,5 hPa 0,0 l/m 10,8 km/h (2 Bft) W-SW 251 0 min 0,000 mm 0,0 UV-I 0 W/m 12,2 C 10,2 C 14,5 km/h (3 Bft) 96,00 %
19.09.2016 23:58 12,7 C 97 % 1014,4 hPa 0,0 l/m 10,6 km/h (2 Bft) W-SW 257 0 min 0,000 mm 0,0 UV-I 0 W/m 12,2 C 10,3 C 14,5 km/h (3 Bft) 97,87 %
_ Min-Zeit 22:46 00:02 00:00 - 04:56 - - - - - - 00:32 20:22 01:56 06:40
Minimum _ 12,7 C 91 % 1009,9 hPa - 0,2 km/h (0 Bft) - - - - - - 12,0 C 8,1 C 1,6 km/h (1 Bft) 92,00 %
_ Max-Zeit 09:34 16:32 23:48 20:20 13:02 - - 00:00 13:00 12:28 12:28 09:36 09:52 12:08 00:06
Maximum _ 14,6 C 97 % 1014,5 hPa 0,8 l/m 17,2 km/h
W-SW (3 Bft)
- - 0 min 0,077 mm 1,4 UV-I 183 W/m 14,0 C 14,5 C 30,6 km/h
W (5 Bft)
100,00 %
Durchschnitt _ 13,7 C 95 % 1011,8 hPa #27,8 l/m 8,6 km/h (2 Bft) W-SW - #0 min. #0,381 mm 0,7 UV-I 57 W/m 12,9 C 12,1 C 13,8 km/h (3 Bft) 98,46 %